<?xml version="1.0" encoding="UTF-8" standalone="no" ?>
<gpx xmlns="http://www.topografix.com/GPX/1/1" xmlns:xsi="http://www.w3.org/2001/XMLSchema-instance" xsi:schemaLocation="http://www.topografix.com/GPX/1/1 http://www.topografix.com/GPX/1/1/gpx.xsd" version="1.1" creator="VisuGPX - https://www.visugpx.com">
  <metadata>
    <name>Autour 3 saints sec Toulas Maurice Didier Riverie</name>
    <desc><![CDATA[Tour agréable au départ de Mornant. Direction Saint Andeol et Saint Jean de Toulas.
Remontée vers Saint Maurice sur Dargoire et Saint Didier Sous Riverie.
Passage sous Saint André la Coté puis retour en passant par Chaussan.]]></desc>
  </metadata>
  <trk>
    <name><![CDATA[Autour 3 saints sec Toulas Maurice Didier Riverie]]></name>
    <extensions>
      <line xmlns="http://www.topografix.com/GPX/gpx_style/0/2">
        <color>0000FF</color>
        <width>4</width>
      </line>
    </extensions>
    <trkseg>
      <trkpt lat="45.61959" lon="4.6715">
        <ele>419.47309</ele>
        <time>2025-05-08T06:37:26.192Z</time>
      </trkpt>
      <trkpt lat="45.61951" lon="4.67141">
        <ele>419.47309</ele>
        <time>2025-05-08T06:37:31.149Z</time>
      </trkpt>
      <trkpt lat="45.61944" lon="4.67132">
        <ele>419.47309</ele>
        <time>2025-05-08T06:37:35.183Z</time>
      </trkpt>
      <trkpt lat="45.61937" lon="4.67123">
        <ele>419.47309</ele>
        <time>2025-05-08T06:37:42.196Z</time>
      </trkpt>
      <trkpt lat="45.61936" lon="4.67109">
        <ele>419.47309</ele>
        <time>2025-05-08T06:37:46.175Z</time>
      </trkpt>
      <trkpt lat="45.61938" lon="4.67094">
        <ele>419.47309</ele>
        <time>2025-05-08T06:37:50.174Z</time>
      </trkpt>
      <trkpt lat="45.61936" lon="4.67078">
        <ele>419.47309</ele>
        <time>2025-05-08T06:37:54.200Z</time>
      </trkpt>
      <trkpt lat="45.61933" lon="4.67059">
        <ele>419.47309</ele>
        <time>2025-05-08T06:37:57.156Z</time>
      </trkpt>
      <trkpt lat="45.61932" lon="4.67044">
        <ele>419.47309</ele>
        <time>2025-05-08T06:37:59.147Z</time>
      </trkpt>
      <trkpt lat="45.61933" lon="4.67026">
        <ele>418.92045</ele>
        <time>2025-05-08T06:38:01.142Z</time>
      </trkpt>
      <trkpt lat="45.61935" lon="4.67008">
        <ele>417.977445</ele>
        <time>2025-05-08T06:38:03.130Z</time>
      </trkpt>
      <trkpt lat="45.61938" lon="4.66989">
        <ele>416.968075</ele>
        <time>2025-05-08T06:38:05.149Z</time>
      </trkpt>
      <trkpt lat="45.61941" lon="4.66969">
        <ele>415.942223</ele>
        <time>2025-05-08T06:38:07.203Z</time>
      </trkpt>
      <trkpt lat="45.61944" lon="4.6695">
        <ele>414.927687</ele>
        <time>2025-05-08T06:38:09.133Z</time>
      </trkpt>
      <trkpt lat="45.61947" lon="4.6693">
        <ele>413.907629</ele>
        <time>2025-05-08T06:38:11.125Z</time>
      </trkpt>
      <trkpt lat="45.6195" lon="4.66912">
        <ele>412.938216</ele>
        <time>2025-05-08T06:38:13.137Z</time>
      </trkpt>
      <trkpt lat="45.61954" lon="4.66894">
        <ele>411.975239</ele>
        <time>2025-05-08T06:38:15.141Z</time>
      </trkpt>
      <trkpt lat="45.6196" lon="4.66878">
        <ele>411.025468</ele>
        <time>2025-05-08T06:38:17.156Z</time>
      </trkpt>
      <trkpt lat="45.61969" lon="4.66862">
        <ele>410.022849</ele>
        <time>2025-05-08T06:38:19.161Z</time>
      </trkpt>
      <trkpt lat="45.61978" lon="4.66848">
        <ele>409.021783</ele>
        <time>2025-05-08T06:38:21.235Z</time>
      </trkpt>
      <trkpt lat="45.61989" lon="4.66836">
        <ele>408.005128</ele>
        <time>2025-05-08T06:38:23.150Z</time>
      </trkpt>
      <trkpt lat="45.61999" lon="4.66822">
        <ele>406.976676</ele>
        <time>2025-05-08T06:38:25.143Z</time>
      </trkpt>
      <trkpt lat="45.62007" lon="4.66807">
        <ele>405.919303</ele>
        <time>2025-05-08T06:38:27.146Z</time>
      </trkpt>
      <trkpt lat="45.62009" lon="4.66793">
        <ele>405.052028</ele>
        <time>2025-05-08T06:38:29.150Z</time>
      </trkpt>
      <trkpt lat="45.62001" lon="4.66786">
        <ele>404.183163</ele>
        <time>2025-05-08T06:38:31.133Z</time>
      </trkpt>
      <trkpt lat="45.61991" lon="4.66786">
        <ele>403.294889</ele>
        <time>2025-05-08T06:38:33.169Z</time>
      </trkpt>
      <trkpt lat="45.61981" lon="4.66785">
        <ele>402.33147</ele>
        <time>2025-05-08T06:38:36.143Z</time>
      </trkpt>
      <trkpt lat="45.61971" lon="4.66783">
        <ele>401.375617</ele>
        <time>2025-05-08T06:38:38.185Z</time>
      </trkpt>
      <trkpt lat="45.61957" lon="4.66783">
        <ele>400.117797</ele>
        <time>2025-05-08T06:38:40.139Z</time>
      </trkpt>
      <trkpt lat="45.61941" lon="4.66784">
        <ele>398.646871</ele>
        <time>2025-05-08T06:38:42.130Z</time>
      </trkpt>
      <trkpt lat="45.61929" lon="4.66783">
        <ele>397.490578</ele>
        <time>2025-05-08T06:38:44.139Z</time>
      </trkpt>
      <trkpt lat="45.6192" lon="4.66779">
        <ele>396.658829</ele>
        <time>2025-05-08T06:38:46.149Z</time>
      </trkpt>
      <trkpt lat="45.6191" lon="4.66778">
        <ele>395.696626</ele>
        <time>2025-05-08T06:38:48.139Z</time>
      </trkpt>
      <trkpt lat="45.61899" lon="4.66782">
        <ele>394.682909</ele>
        <time>2025-05-08T06:38:50.149Z</time>
      </trkpt>
      <trkpt lat="45.61888" lon="4.66789">
        <ele>393.577316</ele>
        <time>2025-05-08T06:38:52.140Z</time>
      </trkpt>
      <trkpt lat="45.61877" lon="4.66797">
        <ele>392.378094</ele>
        <time>2025-05-08T06:38:54.179Z</time>
      </trkpt>
      <trkpt lat="45.61864" lon="4.66806">
        <ele>391.05869</ele>
        <time>2025-05-08T06:38:56.137Z</time>
      </trkpt>
      <trkpt lat="45.6185" lon="4.66815">
        <ele>389.686961</ele>
        <time>2025-05-08T06:38:58.144Z</time>
      </trkpt>
      <trkpt lat="45.61836" lon="4.66822">
        <ele>389.356154</ele>
        <time>2025-05-08T06:39:00.135Z</time>
      </trkpt>
      <trkpt lat="45.61823" lon="4.66828">
        <ele>389.055117</ele>
        <time>2025-05-08T06:39:02.161Z</time>
      </trkpt>
      <trkpt lat="45.61814" lon="4.6683">
        <ele>388.855029</ele>
        <time>2025-05-08T06:39:04.136Z</time>
      </trkpt>
      <trkpt lat="45.61804" lon="4.66833">
        <ele>388.641742</ele>
        <time>2025-05-08T06:39:06.181Z</time>
      </trkpt>
      <trkpt lat="45.61794" lon="4.66837">
        <ele>388.40355</ele>
        <time>2025-05-08T06:39:08.186Z</time>
      </trkpt>
      <trkpt lat="45.61783" lon="4.6684">
        <ele>388.169647</ele>
        <time>2025-05-08T06:39:10.145Z</time>
      </trkpt>
      <trkpt lat="45.61773" lon="4.66844">
        <ele>387.930661</ele>
        <time>2025-05-08T06:39:12.140Z</time>
      </trkpt>
      <trkpt lat="45.61763" lon="4.66849">
        <ele>387.702101</ele>
        <time>2025-05-08T06:39:14.148Z</time>
      </trkpt>
      <trkpt lat="45.61754" lon="4.66853">
        <ele>387.485008</ele>
        <time>2025-05-08T06:39:16.137Z</time>
      </trkpt>
      <trkpt lat="45.61742" lon="4.66859">
        <ele>387.218283</ele>
        <time>2025-05-08T06:39:19.146Z</time>
      </trkpt>
      <trkpt lat="45.61733" lon="4.66864">
        <ele>387.009933</ele>
        <time>2025-05-08T06:39:23.140Z</time>
      </trkpt>
      <trkpt lat="45.61723" lon="4.66866">
        <ele>386.790185</ele>
        <time>2025-05-08T06:39:27.165Z</time>
      </trkpt>
      <trkpt lat="45.61714" lon="4.66877">
        <ele>386.532877</ele>
        <time>2025-05-08T06:39:31.162Z</time>
      </trkpt>
      <trkpt lat="45.61707" lon="4.6689">
        <ele>386.272163</ele>
        <time>2025-05-08T06:39:33.191Z</time>
      </trkpt>
      <trkpt lat="45.61699" lon="4.66898">
        <ele>386.069089</ele>
        <time>2025-05-08T06:39:35.168Z</time>
      </trkpt>
      <trkpt lat="45.61692" lon="4.66905">
        <ele>385.869754</ele>
        <time>2025-05-08T06:39:37.159Z</time>
      </trkpt>
      <trkpt lat="45.61683" lon="4.66918">
        <ele>385.696274</ele>
        <time>2025-05-08T06:39:40.164Z</time>
      </trkpt>
      <trkpt lat="45.61676" lon="4.66931">
        <ele>385.616478</ele>
        <time>2025-05-08T06:39:43.196Z</time>
      </trkpt>
      <trkpt lat="45.61668" lon="4.66944">
        <ele>385.532224</ele>
        <time>2025-05-08T06:39:46.186Z</time>
      </trkpt>
      <trkpt lat="45.61658" lon="4.66956">
        <ele>385.444497</ele>
        <time>2025-05-08T06:39:49.174Z</time>
      </trkpt>
      <trkpt lat="45.61649" lon="4.66967">
        <ele>385.359721</ele>
        <time>2025-05-08T06:39:52.168Z</time>
      </trkpt>
      <trkpt lat="45.61641" lon="4.66978">
        <ele>385.281906</ele>
        <time>2025-05-08T06:39:55.172Z</time>
      </trkpt>
      <trkpt lat="45.61633" lon="4.66989">
        <ele>385.208924</ele>
        <time>2025-05-08T06:39:58.196Z</time>
      </trkpt>
      <trkpt lat="45.61625" lon="4.67">
        <ele>385.128896</ele>
        <time>2025-05-08T06:40:01.148Z</time>
      </trkpt>
      <trkpt lat="45.61617" lon="4.6701">
        <ele>385.055857</ele>
        <time>2025-05-08T06:40:04.180Z</time>
      </trkpt>
      <trkpt lat="45.61613" lon="4.67023">
        <ele>384.986496</ele>
        <time>2025-05-08T06:40:07.192Z</time>
      </trkpt>
      <trkpt lat="45.61612" lon="4.67036">
        <ele>384.922451</ele>
        <time>2025-05-08T06:40:10.179Z</time>
      </trkpt>
      <trkpt lat="45.61615" lon="4.67049">
        <ele>384.855729</ele>
        <time>2025-05-08T06:40:13.198Z</time>
      </trkpt>
      <trkpt lat="45.61616" lon="4.67065">
        <ele>384.780847</ele>
        <time>2025-05-08T06:40:17.182Z</time>
      </trkpt>
      <trkpt lat="45.61607" lon="4.6707">
        <ele>384.711563</ele>
        <time>2025-05-08T06:40:20.166Z</time>
      </trkpt>
      <trkpt lat="45.61597" lon="4.67072">
        <ele>384.642837</ele>
        <time>2025-05-08T06:40:23.179Z</time>
      </trkpt>
      <trkpt lat="45.61588" lon="4.67074">
        <ele>384.580187</ele>
        <time>2025-05-08T06:40:27.177Z</time>
      </trkpt>
      <trkpt lat="45.6158" lon="4.67082">
        <ele>384.510094</ele>
        <time>2025-05-08T06:40:34.169Z</time>
      </trkpt>
      <trkpt lat="45.61571" lon="4.67075">
        <ele>384.282346</ele>
        <time>2025-05-08T06:40:38.174Z</time>
      </trkpt>
      <trkpt lat="45.61573" lon="4.67062">
        <ele>384.042798</ele>
        <time>2025-05-08T06:40:43.176Z</time>
      </trkpt>
      <trkpt lat="45.61568" lon="4.67047">
        <ele>383.756128</ele>
        <time>2025-05-08T06:40:46.162Z</time>
      </trkpt>
      <trkpt lat="45.61559" lon="4.67037">
        <ele>383.454539</ele>
        <time>2025-05-08T06:40:49.203Z</time>
      </trkpt>
      <trkpt lat="45.6155" lon="4.67036">
        <ele>383.216021</ele>
        <time>2025-05-08T06:40:51.168Z</time>
      </trkpt>
      <trkpt lat="45.6154" lon="4.67041">
        <ele>382.944998</ele>
        <time>2025-05-08T06:40:53.179Z</time>
      </trkpt>
      <trkpt lat="45.61529" lon="4.67047">
        <ele>382.669006</ele>
        <time>2025-05-08T06:40:55.159Z</time>
      </trkpt>
      <trkpt lat="45.61521" lon="4.67049">
        <ele>382.439351</ele>
        <time>2025-05-08T06:40:57.161Z</time>
      </trkpt>
      <trkpt lat="45.61509" lon="4.67051">
        <ele>382.146006</ele>
        <time>2025-05-08T06:41:00.164Z</time>
      </trkpt>
      <trkpt lat="45.61499" lon="4.67057">
        <ele>381.857944</ele>
        <time>2025-05-08T06:41:03.174Z</time>
      </trkpt>
      <trkpt lat="45.61489" lon="4.67069">
        <ele>381.543751</ele>
        <time>2025-05-08T06:41:06.157Z</time>
      </trkpt>
      <trkpt lat="45.61482" lon="4.67079">
        <ele>381.287388</ele>
        <time>2025-05-08T06:41:09.155Z</time>
      </trkpt>
      <trkpt lat="45.61473" lon="4.67088">
        <ele>381.006841</ele>
        <time>2025-05-08T06:41:12.144Z</time>
      </trkpt>
      <trkpt lat="45.61463" lon="4.6709">
        <ele>380.747224</ele>
        <time>2025-05-08T06:41:14.137Z</time>
      </trkpt>
      <trkpt lat="45.61454" lon="4.67095">
        <ele>380.505775</ele>
        <time>2025-05-08T06:41:16.157Z</time>
      </trkpt>
      <trkpt lat="45.61447" lon="4.67106">
        <ele>380.250072</ele>
        <time>2025-05-08T06:41:18.150Z</time>
      </trkpt>
      <trkpt lat="45.61441" lon="4.67118">
        <ele>379.9876</ele>
        <time>2025-05-08T06:41:20.154Z</time>
      </trkpt>
      <trkpt lat="45.61435" lon="4.67129">
        <ele>379.925511</ele>
        <time>2025-05-08T06:41:22.142Z</time>
      </trkpt>
      <trkpt lat="45.61432" lon="4.67143">
        <ele>379.908373</ele>
        <time>2025-05-08T06:41:25.141Z</time>
      </trkpt>
      <trkpt lat="45.61428" lon="4.67156">
        <ele>379.892314</ele>
        <time>2025-05-08T06:41:28.139Z</time>
      </trkpt>
      <trkpt lat="45.61422" lon="4.6717">
        <ele>379.873336</ele>
        <time>2025-05-08T06:41:31.161Z</time>
      </trkpt>
      <trkpt lat="45.6142" lon="4.67185">
        <ele>379.85677</ele>
        <time>2025-05-08T06:41:34.171Z</time>
      </trkpt>
      <trkpt lat="45.61428" lon="4.67194">
        <ele>379.839993</ele>
        <time>2025-05-08T06:41:38.180Z</time>
      </trkpt>
      <trkpt lat="45.61434" lon="4.67203">
        <ele>379.825259</ele>
        <time>2025-05-08T06:41:42.178Z</time>
      </trkpt>
      <trkpt lat="45.61433" lon="4.67216">
        <ele>379.810012</ele>
        <time>2025-05-08T06:41:46.170Z</time>
      </trkpt>
      <trkpt lat="45.61432" lon="4.67231">
        <ele>379.793725</ele>
        <time>2025-05-08T06:41:50.175Z</time>
      </trkpt>
      <trkpt lat="45.6143" lon="4.67246">
        <ele>379.775948</ele>
        <time>2025-05-08T06:41:56.177Z</time>
      </trkpt>
      <trkpt lat="45.6142" lon="4.67254">
        <ele>379.757049</ele>
        <time>2025-05-08T06:42:00.163Z</time>
      </trkpt>
      <trkpt lat="45.61412" lon="4.67261">
        <ele>379.741541</ele>
        <time>2025-05-08T06:42:03.177Z</time>
      </trkpt>
      <trkpt lat="45.61403" lon="4.67267">
        <ele>379.725822</ele>
        <time>2025-05-08T06:42:06.207Z</time>
      </trkpt>
      <trkpt lat="45.61395" lon="4.67272">
        <ele>379.711133</ele>
        <time>2025-05-08T06:42:09.154Z</time>
      </trkpt>
      <trkpt lat="45.61373" lon="4.67286">
        <ele>379.672146</ele>
        <time>2025-05-08T06:42:49.198Z</time>
      </trkpt>
      <trkpt lat="45.61365" lon="4.67295">
        <ele>379.655071</ele>
        <time>2025-05-08T06:42:52.201Z</time>
      </trkpt>
      <trkpt lat="45.61356" lon="4.67304">
        <ele>379.520273</ele>
        <time>2025-05-08T06:42:55.180Z</time>
      </trkpt>
      <trkpt lat="45.61348" lon="4.67312">
        <ele>379.183202</ele>
        <time>2025-05-08T06:42:58.181Z</time>
      </trkpt>
      <trkpt lat="45.61338" lon="4.67319">
        <ele>378.837964</ele>
        <time>2025-05-08T06:43:01.150Z</time>
      </trkpt>
      <trkpt lat="45.61328" lon="4.67326">
        <ele>378.471633</ele>
        <time>2025-05-08T06:43:04.172Z</time>
      </trkpt>
      <trkpt lat="45.6132" lon="4.67332">
        <ele>378.180302</ele>
        <time>2025-05-08T06:43:06.178Z</time>
      </trkpt>
      <trkpt lat="45.61312" lon="4.67339">
        <ele>377.872688</ele>
        <time>2025-05-08T06:43:08.167Z</time>
      </trkpt>
      <trkpt lat="45.61304" lon="4.67346">
        <ele>377.564585</ele>
        <time>2025-05-08T06:43:10.170Z</time>
      </trkpt>
      <trkpt lat="45.61295" lon="4.67354">
        <ele>377.246233</ele>
        <time>2025-05-08T06:43:12.153Z</time>
      </trkpt>
      <trkpt lat="45.61286" lon="4.67365">
        <ele>376.841036</ele>
        <time>2025-05-08T06:43:15.166Z</time>
      </trkpt>
      <trkpt lat="45.61277" lon="4.67375">
        <ele>376.485075</ele>
        <time>2025-05-08T06:43:18.179Z</time>
      </trkpt>
      <trkpt lat="45.61267" lon="4.67386">
        <ele>376.088076</ele>
        <time>2025-05-08T06:43:22.186Z</time>
      </trkpt>
      <trkpt lat="45.6126" lon="4.67397">
        <ele>375.742065</ele>
        <time>2025-05-08T06:43:24.171Z</time>
      </trkpt>
      <trkpt lat="45.61251" lon="4.67411">
        <ele>375.312602</ele>
        <time>2025-05-08T06:43:26.170Z</time>
      </trkpt>
      <trkpt lat="45.61242" lon="4.6742">
        <ele>374.956233</ele>
        <time>2025-05-08T06:43:28.178Z</time>
      </trkpt>
      <trkpt lat="45.61233" lon="4.67429">
        <ele>374.602508</ele>
        <time>2025-05-08T06:43:30.167Z</time>
      </trkpt>
      <trkpt lat="45.61225" lon="4.67443">
        <ele>374.210092</ele>
        <time>2025-05-08T06:43:32.182Z</time>
      </trkpt>
      <trkpt lat="45.6122" lon="4.67459">
        <ele>373.84752</ele>
        <time>2025-05-08T06:43:34.181Z</time>
      </trkpt>
      <trkpt lat="45.61218" lon="4.67475">
        <ele>373.789929</ele>
        <time>2025-05-08T06:43:36.171Z</time>
      </trkpt>
      <trkpt lat="45.61215" lon="4.67493">
        <ele>373.729246</ele>
        <time>2025-05-08T06:43:38.199Z</time>
      </trkpt>
      <trkpt lat="45.61212" lon="4.67508">
        <ele>373.675291</ele>
        <time>2025-05-08T06:43:40.186Z</time>
      </trkpt>
      <trkpt lat="45.61207" lon="4.67526">
        <ele>373.610798</ele>
        <time>2025-05-08T06:43:43.183Z</time>
      </trkpt>
      <trkpt lat="45.61202" lon="4.67537">
        <ele>373.562684</ele>
        <time>2025-05-08T06:43:45.156Z</time>
      </trkpt>
      <trkpt lat="45.61195" lon="4.6755">
        <ele>373.509867</ele>
        <time>2025-05-08T06:43:47.164Z</time>
      </trkpt>
      <trkpt lat="45.61191" lon="4.67565">
        <ele>373.454505</ele>
        <time>2025-05-08T06:43:49.175Z</time>
      </trkpt>
      <trkpt lat="45.61187" lon="4.67578">
        <ele>373.407459</ele>
        <time>2025-05-08T06:43:51.165Z</time>
      </trkpt>
      <trkpt lat="45.6118" lon="4.67592">
        <ele>373.34629</ele>
        <time>2025-05-08T06:43:54.159Z</time>
      </trkpt>
      <trkpt lat="45.61169" lon="4.67605">
        <ele>373.280465</ele>
        <time>2025-05-08T06:43:57.193Z</time>
      </trkpt>
      <trkpt lat="45.61161" lon="4.67613">
        <ele>373.229969</ele>
        <time>2025-05-08T06:43:59.175Z</time>
      </trkpt>
      <trkpt lat="45.61151" lon="4.67622">
        <ele>373.176852</ele>
        <time>2025-05-08T06:44:01.156Z</time>
      </trkpt>
      <trkpt lat="45.61142" lon="4.6763">
        <ele>373.123176</ele>
        <time>2025-05-08T06:44:03.173Z</time>
      </trkpt>
      <trkpt lat="45.61133" lon="4.67639">
        <ele>373.070894</ele>
        <time>2025-05-08T06:44:05.174Z</time>
      </trkpt>
      <trkpt lat="45.61125" lon="4.67647">
        <ele>373.020176</ele>
        <time>2025-05-08T06:44:07.173Z</time>
      </trkpt>
      <trkpt lat="45.61116" lon="4.67656">
        <ele>372.977749</ele>
        <time>2025-05-08T06:44:09.164Z</time>
      </trkpt>
      <trkpt lat="45.61108" lon="4.67664">
        <ele>372.966242</ele>
        <time>2025-05-08T06:44:11.155Z</time>
      </trkpt>
      <trkpt lat="45.61099" lon="4.67672">
        <ele>372.954311</ele>
        <time>2025-05-08T06:44:13.193Z</time>
      </trkpt>
      <trkpt lat="45.61091" lon="4.67681">
        <ele>372.942147</ele>
        <time>2025-05-08T06:44:15.183Z</time>
      </trkpt>
      <trkpt lat="45.61082" lon="4.67689">
        <ele>372.930449</ele>
        <time>2025-05-08T06:44:17.159Z</time>
      </trkpt>
      <trkpt lat="45.61075" lon="4.67697">
        <ele>372.919557</ele>
        <time>2025-05-08T06:44:19.171Z</time>
      </trkpt>
      <trkpt lat="45.61067" lon="4.67704">
        <ele>372.908803</ele>
        <time>2025-05-08T06:44:21.149Z</time>
      </trkpt>
      <trkpt lat="45.61059" lon="4.67711">
        <ele>372.898214</ele>
        <time>2025-05-08T06:44:23.186Z</time>
      </trkpt>
      <trkpt lat="45.61048" lon="4.67722">
        <ele>372.88251</ele>
        <time>2025-05-08T06:44:26.195Z</time>
      </trkpt>
      <trkpt lat="45.6104" lon="4.67728">
        <ele>372.871401</ele>
        <time>2025-05-08T06:44:28.190Z</time>
      </trkpt>
      <trkpt lat="45.61031" lon="4.67735">
        <ele>372.860331</ele>
        <time>2025-05-08T06:44:30.177Z</time>
      </trkpt>
      <trkpt lat="45.61022" lon="4.67739">
        <ele>372.848807</ele>
        <time>2025-05-08T06:44:32.159Z</time>
      </trkpt>
      <trkpt lat="45.61013" lon="4.67746">
        <ele>372.837377</ele>
        <time>2025-05-08T06:44:34.161Z</time>
      </trkpt>
      <trkpt lat="45.61005" lon="4.67754">
        <ele>372.826109</ele>
        <time>2025-05-08T06:44:36.177Z</time>
      </trkpt>
      <trkpt lat="45.60997" lon="4.67762">
        <ele>372.814684</ele>
        <time>2025-05-08T06:44:38.170Z</time>
      </trkpt>
      <trkpt lat="45.60989" lon="4.67768">
        <ele>372.80369</ele>
        <time>2025-05-08T06:44:40.191Z</time>
      </trkpt>
      <trkpt lat="45.60977" lon="4.67776">
        <ele>372.789006</ele>
        <time>2025-05-08T06:44:43.180Z</time>
      </trkpt>
      <trkpt lat="45.60967" lon="4.67783">
        <ele>372.775262</ele>
        <time>2025-05-08T06:44:46.186Z</time>
      </trkpt>
      <trkpt lat="45.60958" lon="4.67792">
        <ele>372.871396</ele>
        <time>2025-05-08T06:44:49.171Z</time>
      </trkpt>
      <trkpt lat="45.60951" lon="4.678">
        <ele>373.002582</ele>
        <time>2025-05-08T06:44:52.180Z</time>
      </trkpt>
      <trkpt lat="45.60943" lon="4.67809">
        <ele>373.13981</ele>
        <time>2025-05-08T06:44:55.173Z</time>
      </trkpt>
      <trkpt lat="45.60936" lon="4.67818">
        <ele>373.274834</ele>
        <time>2025-05-08T06:44:58.175Z</time>
      </trkpt>
      <trkpt lat="45.60929" lon="4.67827">
        <ele>373.409617</ele>
        <time>2025-05-08T06:45:01.146Z</time>
      </trkpt>
      <trkpt lat="45.60921" lon="4.67838">
        <ele>373.556395</ele>
        <time>2025-05-08T06:45:04.172Z</time>
      </trkpt>
      <trkpt lat="45.60913" lon="4.67847">
        <ele>373.703845</ele>
        <time>2025-05-08T06:45:07.164Z</time>
      </trkpt>
      <trkpt lat="45.60905" lon="4.67857">
        <ele>373.85179</ele>
        <time>2025-05-08T06:45:10.175Z</time>
      </trkpt>
      <trkpt lat="45.60898" lon="4.67868">
        <ele>373.993712</ele>
        <time>2025-05-08T06:45:13.159Z</time>
      </trkpt>
      <trkpt lat="45.60893" lon="4.67879">
        <ele>374.125151</ele>
        <time>2025-05-08T06:45:16.156Z</time>
      </trkpt>
      <trkpt lat="45.60888" lon="4.6789">
        <ele>374.253181</ele>
        <time>2025-05-08T06:45:19.165Z</time>
      </trkpt>
      <trkpt lat="45.60884" lon="4.67903">
        <ele>374.393883</ele>
        <time>2025-05-08T06:45:22.193Z</time>
      </trkpt>
      <trkpt lat="45.60881" lon="4.6792">
        <ele>374.559206</ele>
        <time>2025-05-08T06:45:25.183Z</time>
      </trkpt>
      <trkpt lat="45.60879" lon="4.67935">
        <ele>374.714859</ele>
        <time>2025-05-08T06:45:28.173Z</time>
      </trkpt>
      <trkpt lat="45.60876" lon="4.67951">
        <ele>374.873333</ele>
        <time>2025-05-08T06:45:31.174Z</time>
      </trkpt>
      <trkpt lat="45.60873" lon="4.67965">
        <ele>375.016554</ele>
        <time>2025-05-08T06:45:34.174Z</time>
      </trkpt>
      <trkpt lat="45.60871" lon="4.6798">
        <ele>375.167708</ele>
        <time>2025-05-08T06:45:37.146Z</time>
      </trkpt>
      <trkpt lat="45.60868" lon="4.67993">
        <ele>375.27954</ele>
        <time>2025-05-08T06:45:40.157Z</time>
      </trkpt>
      <trkpt lat="45.60866" lon="4.68006">
        <ele>375.22412</ele>
        <time>2025-05-08T06:45:43.153Z</time>
      </trkpt>
      <trkpt lat="45.60863" lon="4.68019">
        <ele>375.16672</ele>
        <time>2025-05-08T06:45:46.149Z</time>
      </trkpt>
      <trkpt lat="45.6086" lon="4.68032">
        <ele>375.109093</ele>
        <time>2025-05-08T06:45:49.142Z</time>
      </trkpt>
      <trkpt lat="45.60857" lon="4.68048">
        <ele>375.037022</ele>
        <time>2025-05-08T06:45:53.144Z</time>
      </trkpt>
      <trkpt lat="45.60856" lon="4.68063">
        <ele>374.976305</ele>
        <time>2025-05-08T06:45:56.157Z</time>
      </trkpt>
      <trkpt lat="45.60853" lon="4.68077">
        <ele>374.911436</ele>
        <time>2025-05-08T06:45:59.162Z</time>
      </trkpt>
      <trkpt lat="45.6085" lon="4.68093">
        <ele>374.842123</ele>
        <time>2025-05-08T06:46:02.139Z</time>
      </trkpt>
      <trkpt lat="45.60847" lon="4.68107">
        <ele>374.780722</ele>
        <time>2025-05-08T06:46:05.157Z</time>
      </trkpt>
      <trkpt lat="45.60843" lon="4.68121">
        <ele>374.717671</ele>
        <time>2025-05-08T06:46:08.169Z</time>
      </trkpt>
      <trkpt lat="45.60831" lon="4.68118">
        <ele>374.643037</ele>
        <time>2025-05-08T06:46:11.155Z</time>
      </trkpt>
      <trkpt lat="45.6082" lon="4.68116">
        <ele>374.578432</ele>
        <time>2025-05-08T06:46:14.165Z</time>
      </trkpt>
      <trkpt lat="45.60811" lon="4.68119">
        <ele>374.522271</ele>
        <time>2025-05-08T06:46:17.159Z</time>
      </trkpt>
      <trkpt lat="45.60801" lon="4.68125">
        <ele>374.45692</ele>
        <time>2025-05-08T06:46:21.144Z</time>
      </trkpt>
      <trkpt lat="45.60777" lon="4.68137">
        <ele>374.30266</ele>
        <time>2025-05-08T06:47:34.191Z</time>
      </trkpt>
      <trkpt lat="45.60766" lon="4.68143">
        <ele>374.229241</ele>
        <time>2025-05-08T06:47:38.177Z</time>
      </trkpt>
      <trkpt lat="45.60756" lon="4.68148">
        <ele>374.134114</ele>
        <time>2025-05-08T06:47:41.147Z</time>
      </trkpt>
      <trkpt lat="45.60747" lon="4.68153">
        <ele>374.002534</ele>
        <time>2025-05-08T06:47:44.164Z</time>
      </trkpt>
      <trkpt lat="45.60738" lon="4.68158">
        <ele>373.870192</ele>
        <time>2025-05-08T06:47:47.178Z</time>
      </trkpt>
      <trkpt lat="45.60729" lon="4.68164">
        <ele>373.737099</ele>
        <time>2025-05-08T06:47:50.190Z</time>
      </trkpt>
      <trkpt lat="45.60719" lon="4.68168">
        <ele>373.598411</ele>
        <time>2025-05-08T06:47:53.194Z</time>
      </trkpt>
      <trkpt lat="45.60707" lon="4.68171">
        <ele>373.444117</ele>
        <time>2025-05-08T06:47:56.160Z</time>
      </trkpt>
      <trkpt lat="45.60696" lon="4.68172">
        <ele>373.293859</ele>
        <time>2025-05-08T06:47:59.165Z</time>
      </trkpt>
      <trkpt lat="45.60684" lon="4.6817">
        <ele>373.13503</ele>
        <time>2025-05-08T06:48:02.183Z</time>
      </trkpt>
      <trkpt lat="45.60673" lon="4.68169">
        <ele>372.987039</ele>
        <time>2025-05-08T06:48:05.181Z</time>
      </trkpt>
      <trkpt lat="45.60663" lon="4.68164">
        <ele>372.843256</ele>
        <time>2025-05-08T06:48:08.157Z</time>
      </trkpt>
      <trkpt lat="45.60653" lon="4.68158">
        <ele>372.707361</ele>
        <time>2025-05-08T06:48:11.154Z</time>
      </trkpt>
      <trkpt lat="45.60644" lon="4.68149">
        <ele>372.553269</ele>
        <time>2025-05-08T06:48:14.171Z</time>
      </trkpt>
      <trkpt lat="45.60635" lon="4.68138">
        <ele>372.391337</ele>
        <time>2025-05-08T06:48:17.175Z</time>
      </trkpt>
      <trkpt lat="45.60625" lon="4.68125">
        <ele>372.214297</ele>
        <time>2025-05-08T06:48:20.160Z</time>
      </trkpt>
      <trkpt lat="45.60616" lon="4.68112">
        <ele>372.046893</ele>
        <time>2025-05-08T06:48:23.174Z</time>
      </trkpt>
      <trkpt lat="45.60607" lon="4.68099">
        <ele>371.880152</ele>
        <time>2025-05-08T06:48:26.177Z</time>
      </trkpt>
      <trkpt lat="45.60597" lon="4.68087">
        <ele>371.659337</ele>
        <time>2025-05-08T06:48:29.176Z</time>
      </trkpt>
      <trkpt lat="45.60587" lon="4.68075">
        <ele>371.401243</ele>
        <time>2025-05-08T06:48:32.175Z</time>
      </trkpt>
      <trkpt lat="45.60576" lon="4.68065">
        <ele>371.158139</ele>
        <time>2025-05-08T06:48:35.163Z</time>
      </trkpt>
      <trkpt lat="45.60566" lon="4.68056">
        <ele>370.920504</ele>
        <time>2025-05-08T06:48:38.177Z</time>
      </trkpt>
      <trkpt lat="45.60558" lon="4.6805">
        <ele>370.744729</ele>
        <time>2025-05-08T06:48:40.168Z</time>
      </trkpt>
      <trkpt lat="45.6055" lon="4.68043">
        <ele>370.561258</ele>
        <time>2025-05-08T06:48:42.172Z</time>
      </trkpt>
      <trkpt lat="45.60541" lon="4.68037">
        <ele>370.369032</ele>
        <time>2025-05-08T06:48:44.166Z</time>
      </trkpt>
      <trkpt lat="45.60532" lon="4.68029">
        <ele>370.179155</ele>
        <time>2025-05-08T06:48:46.177Z</time>
      </trkpt>
      <trkpt lat="45.60524" lon="4.68022">
        <ele>369.989973</ele>
        <time>2025-05-08T06:48:48.157Z</time>
      </trkpt>
      <trkpt lat="45.60516" lon="4.68016">
        <ele>369.813263</ele>
        <time>2025-05-08T06:48:50.167Z</time>
      </trkpt>
      <trkpt lat="45.60508" lon="4.68009">
        <ele>369.629137</ele>
        <time>2025-05-08T06:48:52.164Z</time>
      </trkpt>
      <trkpt lat="45.605" lon="4.68003">
        <ele>369.44501</ele>
        <time>2025-05-08T06:48:54.168Z</time>
      </trkpt>
      <trkpt lat="45.60492" lon="4.67996">
        <ele>369.268973</ele>
        <time>2025-05-08T06:48:56.174Z</time>
      </trkpt>
      <trkpt lat="45.6048" lon="4.67987">
        <ele>369.018199</ele>
        <time>2025-05-08T06:48:59.170Z</time>
      </trkpt>
      <trkpt lat="45.60469" lon="4.67978">
        <ele>368.76468</ele>
        <time>2025-05-08T06:49:02.176Z</time>
      </trkpt>
      <trkpt lat="45.60461" lon="4.67973">
        <ele>368.59025</ele>
        <time>2025-05-08T06:49:04.173Z</time>
      </trkpt>
      <trkpt lat="45.60452" lon="4.67967">
        <ele>368.397731</ele>
        <time>2025-05-08T06:49:06.166Z</time>
      </trkpt>
      <trkpt lat="45.60443" lon="4.67961">
        <ele>368.212045</ele>
        <time>2025-05-08T06:49:08.179Z</time>
      </trkpt>
      <trkpt lat="45.60433" lon="4.67956">
        <ele>368.033844</ele>
        <time>2025-05-08T06:49:10.164Z</time>
      </trkpt>
      <trkpt lat="45.60424" lon="4.67953">
        <ele>367.865209</ele>
        <time>2025-05-08T06:49:12.177Z</time>
      </trkpt>
      <trkpt lat="45.60415" lon="4.6795">
        <ele>367.693655</ele>
        <time>2025-05-08T06:49:14.172Z</time>
      </trkpt>
      <trkpt lat="45.60406" lon="4.67948">
        <ele>367.521843</ele>
        <time>2025-05-08T06:49:16.180Z</time>
      </trkpt>
      <trkpt lat="45.60392" lon="4.67947">
        <ele>367.277988</ele>
        <time>2025-05-08T06:49:19.186Z</time>
      </trkpt>
      <trkpt lat="45.60383" lon="4.67947">
        <ele>367.114622</ele>
        <time>2025-05-08T06:49:21.169Z</time>
      </trkpt>
      <trkpt lat="45.60374" lon="4.67948">
        <ele>366.94001</ele>
        <time>2025-05-08T06:49:23.165Z</time>
      </trkpt>
      <trkpt lat="45.60365" lon="4.67949">
        <ele>366.77222</ele>
        <time>2025-05-08T06:49:25.176Z</time>
      </trkpt>
      <trkpt lat="45.60355" lon="4.6795">
        <ele>366.604429</ele>
        <time>2025-05-08T06:49:27.193Z</time>
      </trkpt>
      <trkpt lat="45.60346" lon="4.67952">
        <ele>366.440117</ele>
        <time>2025-05-08T06:49:29.176Z</time>
      </trkpt>
      <trkpt lat="45.60334" lon="4.67953">
        <ele>366.207022</ele>
        <time>2025-05-08T06:49:32.187Z</time>
      </trkpt>
      <trkpt lat="45.60321" lon="4.67955">
        <ele>365.974027</ele>
        <time>2025-05-08T06:49:35.180Z</time>
      </trkpt>
      <trkpt lat="45.60308" lon="4.67956">
        <ele>365.7354</ele>
        <time>2025-05-08T06:49:38.170Z</time>
      </trkpt>
      <trkpt lat="45.60299" lon="4.67957">
        <ele>365.571221</ele>
        <time>2025-05-08T06:49:40.170Z</time>
      </trkpt>
      <trkpt lat="45.6029" lon="4.67958">
        <ele>365.407559</ele>
        <time>2025-05-08T06:49:42.190Z</time>
      </trkpt>
      <trkpt lat="45.60281" lon="4.67959">
        <ele>365.242002</ele>
        <time>2025-05-08T06:49:44.172Z</time>
      </trkpt>
      <trkpt lat="45.60271" lon="4.6796">
        <ele>365.072524</ele>
        <time>2025-05-08T06:49:46.159Z</time>
      </trkpt>
      <trkpt lat="45.60262" lon="4.67961">
        <ele>364.933393</ele>
        <time>2025-05-08T06:49:48.167Z</time>
      </trkpt>
      <trkpt lat="45.60249" lon="4.67962">
        <ele>364.736543</ele>
        <time>2025-05-08T06:49:51.190Z</time>
      </trkpt>
      <trkpt lat="45.60239" lon="4.67962">
        <ele>364.588662</ele>
        <time>2025-05-08T06:49:53.180Z</time>
      </trkpt>
      <trkpt lat="45.60229" lon="4.67961">
        <ele>364.447632</ele>
        <time>2025-05-08T06:49:55.177Z</time>
      </trkpt>
      <trkpt lat="45.6022" lon="4.67959">
        <ele>364.30694</ele>
        <time>2025-05-08T06:49:57.175Z</time>
      </trkpt>
      <trkpt lat="45.60211" lon="4.67956">
        <ele>364.172812</ele>
        <time>2025-05-08T06:49:59.180Z</time>
      </trkpt>
      <trkpt lat="45.60202" lon="4.67952">
        <ele>364.031198</ele>
        <time>2025-05-08T06:50:01.165Z</time>
      </trkpt>
      <trkpt lat="45.60193" lon="4.67947">
        <ele>363.88703</ele>
        <time>2025-05-08T06:50:03.180Z</time>
      </trkpt>
      <trkpt lat="45.60184" lon="4.67942">
        <ele>363.744159</ele>
        <time>2025-05-08T06:50:05.156Z</time>
      </trkpt>
      <trkpt lat="45.60175" lon="4.67936">
        <ele>363.602186</ele>
        <time>2025-05-08T06:50:07.167Z</time>
      </trkpt>
      <trkpt lat="45.60166" lon="4.67929">
        <ele>363.457104</ele>
        <time>2025-05-08T06:50:09.171Z</time>
      </trkpt>
      <trkpt lat="45.60158" lon="4.67923">
        <ele>363.314058</ele>
        <time>2025-05-08T06:50:11.160Z</time>
      </trkpt>
      <trkpt lat="45.6015" lon="4.67916">
        <ele>363.176181</ele>
        <time>2025-05-08T06:50:13.173Z</time>
      </trkpt>
      <trkpt lat="45.60142" lon="4.67909">
        <ele>363.038874</ele>
        <time>2025-05-08T06:50:15.175Z</time>
      </trkpt>
      <trkpt lat="45.60134" lon="4.67903">
        <ele>362.90201</ele>
        <time>2025-05-08T06:50:17.172Z</time>
      </trkpt>
      <trkpt lat="45.60125" lon="4.67897">
        <ele>362.76136</ele>
        <time>2025-05-08T06:50:19.167Z</time>
      </trkpt>
      <trkpt lat="45.60117" lon="4.6789">
        <ele>362.623719</ele>
        <time>2025-05-08T06:50:21.168Z</time>
      </trkpt>
      <trkpt lat="45.60105" lon="4.67882">
        <ele>362.427029</ele>
        <time>2025-05-08T06:50:24.170Z</time>
      </trkpt>
      <trkpt lat="45.60095" lon="4.67873">
        <ele>362.48885</ele>
        <time>2025-05-08T06:50:27.161Z</time>
      </trkpt>
      <trkpt lat="45.60084" lon="4.67864">
        <ele>362.610193</ele>
        <time>2025-05-08T06:50:30.185Z</time>
      </trkpt>
      <trkpt lat="45.60073" lon="4.67854">
        <ele>362.730411</ele>
        <time>2025-05-08T06:50:33.166Z</time>
      </trkpt>
      <trkpt lat="45.60062" lon="4.67845">
        <ele>362.849487</ele>
        <time>2025-05-08T06:50:36.166Z</time>
      </trkpt>
      <trkpt lat="45.60054" lon="4.67834">
        <ele>362.957149</ele>
        <time>2025-05-08T06:50:39.174Z</time>
      </trkpt>
      <trkpt lat="45.60047" lon="4.67823">
        <ele>363.056972</ele>
        <time>2025-05-08T06:50:42.170Z</time>
      </trkpt>
      <trkpt lat="45.60041" lon="4.6781">
        <ele>363.156506</ele>
        <time>2025-05-08T06:50:45.156Z</time>
      </trkpt>
      <trkpt lat="45.60034" lon="4.67796">
        <ele>363.265671</ele>
        <time>2025-05-08T06:50:48.162Z</time>
      </trkpt>
      <trkpt lat="45.60028" lon="4.67783">
        <ele>363.369471</ele>
        <time>2025-05-08T06:50:51.148Z</time>
      </trkpt>
      <trkpt lat="45.6002" lon="4.67771">
        <ele>363.47445</ele>
        <time>2025-05-08T06:50:54.172Z</time>
      </trkpt>
      <trkpt lat="45.60013" lon="4.67762">
        <ele>363.565043</ele>
        <time>2025-05-08T06:50:57.154Z</time>
      </trkpt>
      <trkpt lat="45.60005" lon="4.67755">
        <ele>363.655514</ele>
        <time>2025-05-08T06:51:00.187Z</time>
      </trkpt>
      <trkpt lat="45.59997" lon="4.67746">
        <ele>363.748244</ele>
        <time>2025-05-08T06:51:03.165Z</time>
      </trkpt>
      <trkpt lat="45.5999" lon="4.67739">
        <ele>363.834105</ele>
        <time>2025-05-08T06:51:06.160Z</time>
      </trkpt>
      <trkpt lat="45.59982" lon="4.6773">
        <ele>363.926686</ele>
        <time>2025-05-08T06:51:09.175Z</time>
      </trkpt>
      <trkpt lat="45.59974" lon="4.67722">
        <ele>364.020959</ele>
        <time>2025-05-08T06:51:12.190Z</time>
      </trkpt>
      <trkpt lat="45.59965" lon="4.67714">
        <ele>364.359613</ele>
        <time>2025-05-08T06:51:15.165Z</time>
      </trkpt>
      <trkpt lat="45.59957" lon="4.67707">
        <ele>365.239482</ele>
        <time>2025-05-08T06:51:18.172Z</time>
      </trkpt>
      <trkpt lat="45.59947" lon="4.67696">
        <ele>366.278813</ele>
        <time>2025-05-08T06:51:22.178Z</time>
      </trkpt>
      <trkpt lat="45.59941" lon="4.67684">
        <ele>367.180581</ele>
        <time>2025-05-08T06:51:25.160Z</time>
      </trkpt>
      <trkpt lat="45.59932" lon="4.67674">
        <ele>368.142572</ele>
        <time>2025-05-08T06:51:28.181Z</time>
      </trkpt>
      <trkpt lat="45.59923" lon="4.67673">
        <ele>368.99753</ele>
        <time>2025-05-08T06:51:31.149Z</time>
      </trkpt>
      <trkpt lat="45.59914" lon="4.67669">
        <ele>369.773905</ele>
        <time>2025-05-08T06:51:34.165Z</time>
      </trkpt>
      <trkpt lat="45.59907" lon="4.67658">
        <ele>370.670554</ele>
        <time>2025-05-08T06:51:38.170Z</time>
      </trkpt>
      <trkpt lat="45.59899" lon="4.67649">
        <ele>371.569922</ele>
        <time>2025-05-08T06:51:43.159Z</time>
      </trkpt>
      <trkpt lat="45.59889" lon="4.67648">
        <ele>372.43999</ele>
        <time>2025-05-08T06:51:47.162Z</time>
      </trkpt>
      <trkpt lat="45.59879" lon="4.67642">
        <ele>373.302061</ele>
        <time>2025-05-08T06:51:52.165Z</time>
      </trkpt>
      <trkpt lat="45.59871" lon="4.67636">
        <ele>374.127928</ele>
        <time>2025-05-08T06:51:58.165Z</time>
      </trkpt>
      <trkpt lat="45.59862" lon="4.67629">
        <ele>375.014376</ele>
        <time>2025-05-08T06:52:02.178Z</time>
      </trkpt>
      <trkpt lat="45.59855" lon="4.67621">
        <ele>375.794289</ele>
        <time>2025-05-08T06:52:13.168Z</time>
      </trkpt>
      <trkpt lat="45.59847" lon="4.67614">
        <ele>376.596198</ele>
        <time>2025-05-08T06:52:17.166Z</time>
      </trkpt>
      <trkpt lat="45.5984" lon="4.67606">
        <ele>377.390502</ele>
        <time>2025-05-08T06:52:21.157Z</time>
      </trkpt>
      <trkpt lat="45.59832" lon="4.67595">
        <ele>378.300922</ele>
        <time>2025-05-08T06:52:26.165Z</time>
      </trkpt>
      <trkpt lat="45.59825" lon="4.67584">
        <ele>379.215942</ele>
        <time>2025-05-08T06:52:31.162Z</time>
      </trkpt>
      <trkpt lat="45.59817" lon="4.67573">
        <ele>380.009524</ele>
        <time>2025-05-08T06:52:36.169Z</time>
      </trkpt>
      <trkpt lat="45.5981" lon="4.67563">
        <ele>380.606322</ele>
        <time>2025-05-08T06:52:40.175Z</time>
      </trkpt>
      <trkpt lat="45.59802" lon="4.67555">
        <ele>381.187086</ele>
        <time>2025-05-08T06:52:44.172Z</time>
      </trkpt>
      <trkpt lat="45.59793" lon="4.67545">
        <ele>381.832155</ele>
        <time>2025-05-08T06:52:48.172Z</time>
      </trkpt>
      <trkpt lat="45.59784" lon="4.67537">
        <ele>382.487086</ele>
        <time>2025-05-08T06:52:52.166Z</time>
      </trkpt>
      <trkpt lat="45.59775" lon="4.67527">
        <ele>383.154639</ele>
        <time>2025-05-08T06:52:56.179Z</time>
      </trkpt>
      <trkpt lat="45.59766" lon="4.67517">
        <ele>383.869059</ele>
        <time>2025-05-08T06:53:00.168Z</time>
      </trkpt>
      <trkpt lat="45.59756" lon="4.67507">
        <ele>384.566537</ele>
        <time>2025-05-08T06:53:04.180Z</time>
      </trkpt>
      <trkpt lat="45.59737" lon="4.67483">
        <ele>386.104674</ele>
        <time>2025-05-08T06:53:47.179Z</time>
      </trkpt>
      <trkpt lat="45.59727" lon="4.67479">
        <ele>386.710138</ele>
        <time>2025-05-08T06:53:51.156Z</time>
      </trkpt>
      <trkpt lat="45.59716" lon="4.67481">
        <ele>387.38291</ele>
        <time>2025-05-08T06:53:55.176Z</time>
      </trkpt>
      <trkpt lat="45.59705" lon="4.67482">
        <ele>388.014602</ele>
        <time>2025-05-08T06:53:59.178Z</time>
      </trkpt>
      <trkpt lat="45.59695" lon="4.67485">
        <ele>388.649769</ele>
        <time>2025-05-08T06:54:03.179Z</time>
      </trkpt>
      <trkpt lat="45.59684" lon="4.67487">
        <ele>389.333443</ele>
        <time>2025-05-08T06:54:07.175Z</time>
      </trkpt>
      <trkpt lat="45.59674" lon="4.6749">
        <ele>389.931906</ele>
        <time>2025-05-08T06:54:11.147Z</time>
      </trkpt>
      <trkpt lat="45.59672" lon="4.67509">
        <ele>390.241791</ele>
        <time>2025-05-08T06:56:11.155Z</time>
      </trkpt>
      <trkpt lat="45.59671" lon="4.67526">
        <ele>390.04803</ele>
        <time>2025-05-08T06:56:16.170Z</time>
      </trkpt>
      <trkpt lat="45.5967" lon="4.67539">
        <ele>389.889872</ele>
        <time>2025-05-08T06:56:19.173Z</time>
      </trkpt>
      <trkpt lat="45.59671" lon="4.67556">
        <ele>389.687039</ele>
        <time>2025-05-08T06:56:22.174Z</time>
      </trkpt>
      <trkpt lat="45.59671" lon="4.67569">
        <ele>389.534914</ele>
        <time>2025-05-08T06:56:24.185Z</time>
      </trkpt>
      <trkpt lat="45.59672" lon="4.67583">
        <ele>389.371967</ele>
        <time>2025-05-08T06:56:26.169Z</time>
      </trkpt>
      <trkpt lat="45.59675" lon="4.67597">
        <ele>389.197397</ele>
        <time>2025-05-08T06:56:28.169Z</time>
      </trkpt>
      <trkpt lat="45.59677" lon="4.67611">
        <ele>389.023679</ele>
        <time>2025-05-08T06:56:30.143Z</time>
      </trkpt>
      <trkpt lat="45.5968" lon="4.67626">
        <ele>388.848201</ele>
        <time>2025-05-08T06:56:32.162Z</time>
      </trkpt>
      <trkpt lat="45.59683" lon="4.6764">
        <ele>388.669325</ele>
        <time>2025-05-08T06:56:34.168Z</time>
      </trkpt>
      <trkpt lat="45.59685" lon="4.67656">
        <ele>388.485294</ele>
        <time>2025-05-08T06:56:36.197Z</time>
      </trkpt>
      <trkpt lat="45.59686" lon="4.67673">
        <ele>388.282322</ele>
        <time>2025-05-08T06:56:38.169Z</time>
      </trkpt>
      <trkpt lat="45.59685" lon="4.67692">
        <ele>388.057476</ele>
        <time>2025-05-08T06:56:40.166Z</time>
      </trkpt>
      <trkpt lat="45.59682" lon="4.67709">
        <ele>387.844315</ele>
        <time>2025-05-08T06:56:42.164Z</time>
      </trkpt>
      <trkpt lat="45.59678" lon="4.67724">
        <ele>387.659352</ele>
        <time>2025-05-08T06:56:44.189Z</time>
      </trkpt>
      <trkpt lat="45.59673" lon="4.67736">
        <ele>387.501177</ele>
        <time>2025-05-08T06:56:47.159Z</time>
      </trkpt>
      <trkpt lat="45.59662" lon="4.67768">
        <ele>387.341124</ele>
        <time>2025-05-08T06:57:17.185Z</time>
      </trkpt>
      <trkpt lat="45.5965" lon="4.67777">
        <ele>387.355119</ele>
        <time>2025-05-08T06:57:19.173Z</time>
      </trkpt>
      <trkpt lat="45.59644" lon="4.67787">
        <ele>387.365311</ele>
        <time>2025-05-08T06:57:21.144Z</time>
      </trkpt>
      <trkpt lat="45.59637" lon="4.67798">
        <ele>387.375881</ele>
        <time>2025-05-08T06:57:23.176Z</time>
      </trkpt>
      <trkpt lat="45.59631" lon="4.67809">
        <ele>387.38642</ele>
        <time>2025-05-08T06:57:25.174Z</time>
      </trkpt>
      <trkpt lat="45.59624" lon="4.67818">
        <ele>387.396713</ele>
        <time>2025-05-08T06:57:27.177Z</time>
      </trkpt>
      <trkpt lat="45.59613" lon="4.67829">
        <ele>387.410462</ele>
        <time>2025-05-08T06:57:30.212Z</time>
      </trkpt>
      <trkpt lat="45.59605" lon="4.67841">
        <ele>387.422443</ele>
        <time>2025-05-08T06:57:33.166Z</time>
      </trkpt>
      <trkpt lat="45.59601" lon="4.67858">
        <ele>387.436077</ele>
        <time>2025-05-08T06:57:36.182Z</time>
      </trkpt>
      <trkpt lat="45.59598" lon="4.67871">
        <ele>387.446368</ele>
        <time>2025-05-08T06:57:38.159Z</time>
      </trkpt>
      <trkpt lat="45.59594" lon="4.67886">
        <ele>387.457877</ele>
        <time>2025-05-08T06:57:40.139Z</time>
      </trkpt>
      <trkpt lat="45.59591" lon="4.67902">
        <ele>387.4703</ele>
        <time>2025-05-08T06:57:42.169Z</time>
      </trkpt>
      <trkpt lat="45.5959" lon="4.6792">
        <ele>387.483413</ele>
        <time>2025-05-08T06:57:44.153Z</time>
      </trkpt>
      <trkpt lat="45.59588" lon="4.67938">
        <ele>387.497131</ele>
        <time>2025-05-08T06:57:46.169Z</time>
      </trkpt>
      <trkpt lat="45.59583" lon="4.67955">
        <ele>387.510556</ele>
        <time>2025-05-08T06:57:48.176Z</time>
      </trkpt>
      <trkpt lat="45.59578" lon="4.6797">
        <ele>387.577097</ele>
        <time>2025-05-08T06:57:50.150Z</time>
      </trkpt>
      <trkpt lat="45.59574" lon="4.67984">
        <ele>387.669855</ele>
        <time>2025-05-08T06:57:52.167Z</time>
      </trkpt>
      <trkpt lat="45.59569" lon="4.67996">
        <ele>387.753561</ele>
        <time>2025-05-08T06:57:54.166Z</time>
      </trkpt>
      <trkpt lat="45.59562" lon="4.6801">
        <ele>387.860042</ele>
        <time>2025-05-08T06:57:57.186Z</time>
      </trkpt>
      <trkpt lat="45.59556" lon="4.68022">
        <ele>387.955599</ele>
        <time>2025-05-08T06:58:00.164Z</time>
      </trkpt>
      <trkpt lat="45.59548" lon="4.68034">
        <ele>388.05683</ele>
        <time>2025-05-08T06:58:03.165Z</time>
      </trkpt>
      <trkpt lat="45.59543" lon="4.68048">
        <ele>388.157161</ele>
        <time>2025-05-08T06:58:06.163Z</time>
      </trkpt>
      <trkpt lat="45.5954" lon="4.68063">
        <ele>388.248107</ele>
        <time>2025-05-08T06:58:09.173Z</time>
      </trkpt>
      <trkpt lat="45.59537" lon="4.68077">
        <ele>388.341321</ele>
        <time>2025-05-08T06:58:12.160Z</time>
      </trkpt>
      <trkpt lat="45.59536" lon="4.68092">
        <ele>388.433994</ele>
        <time>2025-05-08T06:58:15.169Z</time>
      </trkpt>
      <trkpt lat="45.59534" lon="4.68107">
        <ele>388.526196</ele>
        <time>2025-05-08T06:58:18.174Z</time>
      </trkpt>
      <trkpt lat="45.59532" lon="4.68121">
        <ele>388.618094</ele>
        <time>2025-05-08T06:58:21.151Z</time>
      </trkpt>
      <trkpt lat="45.59531" lon="4.68135">
        <ele>388.701937</ele>
        <time>2025-05-08T06:58:24.160Z</time>
      </trkpt>
      <trkpt lat="45.5953" lon="4.68148">
        <ele>388.783081</ele>
        <time>2025-05-08T06:58:27.142Z</time>
      </trkpt>
      <trkpt lat="45.59529" lon="4.68162">
        <ele>388.874568</ele>
        <time>2025-05-08T06:58:30.163Z</time>
      </trkpt>
      <trkpt lat="45.59527" lon="4.68178">
        <ele>388.969842</ele>
        <time>2025-05-08T06:58:33.177Z</time>
      </trkpt>
      <trkpt lat="45.59526" lon="4.68195">
        <ele>389.075669</ele>
        <time>2025-05-08T06:58:36.166Z</time>
      </trkpt>
      <trkpt lat="45.59524" lon="4.6821">
        <ele>389.272831</ele>
        <time>2025-05-08T06:58:39.166Z</time>
      </trkpt>
      <trkpt lat="45.59521" lon="4.68224">
        <ele>389.499729</ele>
        <time>2025-05-08T06:58:42.166Z</time>
      </trkpt>
      <trkpt lat="45.59517" lon="4.68237">
        <ele>389.716236</ele>
        <time>2025-05-08T06:58:45.168Z</time>
      </trkpt>
      <trkpt lat="45.59512" lon="4.68249">
        <ele>389.927738</ele>
        <time>2025-05-08T06:58:48.162Z</time>
      </trkpt>
      <trkpt lat="45.59508" lon="4.68261">
        <ele>390.126626</ele>
        <time>2025-05-08T06:58:51.167Z</time>
      </trkpt>
      <trkpt lat="45.59502" lon="4.68275">
        <ele>390.3908</ele>
        <time>2025-05-08T06:58:55.181Z</time>
      </trkpt>
      <trkpt lat="45.59496" lon="4.6829">
        <ele>390.645819</ele>
        <time>2025-05-08T06:58:59.182Z</time>
      </trkpt>
      <trkpt lat="45.59491" lon="4.68304">
        <ele>390.8913</ele>
        <time>2025-05-08T06:59:03.187Z</time>
      </trkpt>
      <trkpt lat="45.59487" lon="4.68318">
        <ele>391.114507</ele>
        <time>2025-05-08T06:59:07.180Z</time>
      </trkpt>
      <trkpt lat="45.59485" lon="4.68333">
        <ele>391.353272</ele>
        <time>2025-05-08T06:59:11.185Z</time>
      </trkpt>
      <trkpt lat="45.59483" lon="4.68346">
        <ele>391.570018</ele>
        <time>2025-05-08T06:59:15.149Z</time>
      </trkpt>
      <trkpt lat="45.5948" lon="4.68362">
        <ele>391.818267</ele>
        <time>2025-05-08T06:59:19.159Z</time>
      </trkpt>
      <trkpt lat="45.59475" lon="4.68373">
        <ele>392.021162</ele>
        <time>2025-05-08T06:59:22.156Z</time>
      </trkpt>
      <trkpt lat="45.59467" lon="4.68381">
        <ele>392.228128</ele>
        <time>2025-05-08T06:59:25.164Z</time>
      </trkpt>
      <trkpt lat="45.59459" lon="4.6839">
        <ele>392.453538</ele>
        <time>2025-05-08T06:59:28.166Z</time>
      </trkpt>
      <trkpt lat="45.5945" lon="4.68396">
        <ele>392.673222</ele>
        <time>2025-05-08T06:59:31.157Z</time>
      </trkpt>
      <trkpt lat="45.59441" lon="4.68403">
        <ele>392.887055</ele>
        <time>2025-05-08T06:59:34.170Z</time>
      </trkpt>
      <trkpt lat="45.59433" lon="4.68407">
        <ele>393.072029</ele>
        <time>2025-05-08T06:59:37.161Z</time>
      </trkpt>
      <trkpt lat="45.59422" lon="4.68412">
        <ele>393.172195</ele>
        <time>2025-05-08T06:59:41.169Z</time>
      </trkpt>
      <trkpt lat="45.5941" lon="4.68418">
        <ele>393.282864</ele>
        <time>2025-05-08T06:59:45.157Z</time>
      </trkpt>
      <trkpt lat="45.59401" lon="4.68421">
        <ele>393.370291</ele>
        <time>2025-05-08T06:59:48.175Z</time>
      </trkpt>
      <trkpt lat="45.59392" lon="4.68425">
        <ele>393.453698</ele>
        <time>2025-05-08T06:59:51.140Z</time>
      </trkpt>
      <trkpt lat="45.59383" lon="4.68429">
        <ele>393.540555</ele>
        <time>2025-05-08T06:59:54.184Z</time>
      </trkpt>
      <trkpt lat="45.59373" lon="4.68434">
        <ele>393.634581</ele>
        <time>2025-05-08T06:59:57.157Z</time>
      </trkpt>
      <trkpt lat="45.59364" lon="4.68439">
        <ele>393.725489</ele>
        <time>2025-05-08T07:00:00.164Z</time>
      </trkpt>
      <trkpt lat="45.59355" lon="4.68444">
        <ele>393.810423</ele>
        <time>2025-05-08T07:00:03.167Z</time>
      </trkpt>
      <trkpt lat="45.59347" lon="4.6845">
        <ele>393.896048</ele>
        <time>2025-05-08T07:00:06.178Z</time>
      </trkpt>
      <trkpt lat="45.59338" lon="4.68456">
        <ele>393.98194</ele>
        <time>2025-05-08T07:00:09.163Z</time>
      </trkpt>
      <trkpt lat="45.59329" lon="4.68462">
        <ele>394.07302</ele>
        <time>2025-05-08T07:00:12.176Z</time>
      </trkpt>
      <trkpt lat="45.59319" lon="4.68468">
        <ele>394.167665</ele>
        <time>2025-05-08T07:00:15.167Z</time>
      </trkpt>
      <trkpt lat="45.5931" lon="4.68475">
        <ele>394.262021</ele>
        <time>2025-05-08T07:00:18.170Z</time>
      </trkpt>
      <trkpt lat="45.59301" lon="4.68483">
        <ele>394.354891</ele>
        <time>2025-05-08T07:00:21.147Z</time>
      </trkpt>
      <trkpt lat="45.59294" lon="4.68491">
        <ele>394.443873</ele>
        <time>2025-05-08T07:00:24.186Z</time>
      </trkpt>
      <trkpt lat="45.59286" lon="4.68501">
        <ele>394.532385</ele>
        <time>2025-05-08T07:00:27.148Z</time>
      </trkpt>
      <trkpt lat="45.59279" lon="4.68511">
        <ele>394.624001</ele>
        <time>2025-05-08T07:00:30.183Z</time>
      </trkpt>
      <trkpt lat="45.59271" lon="4.68519">
        <ele>394.713242</ele>
        <time>2025-05-08T07:00:33.157Z</time>
      </trkpt>
      <trkpt lat="45.59263" lon="4.68526">
        <ele>394.799151</ele>
        <time>2025-05-08T07:00:36.194Z</time>
      </trkpt>
      <trkpt lat="45.59254" lon="4.68532">
        <ele>394.885054</ele>
        <time>2025-05-08T07:00:39.140Z</time>
      </trkpt>
      <trkpt lat="45.59244" lon="4.6854">
        <ele>394.984117</ele>
        <time>2025-05-08T07:00:42.172Z</time>
      </trkpt>
      <trkpt lat="45.59234" lon="4.68549">
        <ele>395.092045</ele>
        <time>2025-05-08T07:00:45.161Z</time>
      </trkpt>
      <trkpt lat="45.59224" lon="4.68559">
        <ele>395.200653</ele>
        <time>2025-05-08T07:00:48.165Z</time>
      </trkpt>
      <trkpt lat="45.59213" lon="4.68567">
        <ele>395.308435</ele>
        <time>2025-05-08T07:00:51.139Z</time>
      </trkpt>
      <trkpt lat="45.59203" lon="4.68575">
        <ele>395.412026</ele>
        <time>2025-05-08T07:00:54.174Z</time>
      </trkpt>
      <trkpt lat="45.59193" lon="4.68582">
        <ele>395.513334</ele>
        <time>2025-05-08T07:00:57.143Z</time>
      </trkpt>
      <trkpt lat="45.59182" lon="4.68589">
        <ele>395.614525</ele>
        <time>2025-05-08T07:01:00.166Z</time>
      </trkpt>
      <trkpt lat="45.59172" lon="4.68596">
        <ele>395.719961</ele>
        <time>2025-05-08T07:01:03.157Z</time>
      </trkpt>
      <trkpt lat="45.59162" lon="4.68604">
        <ele>395.82049</ele>
        <time>2025-05-08T07:01:06.154Z</time>
      </trkpt>
      <trkpt lat="45.59152" lon="4.68611">
        <ele>395.916114</ele>
        <time>2025-05-08T07:01:09.164Z</time>
      </trkpt>
      <trkpt lat="45.59143" lon="4.68619">
        <ele>396.007679</ele>
        <time>2025-05-08T07:01:12.167Z</time>
      </trkpt>
      <trkpt lat="45.59135" lon="4.68626">
        <ele>396.095383</ele>
        <time>2025-05-08T07:01:15.154Z</time>
      </trkpt>
      <trkpt lat="45.59126" lon="4.68633">
        <ele>396.186057</ele>
        <time>2025-05-08T07:01:18.165Z</time>
      </trkpt>
      <trkpt lat="45.59116" lon="4.6864">
        <ele>396.279503</ele>
        <time>2025-05-08T07:01:22.174Z</time>
      </trkpt>
      <trkpt lat="45.59106" lon="4.68647">
        <ele>396.192291</ele>
        <time>2025-05-08T07:01:26.177Z</time>
      </trkpt>
      <trkpt lat="45.59099" lon="4.68655">
        <ele>396.11362</ele>
        <time>2025-05-08T07:01:29.172Z</time>
      </trkpt>
      <trkpt lat="45.5909" lon="4.68667">
        <ele>396.014315</ele>
        <time>2025-05-08T07:01:33.163Z</time>
      </trkpt>
      <trkpt lat="45.59084" lon="4.6868">
        <ele>395.920467</ele>
        <time>2025-05-08T07:01:37.161Z</time>
      </trkpt>
      <trkpt lat="45.59076" lon="4.68692">
        <ele>395.824963</ele>
        <time>2025-05-08T07:01:41.142Z</time>
      </trkpt>
      <trkpt lat="45.59068" lon="4.68702">
        <ele>395.731152</ele>
        <time>2025-05-08T07:01:45.178Z</time>
      </trkpt>
      <trkpt lat="45.5906" lon="4.68709">
        <ele>395.652106</ele>
        <time>2025-05-08T07:01:48.168Z</time>
      </trkpt>
      <trkpt lat="45.5905" lon="4.68716">
        <ele>395.563182</ele>
        <time>2025-05-08T07:01:51.153Z</time>
      </trkpt>
      <trkpt lat="45.5904" lon="4.68725">
        <ele>395.46034</ele>
        <time>2025-05-08T07:01:54.158Z</time>
      </trkpt>
      <trkpt lat="45.59033" lon="4.68734">
        <ele>395.381693</ele>
        <time>2025-05-08T07:01:56.168Z</time>
      </trkpt>
      <trkpt lat="45.59026" lon="4.68743">
        <ele>395.30288</ele>
        <time>2025-05-08T07:01:58.168Z</time>
      </trkpt>
      <trkpt lat="45.59019" lon="4.68753">
        <ele>395.221983</ele>
        <time>2025-05-08T07:02:00.169Z</time>
      </trkpt>
      <trkpt lat="45.59011" lon="4.68766">
        <ele>395.124482</ele>
        <time>2025-05-08T07:02:03.164Z</time>
      </trkpt>
      <trkpt lat="45.59004" lon="4.68774">
        <ele>395.044048</ele>
        <time>2025-05-08T07:02:06.177Z</time>
      </trkpt>
      <trkpt lat="45.58994" lon="4.68769">
        <ele>394.958482</ele>
        <time>2025-05-08T07:02:11.151Z</time>
      </trkpt>
      <trkpt lat="45.58992" lon="4.68752">
        <ele>394.85322</ele>
        <time>2025-05-08T07:02:15.189Z</time>
      </trkpt>
      <trkpt lat="45.5899" lon="4.68735">
        <ele>394.680583</ele>
        <time>2025-05-08T07:02:18.163Z</time>
      </trkpt>
      <trkpt lat="45.58989" lon="4.68716">
        <ele>394.247065</ele>
        <time>2025-05-08T07:02:21.146Z</time>
      </trkpt>
      <trkpt lat="45.5899" lon="4.68699">
        <ele>393.825765</ele>
        <time>2025-05-08T07:02:24.160Z</time>
      </trkpt>
      <trkpt lat="45.58993" lon="4.68683">
        <ele>393.439124</ele>
        <time>2025-05-08T07:02:27.154Z</time>
      </trkpt>
      <trkpt lat="45.58994" lon="4.68668">
        <ele>393.077153</ele>
        <time>2025-05-08T07:02:30.159Z</time>
      </trkpt>
      <trkpt lat="45.58995" lon="4.68653">
        <ele>392.721657</ele>
        <time>2025-05-08T07:02:33.169Z</time>
      </trkpt>
      <trkpt lat="45.58997" lon="4.68636">
        <ele>392.332919</ele>
        <time>2025-05-08T07:02:36.178Z</time>
      </trkpt>
      <trkpt lat="45.59" lon="4.68619">
        <ele>391.920211</ele>
        <time>2025-05-08T07:02:39.170Z</time>
      </trkpt>
      <trkpt lat="45.59003" lon="4.68606">
        <ele>391.602026</ele>
        <time>2025-05-08T07:02:41.176Z</time>
      </trkpt>
      <trkpt lat="45.59006" lon="4.68593">
        <ele>391.262544</ele>
        <time>2025-05-08T07:02:43.170Z</time>
      </trkpt>
      <trkpt lat="45.5901" lon="4.6858">
        <ele>390.93047</ele>
        <time>2025-05-08T07:02:45.176Z</time>
      </trkpt>
      <trkpt lat="45.59015" lon="4.68566">
        <ele>390.56917</ele>
        <time>2025-05-08T07:02:47.162Z</time>
      </trkpt>
      <trkpt lat="45.59019" lon="4.68552">
        <ele>390.1894</ele>
        <time>2025-05-08T07:02:49.169Z</time>
      </trkpt>
      <trkpt lat="45.59024" lon="4.68537">
        <ele>389.798214</ele>
        <time>2025-05-08T07:02:51.133Z</time>
      </trkpt>
      <trkpt lat="45.59029" lon="4.68522">
        <ele>389.414881</ele>
        <time>2025-05-08T07:02:53.145Z</time>
      </trkpt>
      <trkpt lat="45.59034" lon="4.68507">
        <ele>389.030036</ele>
        <time>2025-05-08T07:02:55.160Z</time>
      </trkpt>
      <trkpt lat="45.59038" lon="4.68492">
        <ele>388.701375</ele>
        <time>2025-05-08T07:02:57.150Z</time>
      </trkpt>
      <trkpt lat="45.59043" lon="4.68477">
        <ele>388.711584</ele>
        <time>2025-05-08T07:02:59.151Z</time>
      </trkpt>
      <trkpt lat="45.59047" lon="4.68463">
        <ele>388.721317</ele>
        <time>2025-05-08T07:03:01.152Z</time>
      </trkpt>
      <trkpt lat="45.59051" lon="4.6845">
        <ele>388.730252</ele>
        <time>2025-05-08T07:03:03.153Z</time>
      </trkpt>
      <trkpt lat="45.59055" lon="4.68438">
        <ele>388.738775</ele>
        <time>2025-05-08T07:03:05.170Z</time>
      </trkpt>
      <trkpt lat="45.59057" lon="4.68424">
        <ele>388.747757</ele>
        <time>2025-05-08T07:03:07.159Z</time>
      </trkpt>
      <trkpt lat="45.5906" lon="4.6841">
        <ele>388.756562</ele>
        <time>2025-05-08T07:03:09.156Z</time>
      </trkpt>
      <trkpt lat="45.59062" lon="4.68397">
        <ele>388.765019</ele>
        <time>2025-05-08T07:03:11.152Z</time>
      </trkpt>
      <trkpt lat="45.59063" lon="4.68384">
        <ele>388.773322</ele>
        <time>2025-05-08T07:03:13.150Z</time>
      </trkpt>
      <trkpt lat="45.59063" lon="4.68365">
        <ele>388.785342</ele>
        <time>2025-05-08T07:03:16.156Z</time>
      </trkpt>
      <trkpt lat="45.59063" lon="4.68352">
        <ele>388.79365</ele>
        <time>2025-05-08T07:03:18.153Z</time>
      </trkpt>
      <trkpt lat="45.59062" lon="4.68339">
        <ele>388.80173</ele>
        <time>2025-05-08T07:03:20.167Z</time>
      </trkpt>
      <trkpt lat="45.59062" lon="4.68326">
        <ele>388.809919</ele>
        <time>2025-05-08T07:03:22.156Z</time>
      </trkpt>
      <trkpt lat="45.59061" lon="4.68307">
        <ele>388.821636</ele>
        <time>2025-05-08T07:03:25.159Z</time>
      </trkpt>
      <trkpt lat="45.5906" lon="4.6829">
        <ele>388.83263</ele>
        <time>2025-05-08T07:03:28.163Z</time>
      </trkpt>
      <trkpt lat="45.59059" lon="4.68273">
        <ele>388.84329</ele>
        <time>2025-05-08T07:03:31.166Z</time>
      </trkpt>
      <trkpt lat="45.59059" lon="4.68257">
        <ele>388.85318</ele>
        <time>2025-05-08T07:03:34.174Z</time>
      </trkpt>
      <trkpt lat="45.59058" lon="4.68243">
        <ele>388.88587</ele>
        <time>2025-05-08T07:03:37.162Z</time>
      </trkpt>
      <trkpt lat="45.59057" lon="4.68228">
        <ele>389.144046</ele>
        <time>2025-05-08T07:03:40.186Z</time>
      </trkpt>
      <trkpt lat="45.59057" lon="4.68214">
        <ele>389.39983</ele>
        <time>2025-05-08T07:03:43.154Z</time>
      </trkpt>
      <trkpt lat="45.59056" lon="4.682">
        <ele>389.662844</ele>
        <time>2025-05-08T07:03:46.170Z</time>
      </trkpt>
      <trkpt lat="45.59056" lon="4.68186">
        <ele>389.92002</ele>
        <time>2025-05-08T07:03:49.162Z</time>
      </trkpt>
      <trkpt lat="45.59055" lon="4.68172">
        <ele>390.170115</ele>
        <time>2025-05-08T07:03:52.161Z</time>
      </trkpt>
      <trkpt lat="45.59054" lon="4.68158">
        <ele>390.419275</ele>
        <time>2025-05-08T07:03:55.180Z</time>
      </trkpt>
      <trkpt lat="45.59054" lon="4.68144">
        <ele>390.67723</ele>
        <time>2025-05-08T07:03:58.173Z</time>
      </trkpt>
      <trkpt lat="45.59053" lon="4.6813">
        <ele>390.933185</ele>
        <time>2025-05-08T07:04:01.155Z</time>
      </trkpt>
      <trkpt lat="45.59053" lon="4.68116">
        <ele>391.181268</ele>
        <time>2025-05-08T07:04:04.171Z</time>
      </trkpt>
      <trkpt lat="45.59052" lon="4.68102">
        <ele>391.433292</ele>
        <time>2025-05-08T07:04:07.168Z</time>
      </trkpt>
      <trkpt lat="45.59051" lon="4.68088">
        <ele>391.682452</ele>
        <time>2025-05-08T07:04:10.161Z</time>
      </trkpt>
      <trkpt lat="45.59051" lon="4.68075">
        <ele>391.925214</ele>
        <time>2025-05-08T07:04:13.164Z</time>
      </trkpt>
      <trkpt lat="45.59051" lon="4.68058">
        <ele>392.228004</ele>
        <time>2025-05-08T07:04:17.173Z</time>
      </trkpt>
      <trkpt lat="45.5905" lon="4.68042">
        <ele>392.529298</ele>
        <time>2025-05-08T07:04:21.149Z</time>
      </trkpt>
      <trkpt lat="45.59049" lon="4.68029">
        <ele>392.763583</ele>
        <time>2025-05-08T07:04:24.157Z</time>
      </trkpt>
      <trkpt lat="45.59048" lon="4.68015">
        <ele>393.008524</ele>
        <time>2025-05-08T07:04:27.168Z</time>
      </trkpt>
      <trkpt lat="45.59048" lon="4.68002">
        <ele>393.245744</ele>
        <time>2025-05-08T07:04:30.161Z</time>
      </trkpt>
      <trkpt lat="45.59048" lon="4.67989">
        <ele>393.481196</ele>
        <time>2025-05-08T07:04:33.177Z</time>
      </trkpt>
      <trkpt lat="45.59048" lon="4.67972">
        <ele>393.901799</ele>
        <time>2025-05-08T07:04:37.160Z</time>
      </trkpt>
      <trkpt lat="45.59047" lon="4.67957">
        <ele>394.297928</ele>
        <time>2025-05-08T07:04:41.152Z</time>
      </trkpt>
      <trkpt lat="45.59047" lon="4.67943">
        <ele>394.663093</ele>
        <time>2025-05-08T07:04:45.174Z</time>
      </trkpt>
      <trkpt lat="45.59047" lon="4.67929">
        <ele>395.033433</ele>
        <time>2025-05-08T07:04:49.147Z</time>
      </trkpt>
      <trkpt lat="45.59047" lon="4.67915">
        <ele>395.385506</ele>
        <time>2025-05-08T07:04:53.165Z</time>
      </trkpt>
      <trkpt lat="45.59047" lon="4.67902">
        <ele>395.737559</ele>
        <time>2025-05-08T07:04:57.135Z</time>
      </trkpt>
      <trkpt lat="45.59047" lon="4.67887">
        <ele>396.107733</ele>
        <time>2025-05-08T07:05:01.145Z</time>
      </trkpt>
      <trkpt lat="45.59047" lon="4.67873">
        <ele>396.477925</ele>
        <time>2025-05-08T07:05:05.145Z</time>
      </trkpt>
      <trkpt lat="45.59047" lon="4.67858">
        <ele>396.855864</ele>
        <time>2025-05-08T07:05:09.154Z</time>
      </trkpt>
      <trkpt lat="45.59047" lon="4.67845">
        <ele>397.20276</ele>
        <time>2025-05-08T07:05:13.157Z</time>
      </trkpt>
      <trkpt lat="45.59047" lon="4.67829">
        <ele>397.60978</ele>
        <time>2025-05-08T07:05:18.163Z</time>
      </trkpt>
      <trkpt lat="45.59046" lon="4.67813">
        <ele>398.025296</ele>
        <time>2025-05-08T07:05:23.157Z</time>
      </trkpt>
      <trkpt lat="45.59046" lon="4.67798">
        <ele>398.41164</ele>
        <time>2025-05-08T07:05:27.149Z</time>
      </trkpt>
      <trkpt lat="45.59046" lon="4.67783">
        <ele>398.81315</ele>
        <time>2025-05-08T07:05:31.148Z</time>
      </trkpt>
      <trkpt lat="45.59046" lon="4.67768">
        <ele>399.209279</ele>
        <time>2025-05-08T07:05:35.166Z</time>
      </trkpt>
      <trkpt lat="45.59046" lon="4.67752">
        <ele>399.60596</ele>
        <time>2025-05-08T07:05:39.165Z</time>
      </trkpt>
      <trkpt lat="45.59045" lon="4.67737">
        <ele>399.989523</ele>
        <time>2025-05-08T07:05:43.163Z</time>
      </trkpt>
      <trkpt lat="45.59044" lon="4.67722">
        <ele>400.244857</ele>
        <time>2025-05-08T07:05:47.145Z</time>
      </trkpt>
      <trkpt lat="45.59043" lon="4.67705">
        <ele>400.387182</ele>
        <time>2025-05-08T07:05:51.149Z</time>
      </trkpt>
      <trkpt lat="45.59041" lon="4.67689">
        <ele>400.526151</ele>
        <time>2025-05-08T07:05:55.167Z</time>
      </trkpt>
      <trkpt lat="45.59039" lon="4.67674">
        <ele>400.656305</ele>
        <time>2025-05-08T07:05:59.151Z</time>
      </trkpt>
      <trkpt lat="45.59036" lon="4.67658">
        <ele>400.796756</ele>
        <time>2025-05-08T07:06:03.148Z</time>
      </trkpt>
      <trkpt lat="45.59034" lon="4.67641">
        <ele>400.937756</ele>
        <time>2025-05-08T07:06:07.156Z</time>
      </trkpt>
      <trkpt lat="45.59032" lon="4.67625">
        <ele>401.080864</ele>
        <time>2025-05-08T07:06:11.149Z</time>
      </trkpt>
      <trkpt lat="45.5903" lon="4.67609">
        <ele>401.221469</ele>
        <time>2025-05-08T07:06:15.152Z</time>
      </trkpt>
      <trkpt lat="45.59028" lon="4.67592">
        <ele>401.366303</ele>
        <time>2025-05-08T07:06:19.166Z</time>
      </trkpt>
      <trkpt lat="45.59027" lon="4.67578">
        <ele>401.478725</ele>
        <time>2025-05-08T07:06:22.160Z</time>
      </trkpt>
      <trkpt lat="45.59026" lon="4.67565">
        <ele>401.591126</ele>
        <time>2025-05-08T07:06:25.157Z</time>
      </trkpt>
      <trkpt lat="45.59025" lon="4.67552">
        <ele>401.705052</ele>
        <time>2025-05-08T07:06:28.156Z</time>
      </trkpt>
      <trkpt lat="45.59024" lon="4.67539">
        <ele>401.818816</ele>
        <time>2025-05-08T07:06:31.141Z</time>
      </trkpt>
      <trkpt lat="45.59022" lon="4.67526">
        <ele>401.928916</ele>
        <time>2025-05-08T07:06:34.177Z</time>
      </trkpt>
      <trkpt lat="45.59022" lon="4.67513">
        <ele>402.039228</ele>
        <time>2025-05-08T07:06:37.169Z</time>
      </trkpt>
      <trkpt lat="45.59021" lon="4.67496">
        <ele>402.181234</ele>
        <time>2025-05-08T07:06:41.138Z</time>
      </trkpt>
      <trkpt lat="45.5902" lon="4.6748">
        <ele>402.317185</ele>
        <time>2025-05-08T07:06:45.164Z</time>
      </trkpt>
      <trkpt lat="45.59019" lon="4.67465">
        <ele>402.390598</ele>
        <time>2025-05-08T07:06:49.166Z</time>
      </trkpt>
      <trkpt lat="45.59018" lon="4.67452">
        <ele>402.437415</ele>
        <time>2025-05-08T07:06:52.185Z</time>
      </trkpt>
      <trkpt lat="45.59017" lon="4.67436">
        <ele>402.497749</ele>
        <time>2025-05-08T07:06:56.176Z</time>
      </trkpt>
      <trkpt lat="45.59016" lon="4.6742">
        <ele>402.55664</ele>
        <time>2025-05-08T07:07:00.161Z</time>
      </trkpt>
      <trkpt lat="45.59016" lon="4.67406">
        <ele>402.604847</ele>
        <time>2025-05-08T07:07:03.169Z</time>
      </trkpt>
      <trkpt lat="45.59017" lon="4.67392">
        <ele>402.65833</ele>
        <time>2025-05-08T07:07:06.164Z</time>
      </trkpt>
      <trkpt lat="45.59017" lon="4.67376">
        <ele>402.714972</ele>
        <time>2025-05-08T07:07:09.156Z</time>
      </trkpt>
      <trkpt lat="45.59017" lon="4.67362">
        <ele>402.76465</ele>
        <time>2025-05-08T07:07:12.184Z</time>
      </trkpt>
      <trkpt lat="45.59013" lon="4.67348">
        <ele>402.820142</ele>
        <time>2025-05-08T07:07:16.158Z</time>
      </trkpt>
      <trkpt lat="45.59007" lon="4.67333">
        <ele>402.880583</ele>
        <time>2025-05-08T07:07:20.156Z</time>
      </trkpt>
      <trkpt lat="45.59003" lon="4.6732">
        <ele>402.93147</ele>
        <time>2025-05-08T07:07:23.142Z</time>
      </trkpt>
      <trkpt lat="45.59" lon="4.67307">
        <ele>402.983156</ele>
        <time>2025-05-08T07:07:26.153Z</time>
      </trkpt>
      <trkpt lat="45.58996" lon="4.67294">
        <ele>403.034611</ele>
        <time>2025-05-08T07:07:29.165Z</time>
      </trkpt>
      <trkpt lat="45.58992" lon="4.67281">
        <ele>403.085917</ele>
        <time>2025-05-08T07:07:32.174Z</time>
      </trkpt>
      <trkpt lat="45.58988" lon="4.67268">
        <ele>403.138672</ele>
        <time>2025-05-08T07:07:35.154Z</time>
      </trkpt>
      <trkpt lat="45.58984" lon="4.67254">
        <ele>403.191895</ele>
        <time>2025-05-08T07:07:38.173Z</time>
      </trkpt>
      <trkpt lat="45.5898" lon="4.6724">
        <ele>403.246929</ele>
        <time>2025-05-08T07:07:41.140Z</time>
      </trkpt>
      <trkpt lat="45.58976" lon="4.67226">
        <ele>403.262522</ele>
        <time>2025-05-08T07:07:44.152Z</time>
      </trkpt>
      <trkpt lat="45.58972" lon="4.67213">
        <ele>403.215165</ele>
        <time>2025-05-08T07:07:47.159Z</time>
      </trkpt>
      <trkpt lat="45.58969" lon="4.67199">
        <ele>403.165524</ele>
        <time>2025-05-08T07:07:50.157Z</time>
      </trkpt>
      <trkpt lat="45.58965" lon="4.67185">
        <ele>403.119274</ele>
        <time>2025-05-08T07:07:53.175Z</time>
      </trkpt>
      <trkpt lat="45.58959" lon="4.67174">
        <ele>403.071337</ele>
        <time>2025-05-08T07:07:56.160Z</time>
      </trkpt>
      <trkpt lat="45.5895" lon="4.67171">
        <ele>403.025469</ele>
        <time>2025-05-08T07:07:59.165Z</time>
      </trkpt>
      <trkpt lat="45.58939" lon="4.6717">
        <ele>402.975049</ele>
        <time>2025-05-08T07:08:03.156Z</time>
      </trkpt>
      <trkpt lat="45.58927" lon="4.67171">
        <ele>402.919481</ele>
        <time>2025-05-08T07:08:08.146Z</time>
      </trkpt>
      <trkpt lat="45.58918" lon="4.67169">
        <ele>402.876794</ele>
        <time>2025-05-08T07:08:11.144Z</time>
      </trkpt>
      <trkpt lat="45.58908" lon="4.67167">
        <ele>402.831511</ele>
        <time>2025-05-08T07:08:14.165Z</time>
      </trkpt>
      <trkpt lat="45.58899" lon="4.67164">
        <ele>402.785101</ele>
        <time>2025-05-08T07:08:17.179Z</time>
      </trkpt>
      <trkpt lat="45.58888" lon="4.67158">
        <ele>402.732003</ele>
        <time>2025-05-08T07:08:20.144Z</time>
      </trkpt>
      <trkpt lat="45.58877" lon="4.67151">
        <ele>402.675503</ele>
        <time>2025-05-08T07:08:23.159Z</time>
      </trkpt>
      <trkpt lat="45.58866" lon="4.67144">
        <ele>402.619689</ele>
        <time>2025-05-08T07:08:26.167Z</time>
      </trkpt>
      <trkpt lat="45.58855" lon="4.67137">
        <ele>402.56503</ele>
        <time>2025-05-08T07:08:29.153Z</time>
      </trkpt>
      <trkpt lat="45.58845" lon="4.67132">
        <ele>402.515886</ele>
        <time>2025-05-08T07:08:32.189Z</time>
      </trkpt>
      <trkpt lat="45.58836" lon="4.67126">
        <ele>402.469639</ele>
        <time>2025-05-08T07:08:35.151Z</time>
      </trkpt>
      <trkpt lat="45.58827" lon="4.67121">
        <ele>402.373554</ele>
        <time>2025-05-08T07:08:38.174Z</time>
      </trkpt>
      <trkpt lat="45.58817" lon="4.67114">
        <ele>402.173154</ele>
        <time>2025-05-08T07:08:41.164Z</time>
      </trkpt>
      <trkpt lat="45.58806" lon="4.67106">
        <ele>401.943749</ele>
        <time>2025-05-08T07:08:44.149Z</time>
      </trkpt>
      <trkpt lat="45.58797" lon="4.67101">
        <ele>401.765786</ele>
        <time>2025-05-08T07:08:46.156Z</time>
      </trkpt>
      <trkpt lat="45.58787" lon="4.67093">
        <ele>401.565886</ele>
        <time>2025-05-08T07:08:48.169Z</time>
      </trkpt>
      <trkpt lat="45.58776" lon="4.67086">
        <ele>401.351254</ele>
        <time>2025-05-08T07:08:50.165Z</time>
      </trkpt>
      <trkpt lat="45.58766" lon="4.67079">
        <ele>401.132233</ele>
        <time>2025-05-08T07:08:52.163Z</time>
      </trkpt>
      <trkpt lat="45.58755" lon="4.67071">
        <ele>400.911579</ele>
        <time>2025-05-08T07:08:54.162Z</time>
      </trkpt>
      <trkpt lat="45.58744" lon="4.67065">
        <ele>400.698375</ele>
        <time>2025-05-08T07:08:56.175Z</time>
      </trkpt>
      <trkpt lat="45.58733" lon="4.67059">
        <ele>400.495266</ele>
        <time>2025-05-08T07:08:58.160Z</time>
      </trkpt>
      <trkpt lat="45.58724" lon="4.67054">
        <ele>400.304654</ele>
        <time>2025-05-08T07:09:00.154Z</time>
      </trkpt>
      <trkpt lat="45.58715" lon="4.67047">
        <ele>400.124242</ele>
        <time>2025-05-08T07:09:02.170Z</time>
      </trkpt>
      <trkpt lat="45.58707" lon="4.6704">
        <ele>399.947797</ele>
        <time>2025-05-08T07:09:04.156Z</time>
      </trkpt>
      <trkpt lat="45.58699" lon="4.67033">
        <ele>399.77976</ele>
        <time>2025-05-08T07:09:06.166Z</time>
      </trkpt>
      <trkpt lat="45.58689" lon="4.67022">
        <ele>399.546576</ele>
        <time>2025-05-08T07:09:09.150Z</time>
      </trkpt>
      <trkpt lat="45.58678" lon="4.67011">
        <ele>399.314903</ele>
        <time>2025-05-08T07:09:12.158Z</time>
      </trkpt>
      <trkpt lat="45.58667" lon="4.67002">
        <ele>399.126096</ele>
        <time>2025-05-08T07:09:15.165Z</time>
      </trkpt>
      <trkpt lat="45.58654" lon="4.66997">
        <ele>399.008962</ele>
        <time>2025-05-08T07:09:18.169Z</time>
      </trkpt>
      <trkpt lat="45.58645" lon="4.66995">
        <ele>398.929682</ele>
        <time>2025-05-08T07:09:20.160Z</time>
      </trkpt>
      <trkpt lat="45.58636" lon="4.66994">
        <ele>398.849143</ele>
        <time>2025-05-08T07:09:22.157Z</time>
      </trkpt>
      <trkpt lat="45.58626" lon="4.66993">
        <ele>398.766123</ele>
        <time>2025-05-08T07:09:24.175Z</time>
      </trkpt>
      <trkpt lat="45.58617" lon="4.66993">
        <ele>398.683191</ele>
        <time>2025-05-08T07:09:26.159Z</time>
      </trkpt>
      <trkpt lat="45.58608" lon="4.66993">
        <ele>398.601185</ele>
        <time>2025-05-08T07:09:28.173Z</time>
      </trkpt>
      <trkpt lat="45.58595" lon="4.66993">
        <ele>398.487774</ele>
        <time>2025-05-08T07:09:31.145Z</time>
      </trkpt>
      <trkpt lat="45.58583" lon="4.66997">
        <ele>398.387757</ele>
        <time>2025-05-08T07:09:34.159Z</time>
      </trkpt>
      <trkpt lat="45.58576" lon="4.67008">
        <ele>398.293386</ele>
        <time>2025-05-08T07:09:37.163Z</time>
      </trkpt>
      <trkpt lat="45.58568" lon="4.67021">
        <ele>398.188028</ele>
        <time>2025-05-08T07:09:40.164Z</time>
      </trkpt>
      <trkpt lat="45.58556" lon="4.67025">
        <ele>398.079797</ele>
        <time>2025-05-08T07:09:43.157Z</time>
      </trkpt>
      <trkpt lat="45.58543" lon="4.67021">
        <ele>397.968337</ele>
        <time>2025-05-08T07:09:46.145Z</time>
      </trkpt>
      <trkpt lat="45.58532" lon="4.67016">
        <ele>397.861137</ele>
        <time>2025-05-08T07:09:49.161Z</time>
      </trkpt>
      <trkpt lat="45.5852" lon="4.6701">
        <ele>397.752276</ele>
        <time>2025-05-08T07:09:52.168Z</time>
      </trkpt>
      <trkpt lat="45.58508" lon="4.67004">
        <ele>397.642391</ele>
        <time>2025-05-08T07:09:55.153Z</time>
      </trkpt>
      <trkpt lat="45.58496" lon="4.66998">
        <ele>397.697625</ele>
        <time>2025-05-08T07:09:58.160Z</time>
      </trkpt>
      <trkpt lat="45.58484" lon="4.66991">
        <ele>397.863506</ele>
        <time>2025-05-08T07:10:01.147Z</time>
      </trkpt>
      <trkpt lat="45.58473" lon="4.66986">
        <ele>398.017571</ele>
        <time>2025-05-08T07:10:04.161Z</time>
      </trkpt>
      <trkpt lat="45.58462" lon="4.66982">
        <ele>398.166888</ele>
        <time>2025-05-08T07:10:07.185Z</time>
      </trkpt>
      <trkpt lat="45.58451" lon="4.66978">
        <ele>398.315177</ele>
        <time>2025-05-08T07:10:10.140Z</time>
      </trkpt>
      <trkpt lat="45.5844" lon="4.66975">
        <ele>398.46048</ele>
        <time>2025-05-08T07:10:13.168Z</time>
      </trkpt>
      <trkpt lat="45.58429" lon="4.66972">
        <ele>398.601991</ele>
        <time>2025-05-08T07:10:16.141Z</time>
      </trkpt>
      <trkpt lat="45.58418" lon="4.66969">
        <ele>398.748792</ele>
        <time>2025-05-08T07:10:19.169Z</time>
      </trkpt>
      <trkpt lat="45.58407" lon="4.66967">
        <ele>398.898736</ele>
        <time>2025-05-08T07:10:22.156Z</time>
      </trkpt>
      <trkpt lat="45.58396" lon="4.66964">
        <ele>399.048768</ele>
        <time>2025-05-08T07:10:25.173Z</time>
      </trkpt>
      <trkpt lat="45.58385" lon="4.66956">
        <ele>399.19851</ele>
        <time>2025-05-08T07:10:28.155Z</time>
      </trkpt>
      <trkpt lat="45.58376" lon="4.66949">
        <ele>399.33058</ele>
        <time>2025-05-08T07:10:31.132Z</time>
      </trkpt>
      <trkpt lat="45.58379" lon="4.66936">
        <ele>399.457556</ele>
        <time>2025-05-08T07:10:35.173Z</time>
      </trkpt>
      <trkpt lat="45.58389" lon="4.66929">
        <ele>399.599047</ele>
        <time>2025-05-08T07:10:39.153Z</time>
      </trkpt>
      <trkpt lat="45.58399" lon="4.66922">
        <ele>399.742108</ele>
        <time>2025-05-08T07:10:43.143Z</time>
      </trkpt>
      <trkpt lat="45.58409" lon="4.66915">
        <ele>399.885937</ele>
        <time>2025-05-08T07:10:47.143Z</time>
      </trkpt>
      <trkpt lat="45.58418" lon="4.66906">
        <ele>400.133721</ele>
        <time>2025-05-08T07:10:51.140Z</time>
      </trkpt>
      <trkpt lat="45.58428" lon="4.66897">
        <ele>400.449779</ele>
        <time>2025-05-08T07:10:55.155Z</time>
      </trkpt>
      <trkpt lat="45.58436" lon="4.6689">
        <ele>400.697332</ele>
        <time>2025-05-08T07:10:58.144Z</time>
      </trkpt>
      <trkpt lat="45.58446" lon="4.66881">
        <ele>401.00752</ele>
        <time>2025-05-08T07:11:02.169Z</time>
      </trkpt>
      <trkpt lat="45.58456" lon="4.66873">
        <ele>401.30473</ele>
        <time>2025-05-08T07:11:06.171Z</time>
      </trkpt>
      <trkpt lat="45.58465" lon="4.66865">
        <ele>401.590289</ele>
        <time>2025-05-08T07:11:10.160Z</time>
      </trkpt>
      <trkpt lat="45.58474" lon="4.66856">
        <ele>401.888681</ele>
        <time>2025-05-08T07:11:14.167Z</time>
      </trkpt>
      <trkpt lat="45.58484" lon="4.66847">
        <ele>402.20404</ele>
        <time>2025-05-08T07:11:18.164Z</time>
      </trkpt>
      <trkpt lat="45.58494" lon="4.66838">
        <ele>402.503624</ele>
        <time>2025-05-08T07:11:22.154Z</time>
      </trkpt>
      <trkpt lat="45.58503" lon="4.6683">
        <ele>402.796255</ele>
        <time>2025-05-08T07:11:26.163Z</time>
      </trkpt>
      <trkpt lat="45.58512" lon="4.66821">
        <ele>403.0979</ele>
        <time>2025-05-08T07:11:30.160Z</time>
      </trkpt>
      <trkpt lat="45.58522" lon="4.66812">
        <ele>403.394</ele>
        <time>2025-05-08T07:11:34.179Z</time>
      </trkpt>
      <trkpt lat="45.58531" lon="4.66803">
        <ele>403.704189</ele>
        <time>2025-05-08T07:11:38.157Z</time>
      </trkpt>
      <trkpt lat="45.58541" lon="4.66793">
        <ele>404.017631</ele>
        <time>2025-05-08T07:11:42.167Z</time>
      </trkpt>
      <trkpt lat="45.5855" lon="4.66783">
        <ele>404.332188</ele>
        <time>2025-05-08T07:11:46.159Z</time>
      </trkpt>
      <trkpt lat="45.58561" lon="4.66776">
        <ele>404.649187</ele>
        <time>2025-05-08T07:11:50.146Z</time>
      </trkpt>
      <trkpt lat="45.58569" lon="4.66769">
        <ele>404.856022</ele>
        <time>2025-05-08T07:11:53.141Z</time>
      </trkpt>
      <trkpt lat="45.58579" lon="4.6676">
        <ele>405.097007</ele>
        <time>2025-05-08T07:11:57.150Z</time>
      </trkpt>
      <trkpt lat="45.58588" lon="4.66751">
        <ele>405.331422</ele>
        <time>2025-05-08T07:12:01.174Z</time>
      </trkpt>
      <trkpt lat="45.58597" lon="4.66742">
        <ele>405.558657</ele>
        <time>2025-05-08T07:12:05.175Z</time>
      </trkpt>
      <trkpt lat="45.58607" lon="4.66733">
        <ele>405.795886</ele>
        <time>2025-05-08T07:12:09.141Z</time>
      </trkpt>
      <trkpt lat="45.58617" lon="4.66724">
        <ele>406.025298</ele>
        <time>2025-05-08T07:12:13.152Z</time>
      </trkpt>
      <trkpt lat="45.58625" lon="4.66716">
        <ele>406.242344</ele>
        <time>2025-05-08T07:12:17.158Z</time>
      </trkpt>
      <trkpt lat="45.58635" lon="4.66708">
        <ele>406.46659</ele>
        <time>2025-05-08T07:12:21.141Z</time>
      </trkpt>
      <trkpt lat="45.58644" lon="4.667">
        <ele>406.684416</ele>
        <time>2025-05-08T07:12:25.163Z</time>
      </trkpt>
      <trkpt lat="45.58652" lon="4.66692">
        <ele>406.897242</ele>
        <time>2025-05-08T07:12:29.172Z</time>
      </trkpt>
      <trkpt lat="45.58661" lon="4.66684">
        <ele>407.106016</ele>
        <time>2025-05-08T07:12:33.167Z</time>
      </trkpt>
      <trkpt lat="45.5867" lon="4.66677">
        <ele>407.312516</ele>
        <time>2025-05-08T07:12:37.172Z</time>
      </trkpt>
      <trkpt lat="45.58678" lon="4.66669">
        <ele>407.518026</ele>
        <time>2025-05-08T07:12:41.146Z</time>
      </trkpt>
      <trkpt lat="45.58686" lon="4.66661">
        <ele>407.723226</ele>
        <time>2025-05-08T07:12:45.169Z</time>
      </trkpt>
      <trkpt lat="45.58695" lon="4.66653">
        <ele>407.928356</ele>
        <time>2025-05-08T07:12:49.164Z</time>
      </trkpt>
      <trkpt lat="45.58703" lon="4.66644">
        <ele>408.141181</ele>
        <time>2025-05-08T07:12:53.165Z</time>
      </trkpt>
      <trkpt lat="45.58712" lon="4.66636">
        <ele>408.360166</ele>
        <time>2025-05-08T07:12:57.173Z</time>
      </trkpt>
      <trkpt lat="45.58721" lon="4.66628">
        <ele>408.614105</ele>
        <time>2025-05-08T07:13:01.174Z</time>
      </trkpt>
      <trkpt lat="45.58729" lon="4.66621">
        <ele>408.87193</ele>
        <time>2025-05-08T07:13:05.177Z</time>
      </trkpt>
      <trkpt lat="45.58737" lon="4.66613">
        <ele>409.119207</ele>
        <time>2025-05-08T07:13:09.169Z</time>
      </trkpt>
      <trkpt lat="45.58745" lon="4.66606">
        <ele>409.369971</ele>
        <time>2025-05-08T07:13:13.177Z</time>
      </trkpt>
      <trkpt lat="45.58754" lon="4.66599">
        <ele>409.63125</ele>
        <time>2025-05-08T07:13:17.164Z</time>
      </trkpt>
      <trkpt lat="45.58762" lon="4.66591">
        <ele>409.883522</ele>
        <time>2025-05-08T07:13:21.139Z</time>
      </trkpt>
      <trkpt lat="45.5877" lon="4.66583">
        <ele>410.145282</ele>
        <time>2025-05-08T07:13:25.172Z</time>
      </trkpt>
      <trkpt lat="45.58778" lon="4.66575">
        <ele>410.408157</ele>
        <time>2025-05-08T07:13:29.156Z</time>
      </trkpt>
      <trkpt lat="45.58787" lon="4.66567">
        <ele>410.665793</ele>
        <time>2025-05-08T07:13:33.149Z</time>
      </trkpt>
      <trkpt lat="45.58795" lon="4.66558">
        <ele>410.944629</ele>
        <time>2025-05-08T07:13:37.159Z</time>
      </trkpt>
      <trkpt lat="45.58804" lon="4.66551">
        <ele>411.209843</ele>
        <time>2025-05-08T07:13:41.147Z</time>
      </trkpt>
      <trkpt lat="45.58812" lon="4.66543">
        <ele>411.473755</ele>
        <time>2025-05-08T07:13:45.153Z</time>
      </trkpt>
      <trkpt lat="45.58821" lon="4.66535">
        <ele>411.747781</ele>
        <time>2025-05-08T07:13:49.152Z</time>
      </trkpt>
      <trkpt lat="45.5883" lon="4.6653">
        <ele>412.000853</ele>
        <time>2025-05-08T07:13:53.156Z</time>
      </trkpt>
      <trkpt lat="45.58831" lon="4.66517">
        <ele>412.24724</ele>
        <time>2025-05-08T07:14:03.156Z</time>
      </trkpt>
      <trkpt lat="45.5883" lon="4.665">
        <ele>412.554695</ele>
        <time>2025-05-08T07:14:09.150Z</time>
      </trkpt>
      <trkpt lat="45.58826" lon="4.66485">
        <ele>412.850979</ele>
        <time>2025-05-08T07:14:13.192Z</time>
      </trkpt>
      <trkpt lat="45.58819" lon="4.66475">
        <ele>413.106005</ele>
        <time>2025-05-08T07:14:16.171Z</time>
      </trkpt>
      <trkpt lat="45.58812" lon="4.66467">
        <ele>412.97157</ele>
        <time>2025-05-08T07:14:19.173Z</time>
      </trkpt>
      <trkpt lat="45.58805" lon="4.66458">
        <ele>412.788653</ele>
        <time>2025-05-08T07:14:23.144Z</time>
      </trkpt>
      <trkpt lat="45.58797" lon="4.66447">
        <ele>412.586821</ele>
        <time>2025-05-08T07:14:27.171Z</time>
      </trkpt>
      <trkpt lat="45.5879" lon="4.66438">
        <ele>412.414074</ele>
        <time>2025-05-08T07:14:31.159Z</time>
      </trkpt>
      <trkpt lat="45.58783" lon="4.66428">
        <ele>412.206881</ele>
        <time>2025-05-08T07:14:35.175Z</time>
      </trkpt>
      <trkpt lat="45.58775" lon="4.66417">
        <ele>412.000162</ele>
        <time>2025-05-08T07:14:39.154Z</time>
      </trkpt>
      <trkpt lat="45.58767" lon="4.66407">
        <ele>411.799177</ele>
        <time>2025-05-08T07:14:43.160Z</time>
      </trkpt>
      <trkpt lat="45.58759" lon="4.664">
        <ele>411.626568</ele>
        <time>2025-05-08T07:14:46.174Z</time>
      </trkpt>
      <trkpt lat="45.5875" lon="4.6639">
        <ele>411.408643</ele>
        <time>2025-05-08T07:14:49.158Z</time>
      </trkpt>
      <trkpt lat="45.58741" lon="4.66376">
        <ele>411.154022</ele>
        <time>2025-05-08T07:14:52.173Z</time>
      </trkpt>
      <trkpt lat="45.58733" lon="4.66368">
        <ele>410.970734</ele>
        <time>2025-05-08T07:14:54.160Z</time>
      </trkpt>
      <trkpt lat="45.58725" lon="4.66359">
        <ele>410.78061</ele>
        <time>2025-05-08T07:14:56.167Z</time>
      </trkpt>
      <trkpt lat="45.58717" lon="4.6635">
        <ele>410.588532</ele>
        <time>2025-05-08T07:14:58.174Z</time>
      </trkpt>
      <trkpt lat="45.58709" lon="4.6634">
        <ele>410.386571</ele>
        <time>2025-05-08T07:15:00.141Z</time>
      </trkpt>
      <trkpt lat="45.58701" lon="4.6633">
        <ele>410.174915</ele>
        <time>2025-05-08T07:15:02.172Z</time>
      </trkpt>
      <trkpt lat="45.58692" lon="4.66319">
        <ele>409.954259</ele>
        <time>2025-05-08T07:15:04.163Z</time>
      </trkpt>
      <trkpt lat="45.58682" lon="4.66308">
        <ele>409.721204</ele>
        <time>2025-05-08T07:15:06.141Z</time>
      </trkpt>
      <trkpt lat="45.58672" lon="4.66297">
        <ele>409.339267</ele>
        <time>2025-05-08T07:15:08.144Z</time>
      </trkpt>
      <trkpt lat="45.58663" lon="4.66285">
        <ele>408.93844</ele>
        <time>2025-05-08T07:15:10.153Z</time>
      </trkpt>
      <trkpt lat="45.58653" lon="4.66274">
        <ele>408.533279</ele>
        <time>2025-05-08T07:15:12.161Z</time>
      </trkpt>
      <trkpt lat="45.58643" lon="4.66262">
        <ele>408.143321</ele>
        <time>2025-05-08T07:15:14.154Z</time>
      </trkpt>
      <trkpt lat="45.58634" lon="4.66251">
        <ele>407.764761</ele>
        <time>2025-05-08T07:15:16.165Z</time>
      </trkpt>
      <trkpt lat="45.58624" lon="4.6624">
        <ele>407.366173</ele>
        <time>2025-05-08T07:15:18.168Z</time>
      </trkpt>
      <trkpt lat="45.58614" lon="4.66228">
        <ele>406.966773</ele>
        <time>2025-05-08T07:15:20.156Z</time>
      </trkpt>
      <trkpt lat="45.58605" lon="4.66217">
        <ele>406.591563</ele>
        <time>2025-05-08T07:15:22.155Z</time>
      </trkpt>
      <trkpt lat="45.58597" lon="4.66207">
        <ele>406.252781</ele>
        <time>2025-05-08T07:15:24.154Z</time>
      </trkpt>
      <trkpt lat="45.58589" lon="4.66198">
        <ele>405.946111</ele>
        <time>2025-05-08T07:15:26.162Z</time>
      </trkpt>
      <trkpt lat="45.58582" lon="4.66189">
        <ele>405.663281</ele>
        <time>2025-05-08T07:15:28.154Z</time>
      </trkpt>
      <trkpt lat="45.58574" lon="4.6618">
        <ele>405.336912</ele>
        <time>2025-05-08T07:15:31.147Z</time>
      </trkpt>
      <trkpt lat="45.58567" lon="4.66172">
        <ele>405.052145</ele>
        <time>2025-05-08T07:15:35.170Z</time>
      </trkpt>
      <trkpt lat="45.58557" lon="4.66176">
        <ele>404.745736</ele>
        <time>2025-05-08T07:15:38.157Z</time>
      </trkpt>
      <trkpt lat="45.58545" lon="4.66172">
        <ele>404.346936</ele>
        <time>2025-05-08T07:15:41.147Z</time>
      </trkpt>
      <trkpt lat="45.58534" lon="4.66165">
        <ele>403.855682</ele>
        <time>2025-05-08T07:15:44.170Z</time>
      </trkpt>
      <trkpt lat="45.58525" lon="4.66159">
        <ele>403.13056</ele>
        <time>2025-05-08T07:15:47.149Z</time>
      </trkpt>
      <trkpt lat="45.58514" lon="4.66153">
        <ele>402.350966</ele>
        <time>2025-05-08T07:15:50.155Z</time>
      </trkpt>
      <trkpt lat="45.58505" lon="4.66147">
        <ele>401.685159</ele>
        <time>2025-05-08T07:15:53.148Z</time>
      </trkpt>
      <trkpt lat="45.58496" lon="4.6614">
        <ele>400.981718</ele>
        <time>2025-05-08T07:16:02.177Z</time>
      </trkpt>
      <trkpt lat="45.58486" lon="4.66131">
        <ele>400.175295</ele>
        <time>2025-05-08T07:16:05.158Z</time>
      </trkpt>
      <trkpt lat="45.58477" lon="4.66122">
        <ele>399.446659</ele>
        <time>2025-05-08T07:16:07.155Z</time>
      </trkpt>
      <trkpt lat="45.58469" lon="4.6611">
        <ele>398.645599</ele>
        <time>2025-05-08T07:16:10.167Z</time>
      </trkpt>
      <trkpt lat="45.58462" lon="4.66102">
        <ele>398.022518</ele>
        <time>2025-05-08T07:16:12.165Z</time>
      </trkpt>
      <trkpt lat="45.58453" lon="4.66093">
        <ele>397.285059</ele>
        <time>2025-05-08T07:16:14.163Z</time>
      </trkpt>
      <trkpt lat="45.58445" lon="4.66082">
        <ele>396.528539</ele>
        <time>2025-05-08T07:16:16.158Z</time>
      </trkpt>
      <trkpt lat="45.58436" lon="4.66075">
        <ele>395.859533</ele>
        <time>2025-05-08T07:16:18.156Z</time>
      </trkpt>
      <trkpt lat="45.58425" lon="4.66073">
        <ele>395.086433</ele>
        <time>2025-05-08T07:16:20.156Z</time>
      </trkpt>
      <trkpt lat="45.58413" lon="4.66071">
        <ele>394.244358</ele>
        <time>2025-05-08T07:16:22.160Z</time>
      </trkpt>
      <trkpt lat="45.58401" lon="4.66067">
        <ele>393.391638</ele>
        <time>2025-05-08T07:16:24.150Z</time>
      </trkpt>
      <trkpt lat="45.58388" lon="4.66065">
        <ele>392.550604</ele>
        <time>2025-05-08T07:16:26.141Z</time>
      </trkpt>
      <trkpt lat="45.58378" lon="4.66063">
        <ele>391.852675</ele>
        <time>2025-05-08T07:16:28.158Z</time>
      </trkpt>
      <trkpt lat="45.58369" lon="4.66061">
        <ele>391.579367</ele>
        <time>2025-05-08T07:16:32.159Z</time>
      </trkpt>
      <trkpt lat="45.58358" lon="4.66058">
        <ele>391.235375</ele>
        <time>2025-05-08T07:16:36.161Z</time>
      </trkpt>
      <trkpt lat="45.58348" lon="4.66058">
        <ele>390.94487</ele>
        <time>2025-05-08T07:16:50.145Z</time>
      </trkpt>
      <trkpt lat="45.58339" lon="4.66057">
        <ele>390.657425</ele>
        <time>2025-05-08T07:16:53.144Z</time>
      </trkpt>
      <trkpt lat="45.58327" lon="4.66055">
        <ele>390.310165</ele>
        <time>2025-05-08T07:16:57.136Z</time>
      </trkpt>
      <trkpt lat="45.58316" lon="4.66054">
        <ele>389.99156</ele>
        <time>2025-05-08T07:17:01.146Z</time>
      </trkpt>
      <trkpt lat="45.58308" lon="4.66042">
        <ele>389.638997</ele>
        <time>2025-05-08T07:17:06.157Z</time>
      </trkpt>
      <trkpt lat="45.58301" lon="4.66034">
        <ele>389.369893</ele>
        <time>2025-05-08T07:17:09.159Z</time>
      </trkpt>
      <trkpt lat="45.58291" lon="4.66035">
        <ele>389.082196</ele>
        <time>2025-05-08T07:17:13.167Z</time>
      </trkpt>
      <trkpt lat="45.58282" lon="4.66039">
        <ele>388.801671</ele>
        <time>2025-05-08T07:17:17.148Z</time>
      </trkpt>
      <trkpt lat="45.58274" lon="4.66045">
        <ele>388.527682</ele>
        <time>2025-05-08T07:17:20.159Z</time>
      </trkpt>
      <trkpt lat="45.58266" lon="4.66053">
        <ele>388.229158</ele>
        <time>2025-05-08T07:17:23.166Z</time>
      </trkpt>
      <trkpt lat="45.58258" lon="4.66065">
        <ele>387.887398</ele>
        <time>2025-05-08T07:17:26.137Z</time>
      </trkpt>
      <trkpt lat="45.58252" lon="4.66074">
        <ele>387.611732</ele>
        <time>2025-05-08T07:17:31.149Z</time>
      </trkpt>
      <trkpt lat="45.58238" lon="4.66082">
        <ele>387.168329</ele>
        <time>2025-05-08T07:18:15.153Z</time>
      </trkpt>
      <trkpt lat="45.58227" lon="4.66084">
        <ele>386.851006</ele>
        <time>2025-05-08T07:18:19.135Z</time>
      </trkpt>
      <trkpt lat="45.58217" lon="4.66086">
        <ele>386.531761</ele>
        <time>2025-05-08T07:18:23.152Z</time>
      </trkpt>
      <trkpt lat="45.58207" lon="4.66087">
        <ele>386.64549</ele>
        <time>2025-05-08T07:18:27.161Z</time>
      </trkpt>
      <trkpt lat="45.58197" lon="4.66088">
        <ele>386.85619</ele>
        <time>2025-05-08T07:18:31.158Z</time>
      </trkpt>
      <trkpt lat="45.58188" lon="4.66088">
        <ele>387.071198</ele>
        <time>2025-05-08T07:18:35.150Z</time>
      </trkpt>
      <trkpt lat="45.58178" lon="4.66089">
        <ele>387.288244</ele>
        <time>2025-05-08T07:18:39.153Z</time>
      </trkpt>
      <trkpt lat="45.58168" lon="4.66089">
        <ele>387.498781</ele>
        <time>2025-05-08T07:18:43.161Z</time>
      </trkpt>
      <trkpt lat="45.58158" lon="4.6609">
        <ele>387.723458</ele>
        <time>2025-05-08T07:18:47.160Z</time>
      </trkpt>
      <trkpt lat="45.58148" lon="4.66091">
        <ele>387.960683</ele>
        <time>2025-05-08T07:18:51.148Z</time>
      </trkpt>
      <trkpt lat="45.58137" lon="4.6609">
        <ele>388.211408</ele>
        <time>2025-05-08T07:18:55.155Z</time>
      </trkpt>
      <trkpt lat="45.58126" lon="4.6609">
        <ele>388.441878</ele>
        <time>2025-05-08T07:18:59.151Z</time>
      </trkpt>
      <trkpt lat="45.58117" lon="4.6609">
        <ele>388.661178</ele>
        <time>2025-05-08T07:19:03.151Z</time>
      </trkpt>
      <trkpt lat="45.58108" lon="4.66086">
        <ele>388.869293</ele>
        <time>2025-05-08T07:19:09.157Z</time>
      </trkpt>
      <trkpt lat="45.58113" lon="4.66072">
        <ele>389.11683</ele>
        <time>2025-05-08T07:19:19.173Z</time>
      </trkpt>
      <trkpt lat="45.5812" lon="4.66064">
        <ele>389.320745</ele>
        <time>2025-05-08T07:19:22.182Z</time>
      </trkpt>
      <trkpt lat="45.58129" lon="4.66056">
        <ele>389.547005</ele>
        <time>2025-05-08T07:19:25.156Z</time>
      </trkpt>
      <trkpt lat="45.58138" lon="4.66048">
        <ele>389.786449</ele>
        <time>2025-05-08T07:19:28.166Z</time>
      </trkpt>
      <trkpt lat="45.58146" lon="4.66039">
        <ele>390.013127</ele>
        <time>2025-05-08T07:19:31.139Z</time>
      </trkpt>
      <trkpt lat="45.58154" lon="4.6603">
        <ele>390.238081</ele>
        <time>2025-05-08T07:19:34.172Z</time>
      </trkpt>
      <trkpt lat="45.58162" lon="4.6602">
        <ele>390.49208</ele>
        <time>2025-05-08T07:19:37.161Z</time>
      </trkpt>
      <trkpt lat="45.58171" lon="4.66008">
        <ele>390.703618</ele>
        <time>2025-05-08T07:19:40.152Z</time>
      </trkpt>
      <trkpt lat="45.5818" lon="4.65996">
        <ele>390.913447</ele>
        <time>2025-05-08T07:19:43.164Z</time>
      </trkpt>
      <trkpt lat="45.58188" lon="4.65983">
        <ele>391.125269</ele>
        <time>2025-05-08T07:19:46.180Z</time>
      </trkpt>
      <trkpt lat="45.58196" lon="4.6597">
        <ele>391.34248</ele>
        <time>2025-05-08T07:19:49.160Z</time>
      </trkpt>
      <trkpt lat="45.58204" lon="4.65956">
        <ele>391.56254</ele>
        <time>2025-05-08T07:19:52.180Z</time>
      </trkpt>
      <trkpt lat="45.58212" lon="4.65942">
        <ele>391.791715</ele>
        <time>2025-05-08T07:19:55.137Z</time>
      </trkpt>
      <trkpt lat="45.5822" lon="4.65928">
        <ele>392.013837</ele>
        <time>2025-05-08T07:19:58.157Z</time>
      </trkpt>
      <trkpt lat="45.58227" lon="4.65915">
        <ele>392.21428</ele>
        <time>2025-05-08T07:20:01.141Z</time>
      </trkpt>
      <trkpt lat="45.58233" lon="4.65902">
        <ele>392.402569</ele>
        <time>2025-05-08T07:20:04.156Z</time>
      </trkpt>
      <trkpt lat="45.58239" lon="4.65892">
        <ele>392.570946</ele>
        <time>2025-05-08T07:20:07.151Z</time>
      </trkpt>
      <trkpt lat="45.58246" lon="4.65878">
        <ele>392.777359</ele>
        <time>2025-05-08T07:20:11.143Z</time>
      </trkpt>
      <trkpt lat="45.58252" lon="4.65865">
        <ele>392.968668</ele>
        <time>2025-05-08T07:20:15.152Z</time>
      </trkpt>
      <trkpt lat="45.58259" lon="4.65853">
        <ele>393.165287</ele>
        <time>2025-05-08T07:20:19.205Z</time>
      </trkpt>
      <trkpt lat="45.58266" lon="4.65842">
        <ele>393.337335</ele>
        <time>2025-05-08T07:20:23.172Z</time>
      </trkpt>
      <trkpt lat="45.58261" lon="4.65828">
        <ele>393.528312</ele>
        <time>2025-05-08T07:20:29.188Z</time>
      </trkpt>
      <trkpt lat="45.58256" lon="4.65816">
        <ele>393.671219</ele>
        <time>2025-05-08T07:20:33.162Z</time>
      </trkpt>
      <trkpt lat="45.58247" lon="4.65804">
        <ele>393.754097</ele>
        <time>2025-05-08T07:20:37.147Z</time>
      </trkpt>
      <trkpt lat="45.5824" lon="4.65796">
        <ele>393.818594</ele>
        <time>2025-05-08T07:20:40.177Z</time>
      </trkpt>
      <trkpt lat="45.58231" lon="4.6579">
        <ele>393.889588</ele>
        <time>2025-05-08T07:20:44.144Z</time>
      </trkpt>
      <trkpt lat="45.58221" lon="4.65795">
        <ele>393.96583</ele>
        <time>2025-05-08T07:20:47.169Z</time>
      </trkpt>
      <trkpt lat="45.58211" lon="4.65788">
        <ele>394.045705</ele>
        <time>2025-05-08T07:20:52.176Z</time>
      </trkpt>
      <trkpt lat="45.582" lon="4.6578">
        <ele>394.127023</ele>
        <time>2025-05-08T07:20:56.159Z</time>
      </trkpt>
      <trkpt lat="45.5819" lon="4.6577">
        <ele>394.217703</ele>
        <time>2025-05-08T07:20:59.190Z</time>
      </trkpt>
      <trkpt lat="45.58182" lon="4.65762">
        <ele>394.285465</ele>
        <time>2025-05-08T07:21:01.149Z</time>
      </trkpt>
      <trkpt lat="45.58171" lon="4.6575">
        <ele>394.379727</ele>
        <time>2025-05-08T07:21:04.144Z</time>
      </trkpt>
      <trkpt lat="45.58162" lon="4.65745">
        <ele>394.447339</ele>
        <time>2025-05-08T07:21:06.138Z</time>
      </trkpt>
      <trkpt lat="45.58154" lon="4.6574">
        <ele>394.512134</ele>
        <time>2025-05-08T07:21:08.138Z</time>
      </trkpt>
      <trkpt lat="45.58142" lon="4.65735">
        <ele>394.596106</ele>
        <time>2025-05-08T07:21:11.158Z</time>
      </trkpt>
      <trkpt lat="45.58133" lon="4.65731">
        <ele>394.6674</ele>
        <time>2025-05-08T07:21:14.150Z</time>
      </trkpt>
      <trkpt lat="45.58122" lon="4.65726">
        <ele>394.746383</ele>
        <time>2025-05-08T07:21:18.148Z</time>
      </trkpt>
      <trkpt lat="45.58112" lon="4.65722">
        <ele>394.8201</ele>
        <time>2025-05-08T07:21:22.167Z</time>
      </trkpt>
      <trkpt lat="45.58101" lon="4.65717">
        <ele>394.895811</ele>
        <time>2025-05-08T07:21:26.159Z</time>
      </trkpt>
      <trkpt lat="45.58091" lon="4.65711">
        <ele>395.183399</ele>
        <time>2025-05-08T07:21:30.153Z</time>
      </trkpt>
      <trkpt lat="45.58081" lon="4.65705">
        <ele>395.523503</ele>
        <time>2025-05-08T07:21:34.150Z</time>
      </trkpt>
      <trkpt lat="45.58071" lon="4.65699">
        <ele>395.857464</ele>
        <time>2025-05-08T07:21:38.164Z</time>
      </trkpt>
      <trkpt lat="45.58062" lon="4.65692">
        <ele>396.166774</ele>
        <time>2025-05-08T07:21:42.198Z</time>
      </trkpt>
      <trkpt lat="45.58053" lon="4.65684">
        <ele>396.488145</ele>
        <time>2025-05-08T07:21:46.159Z</time>
      </trkpt>
      <trkpt lat="45.58044" lon="4.65675">
        <ele>396.823106</ele>
        <time>2025-05-08T07:21:50.159Z</time>
      </trkpt>
      <trkpt lat="45.58036" lon="4.65665">
        <ele>397.135416</ele>
        <time>2025-05-08T07:21:54.168Z</time>
      </trkpt>
      <trkpt lat="45.58028" lon="4.65656">
        <ele>397.47055</ele>
        <time>2025-05-08T07:21:58.141Z</time>
      </trkpt>
      <trkpt lat="45.58019" lon="4.65646">
        <ele>397.792065</ele>
        <time>2025-05-08T07:22:02.148Z</time>
      </trkpt>
      <trkpt lat="45.58012" lon="4.65637">
        <ele>398.101308</ele>
        <time>2025-05-08T07:22:06.176Z</time>
      </trkpt>
      <trkpt lat="45.58004" lon="4.65629">
        <ele>398.393634</ele>
        <time>2025-05-08T07:22:10.159Z</time>
      </trkpt>
      <trkpt lat="45.57997" lon="4.6562">
        <ele>398.683985</ele>
        <time>2025-05-08T07:22:14.148Z</time>
      </trkpt>
      <trkpt lat="45.5799" lon="4.65612">
        <ele>398.967134</ele>
        <time>2025-05-08T07:22:18.149Z</time>
      </trkpt>
      <trkpt lat="45.57982" lon="4.65603">
        <ele>399.266902</ele>
        <time>2025-05-08T07:22:22.166Z</time>
      </trkpt>
      <trkpt lat="45.57974" lon="4.65594">
        <ele>399.568689</ele>
        <time>2025-05-08T07:22:26.167Z</time>
      </trkpt>
      <trkpt lat="45.57967" lon="4.65585">
        <ele>399.872872</ele>
        <time>2025-05-08T07:22:30.149Z</time>
      </trkpt>
      <trkpt lat="45.57959" lon="4.65576">
        <ele>400.182116</ele>
        <time>2025-05-08T07:22:34.143Z</time>
      </trkpt>
      <trkpt lat="45.57951" lon="4.65567">
        <ele>400.457986</ele>
        <time>2025-05-08T07:22:38.161Z</time>
      </trkpt>
      <trkpt lat="45.57944" lon="4.65558">
        <ele>400.636258</ele>
        <time>2025-05-08T07:22:42.146Z</time>
      </trkpt>
      <trkpt lat="45.57936" lon="4.6555">
        <ele>400.808122</ele>
        <time>2025-05-08T07:22:46.147Z</time>
      </trkpt>
      <trkpt lat="45.57928" lon="4.65541">
        <ele>400.98674</ele>
        <time>2025-05-08T07:22:50.158Z</time>
      </trkpt>
      <trkpt lat="45.57921" lon="4.65532">
        <ele>401.160375</ele>
        <time>2025-05-08T07:22:54.153Z</time>
      </trkpt>
      <trkpt lat="45.57914" lon="4.65523">
        <ele>401.330207</ele>
        <time>2025-05-08T07:22:58.147Z</time>
      </trkpt>
      <trkpt lat="45.57907" lon="4.65513">
        <ele>401.50586</ele>
        <time>2025-05-08T07:23:02.147Z</time>
      </trkpt>
      <trkpt lat="45.57901" lon="4.65503">
        <ele>401.680947</ele>
        <time>2025-05-08T07:23:06.177Z</time>
      </trkpt>
      <trkpt lat="45.57894" lon="4.65492">
        <ele>401.855144</ele>
        <time>2025-05-08T07:23:10.161Z</time>
      </trkpt>
      <trkpt lat="45.57889" lon="4.65482">
        <ele>402.022875</ele>
        <time>2025-05-08T07:23:14.164Z</time>
      </trkpt>
      <trkpt lat="45.57883" lon="4.6547">
        <ele>402.201894</ele>
        <time>2025-05-08T07:23:18.166Z</time>
      </trkpt>
      <trkpt lat="45.57877" lon="4.65457">
        <ele>402.397447</ele>
        <time>2025-05-08T07:23:22.146Z</time>
      </trkpt>
      <trkpt lat="45.57869" lon="4.65447">
        <ele>402.581597</ele>
        <time>2025-05-08T07:23:26.188Z</time>
      </trkpt>
      <trkpt lat="45.57861" lon="4.65439">
        <ele>402.770385</ele>
        <time>2025-05-08T07:23:30.160Z</time>
      </trkpt>
      <trkpt lat="45.57852" lon="4.65433">
        <ele>402.950647</ele>
        <time>2025-05-08T07:23:34.162Z</time>
      </trkpt>
      <trkpt lat="45.57843" lon="4.65427">
        <ele>403.128705</ele>
        <time>2025-05-08T07:23:38.164Z</time>
      </trkpt>
      <trkpt lat="45.57833" lon="4.65423">
        <ele>403.303672</ele>
        <time>2025-05-08T07:23:42.150Z</time>
      </trkpt>
      <trkpt lat="45.57824" lon="4.65418">
        <ele>403.486281</ele>
        <time>2025-05-08T07:23:46.147Z</time>
      </trkpt>
      <trkpt lat="45.57813" lon="4.65414">
        <ele>403.684594</ele>
        <time>2025-05-08T07:23:50.174Z</time>
      </trkpt>
      <trkpt lat="45.57803" lon="4.6541">
        <ele>403.912458</ele>
        <time>2025-05-08T07:23:54.154Z</time>
      </trkpt>
      <trkpt lat="45.57793" lon="4.65406">
        <ele>404.133554</ele>
        <time>2025-05-08T07:23:58.168Z</time>
      </trkpt>
      <trkpt lat="45.57782" lon="4.65403">
        <ele>404.356695</ele>
        <time>2025-05-08T07:24:02.168Z</time>
      </trkpt>
      <trkpt lat="45.57771" lon="4.654">
        <ele>404.585937</ele>
        <time>2025-05-08T07:24:06.179Z</time>
      </trkpt>
      <trkpt lat="45.5776" lon="4.65397">
        <ele>404.814333</ele>
        <time>2025-05-08T07:24:10.152Z</time>
      </trkpt>
      <trkpt lat="45.57749" lon="4.65394">
        <ele>405.050166</ele>
        <time>2025-05-08T07:24:14.169Z</time>
      </trkpt>
      <trkpt lat="45.57738" lon="4.65391">
        <ele>405.292155</ele>
        <time>2025-05-08T07:24:18.156Z</time>
      </trkpt>
      <trkpt lat="45.57726" lon="4.65389">
        <ele>405.531649</ele>
        <time>2025-05-08T07:24:22.173Z</time>
      </trkpt>
      <trkpt lat="45.57716" lon="4.65387">
        <ele>405.758814</ele>
        <time>2025-05-08T07:24:26.175Z</time>
      </trkpt>
      <trkpt lat="45.57704" lon="4.65385">
        <ele>405.995468</ele>
        <time>2025-05-08T07:24:30.162Z</time>
      </trkpt>
      <trkpt lat="45.57692" lon="4.65383">
        <ele>406.24227</ele>
        <time>2025-05-08T07:24:34.154Z</time>
      </trkpt>
      <trkpt lat="45.57683" lon="4.65381">
        <ele>406.430594</ele>
        <time>2025-05-08T07:24:37.165Z</time>
      </trkpt>
      <trkpt lat="45.57672" lon="4.65379">
        <ele>406.67647</ele>
        <time>2025-05-08T07:24:41.169Z</time>
      </trkpt>
      <trkpt lat="45.5766" lon="4.65376">
        <ele>406.914834</ele>
        <time>2025-05-08T07:24:45.148Z</time>
      </trkpt>
      <trkpt lat="45.57649" lon="4.65373">
        <ele>407.156878</ele>
        <time>2025-05-08T07:24:49.153Z</time>
      </trkpt>
      <trkpt lat="45.57638" lon="4.65369">
        <ele>407.391102</ele>
        <time>2025-05-08T07:24:53.147Z</time>
      </trkpt>
      <trkpt lat="45.57628" lon="4.65365">
        <ele>407.722076</ele>
        <time>2025-05-08T07:24:57.156Z</time>
      </trkpt>
      <trkpt lat="45.57618" lon="4.65362">
        <ele>408.01711</ele>
        <time>2025-05-08T07:25:01.129Z</time>
      </trkpt>
      <trkpt lat="45.57608" lon="4.65358">
        <ele>408.333595</ele>
        <time>2025-05-08T07:25:06.171Z</time>
      </trkpt>
      <trkpt lat="45.57602" lon="4.65346">
        <ele>408.658593</ele>
        <time>2025-05-08T07:25:11.152Z</time>
      </trkpt>
      <trkpt lat="45.57604" lon="4.6533">
        <ele>409.010459</ele>
        <time>2025-05-08T07:25:15.145Z</time>
      </trkpt>
      <trkpt lat="45.57607" lon="4.65315">
        <ele>409.339304</ele>
        <time>2025-05-08T07:25:19.146Z</time>
      </trkpt>
      <trkpt lat="45.57609" lon="4.65299">
        <ele>409.678658</ele>
        <time>2025-05-08T07:25:23.165Z</time>
      </trkpt>
      <trkpt lat="45.57614" lon="4.65285">
        <ele>410.028902</ele>
        <time>2025-05-08T07:25:27.147Z</time>
      </trkpt>
      <trkpt lat="45.5762" lon="4.65275">
        <ele>410.311117</ele>
        <time>2025-05-08T07:25:30.153Z</time>
      </trkpt>
      <trkpt lat="45.57628" lon="4.65264">
        <ele>410.636683</ele>
        <time>2025-05-08T07:25:33.153Z</time>
      </trkpt>
      <trkpt lat="45.57635" lon="4.65255">
        <ele>410.946722</ele>
        <time>2025-05-08T07:25:36.166Z</time>
      </trkpt>
      <trkpt lat="45.57642" lon="4.65245">
        <ele>411.247019</ele>
        <time>2025-05-08T07:25:39.169Z</time>
      </trkpt>
      <trkpt lat="45.57649" lon="4.65237">
        <ele>411.526448</ele>
        <time>2025-05-08T07:25:42.178Z</time>
      </trkpt>
      <trkpt lat="45.57656" lon="4.65228">
        <ele>411.803761</ele>
        <time>2025-05-08T07:25:45.169Z</time>
      </trkpt>
      <trkpt lat="45.57663" lon="4.65219">
        <ele>412.097436</ele>
        <time>2025-05-08T07:25:48.166Z</time>
      </trkpt>
      <trkpt lat="45.5767" lon="4.6521">
        <ele>412.390128</ele>
        <time>2025-05-08T07:25:51.148Z</time>
      </trkpt>
      <trkpt lat="45.57677" lon="4.65201">
        <ele>412.691266</ele>
        <time>2025-05-08T07:25:54.148Z</time>
      </trkpt>
      <trkpt lat="45.57686" lon="4.6519">
        <ele>413.059974</ele>
        <time>2025-05-08T07:25:58.147Z</time>
      </trkpt>
      <trkpt lat="45.57694" lon="4.65179">
        <ele>413.506139</ele>
        <time>2025-05-08T07:26:03.162Z</time>
      </trkpt>
      <trkpt lat="45.577" lon="4.6517">
        <ele>413.860044</ele>
        <time>2025-05-08T07:26:07.165Z</time>
      </trkpt>
      <trkpt lat="45.57706" lon="4.65158">
        <ele>414.251448</ele>
        <time>2025-05-08T07:26:13.152Z</time>
      </trkpt>
      <trkpt lat="45.57701" lon="4.65147">
        <ele>414.611358</ele>
        <time>2025-05-08T07:26:17.156Z</time>
      </trkpt>
      <trkpt lat="45.57692" lon="4.65138">
        <ele>415.031613</ele>
        <time>2025-05-08T07:26:21.130Z</time>
      </trkpt>
      <trkpt lat="45.57685" lon="4.65129">
        <ele>415.394906</ele>
        <time>2025-05-08T07:26:26.153Z</time>
      </trkpt>
      <trkpt lat="45.57678" lon="4.65121">
        <ele>415.756446</ele>
        <time>2025-05-08T07:26:32.153Z</time>
      </trkpt>
      <trkpt lat="45.5767" lon="4.65113">
        <ele>416.141622</ele>
        <time>2025-05-08T07:26:40.143Z</time>
      </trkpt>
      <trkpt lat="45.57665" lon="4.651">
        <ele>416.549868</ele>
        <time>2025-05-08T07:26:45.148Z</time>
      </trkpt>
      <trkpt lat="45.57661" lon="4.65084">
        <ele>417.00766</ele>
        <time>2025-05-08T07:26:49.165Z</time>
      </trkpt>
      <trkpt lat="45.57653" lon="4.65076">
        <ele>417.395684</ele>
        <time>2025-05-08T07:26:52.160Z</time>
      </trkpt>
      <trkpt lat="45.57645" lon="4.65068">
        <ele>417.764548</ele>
        <time>2025-05-08T07:26:55.157Z</time>
      </trkpt>
      <trkpt lat="45.57638" lon="4.65057">
        <ele>418.200153</ele>
        <time>2025-05-08T07:26:59.162Z</time>
      </trkpt>
      <trkpt lat="45.57641" lon="4.65044">
        <ele>418.567303</ele>
        <time>2025-05-08T07:27:02.158Z</time>
      </trkpt>
      <trkpt lat="45.57644" lon="4.6503">
        <ele>418.974857</ele>
        <time>2025-05-08T07:27:06.170Z</time>
      </trkpt>
      <trkpt lat="45.57646" lon="4.65016">
        <ele>419.374225</ele>
        <time>2025-05-08T07:27:10.158Z</time>
      </trkpt>
      <trkpt lat="45.57649" lon="4.65002">
        <ele>419.782262</ele>
        <time>2025-05-08T07:27:15.150Z</time>
      </trkpt>
      <trkpt lat="45.57652" lon="4.64987">
        <ele>420.15778</ele>
        <time>2025-05-08T07:27:20.162Z</time>
      </trkpt>
      <trkpt lat="45.57655" lon="4.64972">
        <ele>420.473018</ele>
        <time>2025-05-08T07:27:25.165Z</time>
      </trkpt>
      <trkpt lat="45.57658" lon="4.64958">
        <ele>420.76899</ele>
        <time>2025-05-08T07:27:29.155Z</time>
      </trkpt>
      <trkpt lat="45.57662" lon="4.64944">
        <ele>421.07838</ele>
        <time>2025-05-08T07:27:33.145Z</time>
      </trkpt>
      <trkpt lat="45.57666" lon="4.64929">
        <ele>421.397663</ele>
        <time>2025-05-08T07:27:37.153Z</time>
      </trkpt>
      <trkpt lat="45.57671" lon="4.64915">
        <ele>421.71018</ele>
        <time>2025-05-08T07:27:41.133Z</time>
      </trkpt>
      <trkpt lat="45.57676" lon="4.64901">
        <ele>422.021877</ele>
        <time>2025-05-08T07:27:45.156Z</time>
      </trkpt>
      <trkpt lat="45.57681" lon="4.64887">
        <ele>422.34382</ele>
        <time>2025-05-08T07:27:49.156Z</time>
      </trkpt>
      <trkpt lat="45.57684" lon="4.64874">
        <ele>422.618102</ele>
        <time>2025-05-08T07:27:52.182Z</time>
      </trkpt>
      <trkpt lat="45.57688" lon="4.64859">
        <ele>422.957949</ele>
        <time>2025-05-08T07:27:56.172Z</time>
      </trkpt>
      <trkpt lat="45.57692" lon="4.64844">
        <ele>423.287344</ele>
        <time>2025-05-08T07:28:00.155Z</time>
      </trkpt>
      <trkpt lat="45.57697" lon="4.64829">
        <ele>423.613041</ele>
        <time>2025-05-08T07:28:04.165Z</time>
      </trkpt>
      <trkpt lat="45.57701" lon="4.64815">
        <ele>423.91983</ele>
        <time>2025-05-08T07:28:08.168Z</time>
      </trkpt>
      <trkpt lat="45.57707" lon="4.64803">
        <ele>424.223435</ele>
        <time>2025-05-08T07:28:13.147Z</time>
      </trkpt>
      <trkpt lat="45.5771" lon="4.6479">
        <ele>424.502421</ele>
        <time>2025-05-08T07:28:20.173Z</time>
      </trkpt>
      <trkpt lat="45.57715" lon="4.64777">
        <ele>424.792207</ele>
        <time>2025-05-08T07:28:26.158Z</time>
      </trkpt>
      <trkpt lat="45.57719" lon="4.64765">
        <ele>425.056154</ele>
        <time>2025-05-08T07:28:31.134Z</time>
      </trkpt>
      <trkpt lat="45.57724" lon="4.64752">
        <ele>425.383844</ele>
        <time>2025-05-08T07:28:37.139Z</time>
      </trkpt>
      <trkpt lat="45.57728" lon="4.6474">
        <ele>425.694903</ele>
        <time>2025-05-08T07:28:42.176Z</time>
      </trkpt>
      <trkpt lat="45.57733" lon="4.64728">
        <ele>425.990962</ele>
        <time>2025-05-08T07:28:49.156Z</time>
      </trkpt>
      <trkpt lat="45.57738" lon="4.64715">
        <ele>426.330478</ele>
        <time>2025-05-08T07:28:55.173Z</time>
      </trkpt>
      <trkpt lat="45.57743" lon="4.64703">
        <ele>426.647634</ele>
        <time>2025-05-08T07:29:01.138Z</time>
      </trkpt>
      <trkpt lat="45.57748" lon="4.64692">
        <ele>426.951956</ele>
        <time>2025-05-08T07:29:06.143Z</time>
      </trkpt>
      <trkpt lat="45.57753" lon="4.64679">
        <ele>427.274926</ele>
        <time>2025-05-08T07:29:12.171Z</time>
      </trkpt>
      <trkpt lat="45.57759" lon="4.64666">
        <ele>427.61985</ele>
        <time>2025-05-08T07:29:18.152Z</time>
      </trkpt>
      <trkpt lat="45.57763" lon="4.64655">
        <ele>427.923822</ele>
        <time>2025-05-08T07:29:23.144Z</time>
      </trkpt>
      <trkpt lat="45.57768" lon="4.64642">
        <ele>428.259364</ele>
        <time>2025-05-08T07:29:28.139Z</time>
      </trkpt>
      <trkpt lat="45.57773" lon="4.6463">
        <ele>428.560951</ele>
        <time>2025-05-08T07:29:33.142Z</time>
      </trkpt>
      <trkpt lat="45.57778" lon="4.64617">
        <ele>428.905561</ele>
        <time>2025-05-08T07:29:38.161Z</time>
      </trkpt>
      <trkpt lat="45.57783" lon="4.64604">
        <ele>429.227023</ele>
        <time>2025-05-08T07:29:44.166Z</time>
      </trkpt>
      <trkpt lat="45.57788" lon="4.64592">
        <ele>429.549482</ele>
        <time>2025-05-08T07:29:50.154Z</time>
      </trkpt>
      <trkpt lat="45.57794" lon="4.6458">
        <ele>429.887107</ele>
        <time>2025-05-08T07:29:55.159Z</time>
      </trkpt>
      <trkpt lat="45.57798" lon="4.64567">
        <ele>430.206235</ele>
        <time>2025-05-08T07:30:01.133Z</time>
      </trkpt>
      <trkpt lat="45.57793" lon="4.64557">
        <ele>430.495705</ele>
        <time>2025-05-08T07:30:07.148Z</time>
      </trkpt>
      <trkpt lat="45.57787" lon="4.64545">
        <ele>430.827446</ele>
        <time>2025-05-08T07:30:13.138Z</time>
      </trkpt>
      <trkpt lat="45.57782" lon="4.64534">
        <ele>431.178557</ele>
        <time>2025-05-08T07:30:18.149Z</time>
      </trkpt>
      <trkpt lat="45.57777" lon="4.64521">
        <ele>431.679059</ele>
        <time>2025-05-08T07:30:24.147Z</time>
      </trkpt>
      <trkpt lat="45.57771" lon="4.64508">
        <ele>432.195962</ele>
        <time>2025-05-08T07:30:30.145Z</time>
      </trkpt>
      <trkpt lat="45.57767" lon="4.64497">
        <ele>432.654488</ele>
        <time>2025-05-08T07:30:35.152Z</time>
      </trkpt>
      <trkpt lat="45.57762" lon="4.64485">
        <ele>433.138364</ele>
        <time>2025-05-08T07:30:40.152Z</time>
      </trkpt>
      <trkpt lat="45.57757" lon="4.64473">
        <ele>433.588919</ele>
        <time>2025-05-08T07:30:45.166Z</time>
      </trkpt>
      <trkpt lat="45.57753" lon="4.64462">
        <ele>434.045193</ele>
        <time>2025-05-08T07:30:50.145Z</time>
      </trkpt>
      <trkpt lat="45.57747" lon="4.64448">
        <ele>434.588598</ele>
        <time>2025-05-08T07:30:56.152Z</time>
      </trkpt>
      <trkpt lat="45.57742" lon="4.64437">
        <ele>435.05172</ele>
        <time>2025-05-08T07:31:03.143Z</time>
      </trkpt>
      <trkpt lat="45.57733" lon="4.64433">
        <ele>435.519027</ele>
        <time>2025-05-08T07:31:12.139Z</time>
      </trkpt>
      <trkpt lat="45.57725" lon="4.64441">
        <ele>436.012054</ele>
        <time>2025-05-08T07:31:18.177Z</time>
      </trkpt>
      <trkpt lat="45.57716" lon="4.64448">
        <ele>436.522629</ele>
        <time>2025-05-08T07:31:25.143Z</time>
      </trkpt>
      <trkpt lat="45.57707" lon="4.64456">
        <ele>437.012233</ele>
        <time>2025-05-08T07:31:30.182Z</time>
      </trkpt>
      <trkpt lat="45.57698" lon="4.64458">
        <ele>437.486141</ele>
        <time>2025-05-08T07:31:35.142Z</time>
      </trkpt>
      <trkpt lat="45.57693" lon="4.64444">
        <ele>438.021314</ele>
        <time>2025-05-08T07:31:41.140Z</time>
      </trkpt>
      <trkpt lat="45.57691" lon="4.64429">
        <ele>438.556131</ele>
        <time>2025-05-08T07:31:46.163Z</time>
      </trkpt>
      <trkpt lat="45.57689" lon="4.64416">
        <ele>439.014901</ele>
        <time>2025-05-08T07:31:50.163Z</time>
      </trkpt>
      <trkpt lat="45.5769" lon="4.64401">
        <ele>439.543985</ele>
        <time>2025-05-08T07:31:54.165Z</time>
      </trkpt>
      <trkpt lat="45.57692" lon="4.64388">
        <ele>440.00578</ele>
        <time>2025-05-08T07:31:59.140Z</time>
      </trkpt>
      <trkpt lat="45.57702" lon="4.64383">
        <ele>440.535195</ele>
        <time>2025-05-08T07:32:05.154Z</time>
      </trkpt>
      <trkpt lat="45.57711" lon="4.64376">
        <ele>441.081892</ele>
        <time>2025-05-08T07:32:10.155Z</time>
      </trkpt>
      <trkpt lat="45.5772" lon="4.64369">
        <ele>441.611908</ele>
        <time>2025-05-08T07:32:15.162Z</time>
      </trkpt>
      <trkpt lat="45.57727" lon="4.6436">
        <ele>442.106785</ele>
        <time>2025-05-08T07:32:22.157Z</time>
      </trkpt>
      <trkpt lat="45.57724" lon="4.64345">
        <ele>442.672113</ele>
        <time>2025-05-08T07:32:27.142Z</time>
      </trkpt>
      <trkpt lat="45.57722" lon="4.64331">
        <ele>443.210319</ele>
        <time>2025-05-08T07:32:32.159Z</time>
      </trkpt>
      <trkpt lat="45.57719" lon="4.64318">
        <ele>443.696531</ele>
        <time>2025-05-08T07:32:37.160Z</time>
      </trkpt>
      <trkpt lat="45.57716" lon="4.64304">
        <ele>444.226802</ele>
        <time>2025-05-08T07:32:42.164Z</time>
      </trkpt>
      <trkpt lat="45.57713" lon="4.64291">
        <ele>444.742459</ele>
        <time>2025-05-08T07:32:47.170Z</time>
      </trkpt>
      <trkpt lat="45.57711" lon="4.64278">
        <ele>445.229642</ele>
        <time>2025-05-08T07:32:52.157Z</time>
      </trkpt>
      <trkpt lat="45.57709" lon="4.64265">
        <ele>445.71093</ele>
        <time>2025-05-08T07:32:58.157Z</time>
      </trkpt>
      <trkpt lat="45.57707" lon="4.6425">
        <ele>446.250592</ele>
        <time>2025-05-08T07:33:05.146Z</time>
      </trkpt>
      <trkpt lat="45.57705" lon="4.64237">
        <ele>446.734493</ele>
        <time>2025-05-08T07:33:11.138Z</time>
      </trkpt>
      <trkpt lat="45.57704" lon="4.64224">
        <ele>447.245278</ele>
        <time>2025-05-08T07:33:17.175Z</time>
      </trkpt>
      <trkpt lat="45.57701" lon="4.64211">
        <ele>447.728009</ele>
        <time>2025-05-08T07:33:23.140Z</time>
      </trkpt>
      <trkpt lat="45.57699" lon="4.64197">
        <ele>448.266218</ele>
        <time>2025-05-08T07:33:30.164Z</time>
      </trkpt>
      <trkpt lat="45.57696" lon="4.64184">
        <ele>448.747961</ele>
        <time>2025-05-08T07:33:36.148Z</time>
      </trkpt>
      <trkpt lat="45.57693" lon="4.6417">
        <ele>449.270605</ele>
        <time>2025-05-08T07:33:43.160Z</time>
      </trkpt>
      <trkpt lat="45.5769" lon="4.64158">
        <ele>449.71841</ele>
        <time>2025-05-08T07:33:48.154Z</time>
      </trkpt>
      <trkpt lat="45.57687" lon="4.64146">
        <ele>450.168115</ele>
        <time>2025-05-08T07:33:53.143Z</time>
      </trkpt>
      <trkpt lat="45.57683" lon="4.64134">
        <ele>450.614355</ele>
        <time>2025-05-08T07:33:58.149Z</time>
      </trkpt>
      <trkpt lat="45.57679" lon="4.6412">
        <ele>451.123073</ele>
        <time>2025-05-08T07:34:04.190Z</time>
      </trkpt>
      <trkpt lat="45.57674" lon="4.64106">
        <ele>451.658405</ele>
        <time>2025-05-08T07:34:10.197Z</time>
      </trkpt>
      <trkpt lat="45.57671" lon="4.64093">
        <ele>452.124393</ele>
        <time>2025-05-08T07:34:15.112Z</time>
      </trkpt>
      <trkpt lat="45.57667" lon="4.6408">
        <ele>452.623639</ele>
        <time>2025-05-08T07:34:21.154Z</time>
      </trkpt>
      <trkpt lat="45.57663" lon="4.64067">
        <ele>453.106056</ele>
        <time>2025-05-08T07:34:26.160Z</time>
      </trkpt>
      <trkpt lat="45.57659" lon="4.64054">
        <ele>453.602152</ele>
        <time>2025-05-08T07:34:31.125Z</time>
      </trkpt>
      <trkpt lat="45.57655" lon="4.6404">
        <ele>454.112183</ele>
        <time>2025-05-08T07:34:36.150Z</time>
      </trkpt>
      <trkpt lat="45.57651" lon="4.64026">
        <ele>454.639941</ele>
        <time>2025-05-08T07:34:41.123Z</time>
      </trkpt>
      <trkpt lat="45.57647" lon="4.64012">
        <ele>455.164143</ele>
        <time>2025-05-08T07:34:46.146Z</time>
      </trkpt>
      <trkpt lat="45.57643" lon="4.63997">
        <ele>455.699508</ele>
        <time>2025-05-08T07:34:51.128Z</time>
      </trkpt>
      <trkpt lat="45.5764" lon="4.63985">
        <ele>456.149216</ele>
        <time>2025-05-08T07:34:55.141Z</time>
      </trkpt>
      <trkpt lat="45.57637" lon="4.6397">
        <ele>456.658105</ele>
        <time>2025-05-08T07:35:00.145Z</time>
      </trkpt>
      <trkpt lat="45.57632" lon="4.63942">
        <ele>457.665405</ele>
        <time>2025-05-08T07:35:22.156Z</time>
      </trkpt>
      <trkpt lat="45.57626" lon="4.63931">
        <ele>458.070252</ele>
        <time>2025-05-08T07:35:27.151Z</time>
      </trkpt>
      <trkpt lat="45.5762" lon="4.6392">
        <ele>457.910737</ele>
        <time>2025-05-08T07:35:32.158Z</time>
      </trkpt>
      <trkpt lat="45.57612" lon="4.6391">
        <ele>457.748853</ele>
        <time>2025-05-08T07:35:37.150Z</time>
      </trkpt>
      <trkpt lat="45.57605" lon="4.63897">
        <ele>457.566243</ele>
        <time>2025-05-08T07:35:42.163Z</time>
      </trkpt>
      <trkpt lat="45.57598" lon="4.63888">
        <ele>457.419661</ele>
        <time>2025-05-08T07:35:45.146Z</time>
      </trkpt>
      <trkpt lat="45.57592" lon="4.63877">
        <ele>457.262016</ele>
        <time>2025-05-08T07:35:48.112Z</time>
      </trkpt>
      <trkpt lat="45.57584" lon="4.63864">
        <ele>457.066688</ele>
        <time>2025-05-08T07:35:51.111Z</time>
      </trkpt>
      <trkpt lat="45.57578" lon="4.63852">
        <ele>456.908908</ele>
        <time>2025-05-08T07:35:53.122Z</time>
      </trkpt>
      <trkpt lat="45.57572" lon="4.6384">
        <ele>456.739278</ele>
        <time>2025-05-08T07:35:55.120Z</time>
      </trkpt>
      <trkpt lat="45.57566" lon="4.63828">
        <ele>456.587852</ele>
        <time>2025-05-08T07:35:57.116Z</time>
      </trkpt>
      <trkpt lat="45.5756" lon="4.63813">
        <ele>456.384055</ele>
        <time>2025-05-08T07:36:00.133Z</time>
      </trkpt>
      <trkpt lat="45.57554" lon="4.63799">
        <ele>456.203308</ele>
        <time>2025-05-08T07:36:03.118Z</time>
      </trkpt>
      <trkpt lat="45.57549" lon="4.63787">
        <ele>456.045324</ele>
        <time>2025-05-08T07:36:06.164Z</time>
      </trkpt>
      <trkpt lat="45.57544" lon="4.63774">
        <ele>455.885977</ele>
        <time>2025-05-08T07:36:09.161Z</time>
      </trkpt>
      <trkpt lat="45.57538" lon="4.63761">
        <ele>455.709825</ele>
        <time>2025-05-08T07:36:12.159Z</time>
      </trkpt>
      <trkpt lat="45.57531" lon="4.63747">
        <ele>455.529321</ele>
        <time>2025-05-08T07:36:15.149Z</time>
      </trkpt>
      <trkpt lat="45.57524" lon="4.63735">
        <ele>455.358966</ele>
        <time>2025-05-08T07:36:18.165Z</time>
      </trkpt>
      <trkpt lat="45.57518" lon="4.63725">
        <ele>455.23032</ele>
        <time>2025-05-08T07:36:21.162Z</time>
      </trkpt>
      <trkpt lat="45.57511" lon="4.63714">
        <ele>455.19087</ele>
        <time>2025-05-08T07:36:25.151Z</time>
      </trkpt>
      <trkpt lat="45.57499" lon="4.63715">
        <ele>455.145092</ele>
        <time>2025-05-08T07:36:29.162Z</time>
      </trkpt>
      <trkpt lat="45.57488" lon="4.63717">
        <ele>455.101383</ele>
        <time>2025-05-08T07:36:32.141Z</time>
      </trkpt>
      <trkpt lat="45.57477" lon="4.63715">
        <ele>455.062402</ele>
        <time>2025-05-08T07:36:35.164Z</time>
      </trkpt>
      <trkpt lat="45.57467" lon="4.63708">
        <ele>455.018424</ele>
        <time>2025-05-08T07:36:38.156Z</time>
      </trkpt>
      <trkpt lat="45.57456" lon="4.63704">
        <ele>454.972271</ele>
        <time>2025-05-08T07:36:41.130Z</time>
      </trkpt>
      <trkpt lat="45.57443" lon="4.63707">
        <ele>454.924424</ele>
        <time>2025-05-08T07:36:44.148Z</time>
      </trkpt>
      <trkpt lat="45.57431" lon="4.63705">
        <ele>454.875129</ele>
        <time>2025-05-08T07:36:47.159Z</time>
      </trkpt>
      <trkpt lat="45.57422" lon="4.63694">
        <ele>454.829744</ele>
        <time>2025-05-08T07:36:50.176Z</time>
      </trkpt>
      <trkpt lat="45.57419" lon="4.63681">
        <ele>454.793796</ele>
        <time>2025-05-08T07:36:53.144Z</time>
      </trkpt>
      <trkpt lat="45.57417" lon="4.63667">
        <ele>454.75303</ele>
        <time>2025-05-08T07:36:57.133Z</time>
      </trkpt>
      <trkpt lat="45.57414" lon="4.63653">
        <ele>454.715758</ele>
        <time>2025-05-08T07:37:01.120Z</time>
      </trkpt>
      <trkpt lat="45.57413" lon="4.63639">
        <ele>454.676424</ele>
        <time>2025-05-08T07:37:05.143Z</time>
      </trkpt>
      <trkpt lat="45.57411" lon="4.63623">
        <ele>454.632455</ele>
        <time>2025-05-08T07:37:09.145Z</time>
      </trkpt>
      <trkpt lat="45.57408" lon="4.63607">
        <ele>454.589663</ele>
        <time>2025-05-08T07:37:13.152Z</time>
      </trkpt>
      <trkpt lat="45.57407" lon="4.63591">
        <ele>454.540106</ele>
        <time>2025-05-08T07:37:17.142Z</time>
      </trkpt>
      <trkpt lat="45.57406" lon="4.63577">
        <ele>454.330105</ele>
        <time>2025-05-08T07:37:21.126Z</time>
      </trkpt>
      <trkpt lat="45.57406" lon="4.63563">
        <ele>454.12427</ele>
        <time>2025-05-08T07:37:25.148Z</time>
      </trkpt>
      <trkpt lat="45.57404" lon="4.63549">
        <ele>453.910078</ele>
        <time>2025-05-08T07:37:29.150Z</time>
      </trkpt>
      <trkpt lat="45.57403" lon="4.63536">
        <ele>453.712886</ele>
        <time>2025-05-08T07:37:33.140Z</time>
      </trkpt>
      <trkpt lat="45.57401" lon="4.63522">
        <ele>453.506616</ele>
        <time>2025-05-08T07:37:38.132Z</time>
      </trkpt>
      <trkpt lat="45.57399" lon="4.63508">
        <ele>453.293695</ele>
        <time>2025-05-08T07:37:43.190Z</time>
      </trkpt>
      <trkpt lat="45.57395" lon="4.63493">
        <ele>453.059453</ele>
        <time>2025-05-08T07:37:47.172Z</time>
      </trkpt>
      <trkpt lat="45.57389" lon="4.63483">
        <ele>452.863051</ele>
        <time>2025-05-08T07:37:51.131Z</time>
      </trkpt>
      <trkpt lat="45.57381" lon="4.63471">
        <ele>452.625439</ele>
        <time>2025-05-08T07:37:56.153Z</time>
      </trkpt>
      <trkpt lat="45.57375" lon="4.63462">
        <ele>452.433406</ele>
        <time>2025-05-08T07:37:59.136Z</time>
      </trkpt>
      <trkpt lat="45.57366" lon="4.63453">
        <ele>452.214425</ele>
        <time>2025-05-08T07:38:02.145Z</time>
      </trkpt>
      <trkpt lat="45.57359" lon="4.63445">
        <ele>452.014367</ele>
        <time>2025-05-08T07:38:05.147Z</time>
      </trkpt>
      <trkpt lat="45.5735" lon="4.63438">
        <ele>451.806903</ele>
        <time>2025-05-08T07:38:08.157Z</time>
      </trkpt>
      <trkpt lat="45.5734" lon="4.6343">
        <ele>451.562289</ele>
        <time>2025-05-08T07:38:12.135Z</time>
      </trkpt>
      <trkpt lat="45.57329" lon="4.63424">
        <ele>451.310264</ele>
        <time>2025-05-08T07:38:16.160Z</time>
      </trkpt>
      <trkpt lat="45.57319" lon="4.63418">
        <ele>451.081121</ele>
        <time>2025-05-08T07:38:20.137Z</time>
      </trkpt>
      <trkpt lat="45.5731" lon="4.63412">
        <ele>450.872084</ele>
        <time>2025-05-08T07:38:23.141Z</time>
      </trkpt>
      <trkpt lat="45.57301" lon="4.63404">
        <ele>450.681497</ele>
        <time>2025-05-08T07:38:26.146Z</time>
      </trkpt>
      <trkpt lat="45.57291" lon="4.63396">
        <ele>450.504417</ele>
        <time>2025-05-08T07:38:30.147Z</time>
      </trkpt>
      <trkpt lat="45.5728" lon="4.63387">
        <ele>450.320877</ele>
        <time>2025-05-08T07:38:34.152Z</time>
      </trkpt>
      <trkpt lat="45.57272" lon="4.63379">
        <ele>450.166381</ele>
        <time>2025-05-08T07:38:37.147Z</time>
      </trkpt>
      <trkpt lat="45.57264" lon="4.63373">
        <ele>450.027097</ele>
        <time>2025-05-08T07:38:40.157Z</time>
      </trkpt>
      <trkpt lat="45.57255" lon="4.63365">
        <ele>449.874948</ele>
        <time>2025-05-08T07:38:44.167Z</time>
      </trkpt>
      <trkpt lat="45.57253" lon="4.63348">
        <ele>449.699868</ele>
        <time>2025-05-08T07:38:48.157Z</time>
      </trkpt>
      <trkpt lat="45.57254" lon="4.63331">
        <ele>449.520078</ele>
        <time>2025-05-08T07:38:52.168Z</time>
      </trkpt>
      <trkpt lat="45.57255" lon="4.63315">
        <ele>449.346462</ele>
        <time>2025-05-08T07:38:56.150Z</time>
      </trkpt>
      <trkpt lat="45.57255" lon="4.63299">
        <ele>449.179682</ele>
        <time>2025-05-08T07:39:00.156Z</time>
      </trkpt>
      <trkpt lat="45.57256" lon="4.63283">
        <ele>449.012902</ele>
        <time>2025-05-08T07:39:04.157Z</time>
      </trkpt>
      <trkpt lat="45.57256" lon="4.63268">
        <ele>448.852418</ele>
        <time>2025-05-08T07:39:08.136Z</time>
      </trkpt>
      <trkpt lat="45.57256" lon="4.63254">
        <ele>448.698322</ele>
        <time>2025-05-08T07:39:12.129Z</time>
      </trkpt>
      <trkpt lat="45.57256" lon="4.63238">
        <ele>448.532597</ele>
        <time>2025-05-08T07:39:16.128Z</time>
      </trkpt>
      <trkpt lat="45.57256" lon="4.63223">
        <ele>448.379558</ele>
        <time>2025-05-08T07:39:20.144Z</time>
      </trkpt>
      <trkpt lat="45.57256" lon="4.63209">
        <ele>448.227513</ele>
        <time>2025-05-08T07:39:24.151Z</time>
      </trkpt>
      <trkpt lat="45.57257" lon="4.63194">
        <ele>448.070143</ele>
        <time>2025-05-08T07:39:28.147Z</time>
      </trkpt>
      <trkpt lat="45.57257" lon="4.63181">
        <ele>448.054261</ele>
        <time>2025-05-08T07:39:32.155Z</time>
      </trkpt>
      <trkpt lat="45.57256" lon="4.63167">
        <ele>448.071337</ele>
        <time>2025-05-08T07:39:36.157Z</time>
      </trkpt>
      <trkpt lat="45.57243" lon="4.6314">
        <ele>448.109952</ele>
        <time>2025-05-08T07:39:53.158Z</time>
      </trkpt>
      <trkpt lat="45.57244" lon="4.63126">
        <ele>448.127618</ele>
        <time>2025-05-08T07:39:56.145Z</time>
      </trkpt>
      <trkpt lat="45.57251" lon="4.63115">
        <ele>448.144975</ele>
        <time>2025-05-08T07:39:59.157Z</time>
      </trkpt>
      <trkpt lat="45.57257" lon="4.63103">
        <ele>448.163131</ele>
        <time>2025-05-08T07:40:02.151Z</time>
      </trkpt>
      <trkpt lat="45.57264" lon="4.63089">
        <ele>448.183933</ele>
        <time>2025-05-08T07:40:05.139Z</time>
      </trkpt>
      <trkpt lat="45.5727" lon="4.63077">
        <ele>448.201644</ele>
        <time>2025-05-08T07:40:08.150Z</time>
      </trkpt>
      <trkpt lat="45.57276" lon="4.63068">
        <ele>448.217482</ele>
        <time>2025-05-08T07:40:11.138Z</time>
      </trkpt>
      <trkpt lat="45.57284" lon="4.63055">
        <ele>448.237706</ele>
        <time>2025-05-08T07:40:15.157Z</time>
      </trkpt>
      <trkpt lat="45.5729" lon="4.63046">
        <ele>448.253582</ele>
        <time>2025-05-08T07:40:18.149Z</time>
      </trkpt>
      <trkpt lat="45.57297" lon="4.63037">
        <ele>448.26925</ele>
        <time>2025-05-08T07:40:21.143Z</time>
      </trkpt>
      <trkpt lat="45.57305" lon="4.63025">
        <ele>448.289793</ele>
        <time>2025-05-08T07:40:25.152Z</time>
      </trkpt>
      <trkpt lat="45.57314" lon="4.63013">
        <ele>448.31019</ele>
        <time>2025-05-08T07:40:29.139Z</time>
      </trkpt>
      <trkpt lat="45.57322" lon="4.63003">
        <ele>448.328931</ele>
        <time>2025-05-08T07:40:33.161Z</time>
      </trkpt>
      <trkpt lat="45.57331" lon="4.62993">
        <ele>448.348428</ele>
        <time>2025-05-08T07:40:37.165Z</time>
      </trkpt>
      <trkpt lat="45.57339" lon="4.62983">
        <ele>448.585713</ele>
        <time>2025-05-08T07:40:41.128Z</time>
      </trkpt>
      <trkpt lat="45.57347" lon="4.62974">
        <ele>448.896795</ele>
        <time>2025-05-08T07:40:45.140Z</time>
      </trkpt>
      <trkpt lat="45.57355" lon="4.62964">
        <ele>449.227804</ele>
        <time>2025-05-08T07:40:49.130Z</time>
      </trkpt>
      <trkpt lat="45.57363" lon="4.62953">
        <ele>449.544406</ele>
        <time>2025-05-08T07:40:53.131Z</time>
      </trkpt>
      <trkpt lat="45.57373" lon="4.62944">
        <ele>449.883327</ele>
        <time>2025-05-08T07:40:57.161Z</time>
      </trkpt>
      <trkpt lat="45.5738" lon="4.62934">
        <ele>450.19133</ele>
        <time>2025-05-08T07:41:01.136Z</time>
      </trkpt>
      <trkpt lat="45.57388" lon="4.62927">
        <ele>450.47608</ele>
        <time>2025-05-08T07:41:05.155Z</time>
      </trkpt>
      <trkpt lat="45.57398" lon="4.6292">
        <ele>450.789993</ele>
        <time>2025-05-08T07:41:09.144Z</time>
      </trkpt>
      <trkpt lat="45.57407" lon="4.62912">
        <ele>451.10597</ele>
        <time>2025-05-08T07:41:13.157Z</time>
      </trkpt>
      <trkpt lat="45.57416" lon="4.62902">
        <ele>451.440597</ele>
        <time>2025-05-08T07:41:17.152Z</time>
      </trkpt>
      <trkpt lat="45.57423" lon="4.6289">
        <ele>451.7743</ele>
        <time>2025-05-08T07:41:21.124Z</time>
      </trkpt>
      <trkpt lat="45.57426" lon="4.62876">
        <ele>452.083695</ele>
        <time>2025-05-08T07:41:25.161Z</time>
      </trkpt>
      <trkpt lat="45.57426" lon="4.6286">
        <ele>452.410459</ele>
        <time>2025-05-08T07:41:30.149Z</time>
      </trkpt>
      <trkpt lat="45.57425" lon="4.62845">
        <ele>452.732419</ele>
        <time>2025-05-08T07:41:35.152Z</time>
      </trkpt>
      <trkpt lat="45.57424" lon="4.62829">
        <ele>453.053146</ele>
        <time>2025-05-08T07:41:40.144Z</time>
      </trkpt>
      <trkpt lat="45.57426" lon="4.62815">
        <ele>453.353657</ele>
        <time>2025-05-08T07:41:45.155Z</time>
      </trkpt>
      <trkpt lat="45.57428" lon="4.62801">
        <ele>453.660691</ele>
        <time>2025-05-08T07:41:50.147Z</time>
      </trkpt>
      <trkpt lat="45.57433" lon="4.62789">
        <ele>454.374366</ele>
        <time>2025-05-08T07:41:55.130Z</time>
      </trkpt>
      <trkpt lat="45.57439" lon="4.62777">
        <ele>455.175878</ele>
        <time>2025-05-08T07:42:01.132Z</time>
      </trkpt>
      <trkpt lat="45.57446" lon="4.62768">
        <ele>455.971133</ele>
        <time>2025-05-08T07:42:07.143Z</time>
      </trkpt>
      <trkpt lat="45.57455" lon="4.6276">
        <ele>456.762495</ele>
        <time>2025-05-08T07:42:13.121Z</time>
      </trkpt>
      <trkpt lat="45.57462" lon="4.62752">
        <ele>457.498045</ele>
        <time>2025-05-08T07:42:19.123Z</time>
      </trkpt>
      <trkpt lat="45.57469" lon="4.62744">
        <ele>458.23829</ele>
        <time>2025-05-08T07:42:25.138Z</time>
      </trkpt>
      <trkpt lat="45.57476" lon="4.62735">
        <ele>459.005769</ele>
        <time>2025-05-08T07:42:32.126Z</time>
      </trkpt>
      <trkpt lat="45.57483" lon="4.62725">
        <ele>459.804763</ele>
        <time>2025-05-08T07:42:38.150Z</time>
      </trkpt>
      <trkpt lat="45.5749" lon="4.62716">
        <ele>460.55354</ele>
        <time>2025-05-08T07:42:44.144Z</time>
      </trkpt>
      <trkpt lat="45.57497" lon="4.62707">
        <ele>461.336748</ele>
        <time>2025-05-08T07:42:50.125Z</time>
      </trkpt>
      <trkpt lat="45.57504" lon="4.62696">
        <ele>462.14521</ele>
        <time>2025-05-08T07:42:56.154Z</time>
      </trkpt>
      <trkpt lat="45.57511" lon="4.62686">
        <ele>462.998792</ele>
        <time>2025-05-08T07:43:02.154Z</time>
      </trkpt>
      <trkpt lat="45.57519" lon="4.62676">
        <ele>463.817353</ele>
        <time>2025-05-08T07:43:09.163Z</time>
      </trkpt>
      <trkpt lat="45.57525" lon="4.62667">
        <ele>464.550949</ele>
        <time>2025-05-08T07:43:16.123Z</time>
      </trkpt>
      <trkpt lat="45.57533" lon="4.62657">
        <ele>465.355371</ele>
        <time>2025-05-08T07:43:23.135Z</time>
      </trkpt>
      <trkpt lat="45.5754" lon="4.62646">
        <ele>466.175874</ele>
        <time>2025-05-08T07:43:31.130Z</time>
      </trkpt>
      <trkpt lat="45.57545" lon="4.62636">
        <ele>466.930454</ele>
        <time>2025-05-08T07:43:38.170Z</time>
      </trkpt>
      <trkpt lat="45.57552" lon="4.62626">
        <ele>467.706725</ele>
        <time>2025-05-08T07:43:45.133Z</time>
      </trkpt>
      <trkpt lat="45.57558" lon="4.62614">
        <ele>468.623606</ele>
        <time>2025-05-08T07:43:53.134Z</time>
      </trkpt>
      <trkpt lat="45.57564" lon="4.62604">
        <ele>469.576479</ele>
        <time>2025-05-08T07:44:00.143Z</time>
      </trkpt>
      <trkpt lat="45.57569" lon="4.62593">
        <ele>470.597625</ele>
        <time>2025-05-08T07:44:08.147Z</time>
      </trkpt>
      <trkpt lat="45.57573" lon="4.62581">
        <ele>471.561096</ele>
        <time>2025-05-08T07:44:16.140Z</time>
      </trkpt>
      <trkpt lat="45.5758" lon="4.62565">
        <ele>472.996314</ele>
        <time>2025-05-08T07:46:12.167Z</time>
      </trkpt>
      <trkpt lat="45.57585" lon="4.62554">
        <ele>473.975229</ele>
        <time>2025-05-08T07:46:17.138Z</time>
      </trkpt>
      <trkpt lat="45.5759" lon="4.62542">
        <ele>474.9515</ele>
        <time>2025-05-08T07:46:22.140Z</time>
      </trkpt>
      <trkpt lat="45.57595" lon="4.62529">
        <ele>476.093423</ele>
        <time>2025-05-08T07:46:28.129Z</time>
      </trkpt>
      <trkpt lat="45.57598" lon="4.62517">
        <ele>477.064788</ele>
        <time>2025-05-08T07:46:33.145Z</time>
      </trkpt>
      <trkpt lat="45.57601" lon="4.62502">
        <ele>478.197908</ele>
        <time>2025-05-08T07:46:39.140Z</time>
      </trkpt>
      <trkpt lat="45.57604" lon="4.62488">
        <ele>479.313189</ele>
        <time>2025-05-08T07:46:44.158Z</time>
      </trkpt>
      <trkpt lat="45.57606" lon="4.62473">
        <ele>480.452466</ele>
        <time>2025-05-08T07:46:49.153Z</time>
      </trkpt>
      <trkpt lat="45.57608" lon="4.62458">
        <ele>481.565147</ele>
        <time>2025-05-08T07:46:54.149Z</time>
      </trkpt>
      <trkpt lat="45.57612" lon="4.62445">
        <ele>482.58987</ele>
        <time>2025-05-08T07:46:59.131Z</time>
      </trkpt>
      <trkpt lat="45.57621" lon="4.6244">
        <ele>483.606282</ele>
        <time>2025-05-08T07:47:04.154Z</time>
      </trkpt>
      <trkpt lat="45.5763" lon="4.62441">
        <ele>484.584255</ele>
        <time>2025-05-08T07:47:09.154Z</time>
      </trkpt>
      <trkpt lat="45.5764" lon="4.6244">
        <ele>485.59342</ele>
        <time>2025-05-08T07:47:14.143Z</time>
      </trkpt>
      <trkpt lat="45.5765" lon="4.6244">
        <ele>486.664895</ele>
        <time>2025-05-08T07:47:20.152Z</time>
      </trkpt>
      <trkpt lat="45.5766" lon="4.62438">
        <ele>487.849285</ele>
        <time>2025-05-08T07:47:26.135Z</time>
      </trkpt>
      <trkpt lat="45.57671" lon="4.62439">
        <ele>489.049994</ele>
        <time>2025-05-08T07:47:32.134Z</time>
      </trkpt>
      <trkpt lat="45.57679" lon="4.6243">
        <ele>490.280608</ele>
        <time>2025-05-08T07:47:38.140Z</time>
      </trkpt>
      <trkpt lat="45.57684" lon="4.62419">
        <ele>491.370523</ele>
        <time>2025-05-08T07:47:44.141Z</time>
      </trkpt>
      <trkpt lat="45.57688" lon="4.62406">
        <ele>492.506547</ele>
        <time>2025-05-08T07:47:50.137Z</time>
      </trkpt>
      <trkpt lat="45.57692" lon="4.62392">
        <ele>493.751207</ele>
        <time>2025-05-08T07:47:56.139Z</time>
      </trkpt>
      <trkpt lat="45.57697" lon="4.62379">
        <ele>494.990427</ele>
        <time>2025-05-08T07:48:02.144Z</time>
      </trkpt>
      <trkpt lat="45.57703" lon="4.62368">
        <ele>496.103297</ele>
        <time>2025-05-08T07:48:07.137Z</time>
      </trkpt>
      <trkpt lat="45.57712" lon="4.62364">
        <ele>497.244955</ele>
        <time>2025-05-08T07:48:12.155Z</time>
      </trkpt>
      <trkpt lat="45.57721" lon="4.62362">
        <ele>498.32129</ele>
        <time>2025-05-08T07:48:17.158Z</time>
      </trkpt>
      <trkpt lat="45.57731" lon="4.62359">
        <ele>499.491521</ele>
        <time>2025-05-08T07:48:23.142Z</time>
      </trkpt>
      <trkpt lat="45.5774" lon="4.62354">
        <ele>500.638988</ele>
        <time>2025-05-08T07:48:29.154Z</time>
      </trkpt>
      <trkpt lat="45.5775" lon="4.62351">
        <ele>501.866305</ele>
        <time>2025-05-08T07:48:35.136Z</time>
      </trkpt>
      <trkpt lat="45.5776" lon="4.62349">
        <ele>503.037147</ele>
        <time>2025-05-08T07:48:41.124Z</time>
      </trkpt>
      <trkpt lat="45.57769" lon="4.62347">
        <ele>504.129348</ele>
        <time>2025-05-08T07:48:47.134Z</time>
      </trkpt>
      <trkpt lat="45.57778" lon="4.62343">
        <ele>505.261218</ele>
        <time>2025-05-08T07:48:53.131Z</time>
      </trkpt>
      <trkpt lat="45.57789" lon="4.6234">
        <ele>506.50381</ele>
        <time>2025-05-08T07:48:59.130Z</time>
      </trkpt>
      <trkpt lat="45.57799" lon="4.62344">
        <ele>507.757884</ele>
        <time>2025-05-08T07:49:05.131Z</time>
      </trkpt>
      <trkpt lat="45.57808" lon="4.62348">
        <ele>508.630046</ele>
        <time>2025-05-08T07:49:11.183Z</time>
      </trkpt>
      <trkpt lat="45.57826" lon="4.62341">
        <ele>509.477231</ele>
        <time>2025-05-08T07:51:35.149Z</time>
      </trkpt>
      <trkpt lat="45.57836" lon="4.62337">
        <ele>509.965133</ele>
        <time>2025-05-08T07:51:40.155Z</time>
      </trkpt>
      <trkpt lat="45.57845" lon="4.62333">
        <ele>510.406053</ele>
        <time>2025-05-08T07:51:44.136Z</time>
      </trkpt>
      <trkpt lat="45.57854" lon="4.62331">
        <ele>510.832676</ele>
        <time>2025-05-08T07:51:48.152Z</time>
      </trkpt>
      <trkpt lat="45.57863" lon="4.62329">
        <ele>511.284138</ele>
        <time>2025-05-08T07:51:53.117Z</time>
      </trkpt>
      <trkpt lat="45.57874" lon="4.62327">
        <ele>511.79602</ele>
        <time>2025-05-08T07:51:58.140Z</time>
      </trkpt>
      <trkpt lat="45.57883" lon="4.62324">
        <ele>512.224833</ele>
        <time>2025-05-08T07:52:02.133Z</time>
      </trkpt>
      <trkpt lat="45.57892" lon="4.62322">
        <ele>512.646203</ele>
        <time>2025-05-08T07:52:06.135Z</time>
      </trkpt>
      <trkpt lat="45.57903" lon="4.6232">
        <ele>513.171627</ele>
        <time>2025-05-08T07:52:11.134Z</time>
      </trkpt>
      <trkpt lat="45.57912" lon="4.62318">
        <ele>513.609701</ele>
        <time>2025-05-08T07:52:15.141Z</time>
      </trkpt>
      <trkpt lat="45.57921" lon="4.62316">
        <ele>514.058571</ele>
        <time>2025-05-08T07:52:19.136Z</time>
      </trkpt>
      <trkpt lat="45.57931" lon="4.62314">
        <ele>514.502995</ele>
        <time>2025-05-08T07:52:23.135Z</time>
      </trkpt>
      <trkpt lat="45.5794" lon="4.62312">
        <ele>514.941841</ele>
        <time>2025-05-08T07:52:27.128Z</time>
      </trkpt>
      <trkpt lat="45.5795" lon="4.62311">
        <ele>515.396557</ele>
        <time>2025-05-08T07:52:31.125Z</time>
      </trkpt>
      <trkpt lat="45.57961" lon="4.62309">
        <ele>515.920838</ele>
        <time>2025-05-08T07:52:35.149Z</time>
      </trkpt>
      <trkpt lat="45.57971" lon="4.62307">
        <ele>516.394185</ele>
        <time>2025-05-08T07:52:39.145Z</time>
      </trkpt>
      <trkpt lat="45.5798" lon="4.62306">
        <ele>516.847056</ele>
        <time>2025-05-08T07:52:43.147Z</time>
      </trkpt>
      <trkpt lat="45.5799" lon="4.62304">
        <ele>517.127681</ele>
        <time>2025-05-08T07:52:47.144Z</time>
      </trkpt>
      <trkpt lat="45.57999" lon="4.62302">
        <ele>517.376525</ele>
        <time>2025-05-08T07:52:51.129Z</time>
      </trkpt>
      <trkpt lat="45.5801" lon="4.623">
        <ele>517.679687</ele>
        <time>2025-05-08T07:52:56.137Z</time>
      </trkpt>
      <trkpt lat="45.58019" lon="4.62299">
        <ele>517.933951</ele>
        <time>2025-05-08T07:53:00.143Z</time>
      </trkpt>
      <trkpt lat="45.58028" lon="4.623">
        <ele>518.185017</ele>
        <time>2025-05-08T07:53:04.144Z</time>
      </trkpt>
      <trkpt lat="45.58037" lon="4.62299">
        <ele>518.449959</ele>
        <time>2025-05-08T07:53:08.134Z</time>
      </trkpt>
      <trkpt lat="45.58047" lon="4.62298">
        <ele>518.720747</ele>
        <time>2025-05-08T07:53:12.134Z</time>
      </trkpt>
      <trkpt lat="45.58058" lon="4.62298">
        <ele>519.010816</ele>
        <time>2025-05-08T07:53:16.153Z</time>
      </trkpt>
      <trkpt lat="45.58068" lon="4.62296">
        <ele>519.285256</ele>
        <time>2025-05-08T07:53:20.123Z</time>
      </trkpt>
      <trkpt lat="45.58077" lon="4.62296">
        <ele>519.547582</ele>
        <time>2025-05-08T07:53:24.154Z</time>
      </trkpt>
      <trkpt lat="45.58087" lon="4.62294">
        <ele>519.813262</ele>
        <time>2025-05-08T07:53:28.141Z</time>
      </trkpt>
      <trkpt lat="45.58097" lon="4.62293">
        <ele>520.084772</ele>
        <time>2025-05-08T07:53:32.129Z</time>
      </trkpt>
      <trkpt lat="45.58107" lon="4.62292">
        <ele>520.377595</ele>
        <time>2025-05-08T07:53:36.153Z</time>
      </trkpt>
      <trkpt lat="45.58117" lon="4.62292">
        <ele>520.645358</ele>
        <time>2025-05-08T07:53:40.199Z</time>
      </trkpt>
      <trkpt lat="45.58128" lon="4.62291">
        <ele>520.940841</ele>
        <time>2025-05-08T07:53:44.137Z</time>
      </trkpt>
      <trkpt lat="45.58138" lon="4.62291">
        <ele>521.225008</ele>
        <time>2025-05-08T07:53:48.137Z</time>
      </trkpt>
      <trkpt lat="45.58147" lon="4.62291">
        <ele>521.487078</ele>
        <time>2025-05-08T07:53:52.149Z</time>
      </trkpt>
      <trkpt lat="45.58158" lon="4.62295">
        <ele>521.798388</ele>
        <time>2025-05-08T07:53:56.154Z</time>
      </trkpt>
      <trkpt lat="45.58169" lon="4.623">
        <ele>522.11171</ele>
        <time>2025-05-08T07:54:00.141Z</time>
      </trkpt>
      <trkpt lat="45.58178" lon="4.62305">
        <ele>522.412918</ele>
        <time>2025-05-08T07:54:04.138Z</time>
      </trkpt>
      <trkpt lat="45.58188" lon="4.62311">
        <ele>522.716537</ele>
        <time>2025-05-08T07:54:08.158Z</time>
      </trkpt>
      <trkpt lat="45.58197" lon="4.62316">
        <ele>523.019799</ele>
        <time>2025-05-08T07:54:12.140Z</time>
      </trkpt>
      <trkpt lat="45.58207" lon="4.62321">
        <ele>523.3286</ele>
        <time>2025-05-08T07:54:16.142Z</time>
      </trkpt>
      <trkpt lat="45.58217" lon="4.62326">
        <ele>523.6527</ele>
        <time>2025-05-08T07:54:20.153Z</time>
      </trkpt>
      <trkpt lat="45.58227" lon="4.62332">
        <ele>523.954147</ele>
        <time>2025-05-08T07:54:24.131Z</time>
      </trkpt>
      <trkpt lat="45.58236" lon="4.62337">
        <ele>524.250586</ele>
        <time>2025-05-08T07:54:28.129Z</time>
      </trkpt>
      <trkpt lat="45.58246" lon="4.62343">
        <ele>524.551704</ele>
        <time>2025-05-08T07:54:32.139Z</time>
      </trkpt>
      <trkpt lat="45.58255" lon="4.62346">
        <ele>524.845428</ele>
        <time>2025-05-08T07:54:36.130Z</time>
      </trkpt>
      <trkpt lat="45.58266" lon="4.62347">
        <ele>525.145849</ele>
        <time>2025-05-08T07:54:40.138Z</time>
      </trkpt>
      <trkpt lat="45.58275" lon="4.62347">
        <ele>525.428294</ele>
        <time>2025-05-08T07:54:44.133Z</time>
      </trkpt>
      <trkpt lat="45.58285" lon="4.62344">
        <ele>525.71644</ele>
        <time>2025-05-08T07:54:48.140Z</time>
      </trkpt>
      <trkpt lat="45.58293" lon="4.6234">
        <ele>525.982419</ele>
        <time>2025-05-08T07:54:52.153Z</time>
      </trkpt>
      <trkpt lat="45.58302" lon="4.62334">
        <ele>526.259514</ele>
        <time>2025-05-08T07:54:56.157Z</time>
      </trkpt>
      <trkpt lat="45.5831" lon="4.62327">
        <ele>526.530396</ele>
        <time>2025-05-08T07:55:00.137Z</time>
      </trkpt>
      <trkpt lat="45.58317" lon="4.62318">
        <ele>526.828721</ele>
        <time>2025-05-08T07:55:04.147Z</time>
      </trkpt>
      <trkpt lat="45.58323" lon="4.62308">
        <ele>527.095171</ele>
        <time>2025-05-08T07:55:07.145Z</time>
      </trkpt>
      <trkpt lat="45.58329" lon="4.62294">
        <ele>527.368101</ele>
        <time>2025-05-08T07:55:11.133Z</time>
      </trkpt>
      <trkpt lat="45.58333" lon="4.62281">
        <ele>527.595119</ele>
        <time>2025-05-08T07:55:15.144Z</time>
      </trkpt>
      <trkpt lat="45.58336" lon="4.62267">
        <ele>527.819193</ele>
        <time>2025-05-08T07:55:19.163Z</time>
      </trkpt>
      <trkpt lat="45.58339" lon="4.62252">
        <ele>528.061644</ele>
        <time>2025-05-08T07:55:23.142Z</time>
      </trkpt>
      <trkpt lat="45.58339" lon="4.62237">
        <ele>528.299468</ele>
        <time>2025-05-08T07:55:27.132Z</time>
      </trkpt>
      <trkpt lat="45.58339" lon="4.62221">
        <ele>528.552594</ele>
        <time>2025-05-08T07:55:31.131Z</time>
      </trkpt>
      <trkpt lat="45.58339" lon="4.62205">
        <ele>528.805962</ele>
        <time>2025-05-08T07:55:35.141Z</time>
      </trkpt>
      <trkpt lat="45.58338" lon="4.62191">
        <ele>529.036693</ele>
        <time>2025-05-08T07:55:39.144Z</time>
      </trkpt>
      <trkpt lat="45.58336" lon="4.62175">
        <ele>529.284476</ele>
        <time>2025-05-08T07:55:43.155Z</time>
      </trkpt>
      <trkpt lat="45.58333" lon="4.62161">
        <ele>529.514037</ele>
        <time>2025-05-08T07:55:47.141Z</time>
      </trkpt>
      <trkpt lat="45.5833" lon="4.62146">
        <ele>529.776098</ele>
        <time>2025-05-08T07:55:51.126Z</time>
      </trkpt>
      <trkpt lat="45.58325" lon="4.6213">
        <ele>530.04281</ele>
        <time>2025-05-08T07:55:55.146Z</time>
      </trkpt>
      <trkpt lat="45.58323" lon="4.62115">
        <ele>530.288359</ele>
        <time>2025-05-08T07:55:59.143Z</time>
      </trkpt>
      <trkpt lat="45.58321" lon="4.62099">
        <ele>530.54104</ele>
        <time>2025-05-08T07:56:03.155Z</time>
      </trkpt>
      <trkpt lat="45.58321" lon="4.62083">
        <ele>530.789915</ele>
        <time>2025-05-08T07:56:07.157Z</time>
      </trkpt>
      <trkpt lat="45.58323" lon="4.62068">
        <ele>531.03308</ele>
        <time>2025-05-08T07:56:11.135Z</time>
      </trkpt>
      <trkpt lat="45.58325" lon="4.62053">
        <ele>531.28182</ele>
        <time>2025-05-08T07:56:15.116Z</time>
      </trkpt>
      <trkpt lat="45.58328" lon="4.62038">
        <ele>531.511691</ele>
        <time>2025-05-08T07:56:19.141Z</time>
      </trkpt>
      <trkpt lat="45.58332" lon="4.62025">
        <ele>531.734813</ele>
        <time>2025-05-08T07:56:23.156Z</time>
      </trkpt>
      <trkpt lat="45.58334" lon="4.6201">
        <ele>531.965308</ele>
        <time>2025-05-08T07:56:27.149Z</time>
      </trkpt>
      <trkpt lat="45.58337" lon="4.61996">
        <ele>532.19289</ele>
        <time>2025-05-08T07:56:31.128Z</time>
      </trkpt>
      <trkpt lat="45.5834" lon="4.61981">
        <ele>532.430806</ele>
        <time>2025-05-08T07:56:35.134Z</time>
      </trkpt>
      <trkpt lat="45.58342" lon="4.61965">
        <ele>532.673687</ele>
        <time>2025-05-08T07:56:39.146Z</time>
      </trkpt>
      <trkpt lat="45.58346" lon="4.61949">
        <ele>532.923873</ele>
        <time>2025-05-08T07:56:43.139Z</time>
      </trkpt>
      <trkpt lat="45.58348" lon="4.61934">
        <ele>533.161275</ele>
        <time>2025-05-08T07:56:47.139Z</time>
      </trkpt>
      <trkpt lat="45.58351" lon="4.61919">
        <ele>533.403232</ele>
        <time>2025-05-08T07:56:51.124Z</time>
      </trkpt>
      <trkpt lat="45.58354" lon="4.61904">
        <ele>533.637796</ele>
        <time>2025-05-08T07:56:55.143Z</time>
      </trkpt>
      <trkpt lat="45.58357" lon="4.61889">
        <ele>533.874156</ele>
        <time>2025-05-08T07:56:59.132Z</time>
      </trkpt>
      <trkpt lat="45.58361" lon="4.61875">
        <ele>534.11059</ele>
        <time>2025-05-08T07:57:03.144Z</time>
      </trkpt>
      <trkpt lat="45.58365" lon="4.61861">
        <ele>534.346296</ele>
        <time>2025-05-08T07:57:07.135Z</time>
      </trkpt>
      <trkpt lat="45.58371" lon="4.61847">
        <ele>534.590598</ele>
        <time>2025-05-08T07:57:11.124Z</time>
      </trkpt>
      <trkpt lat="45.58377" lon="4.61834">
        <ele>534.832522</ele>
        <time>2025-05-08T07:57:15.132Z</time>
      </trkpt>
      <trkpt lat="45.58384" lon="4.61822">
        <ele>535.067019</ele>
        <time>2025-05-08T07:57:19.148Z</time>
      </trkpt>
      <trkpt lat="45.58391" lon="4.61811">
        <ele>535.316725</ele>
        <time>2025-05-08T07:57:23.138Z</time>
      </trkpt>
      <trkpt lat="45.58399" lon="4.618">
        <ele>535.580093</ele>
        <time>2025-05-08T07:57:27.155Z</time>
      </trkpt>
      <trkpt lat="45.58406" lon="4.61791">
        <ele>535.811832</ele>
        <time>2025-05-08T07:57:31.117Z</time>
      </trkpt>
      <trkpt lat="45.58413" lon="4.61779">
        <ele>536.085764</ele>
        <time>2025-05-08T07:57:35.147Z</time>
      </trkpt>
      <trkpt lat="45.58422" lon="4.61768">
        <ele>536.356626</ele>
        <time>2025-05-08T07:57:39.148Z</time>
      </trkpt>
      <trkpt lat="45.5843" lon="4.61758">
        <ele>536.622136</ele>
        <time>2025-05-08T07:57:43.154Z</time>
      </trkpt>
      <trkpt lat="45.58439" lon="4.61749">
        <ele>536.891787</ele>
        <time>2025-05-08T07:57:47.126Z</time>
      </trkpt>
      <trkpt lat="45.58449" lon="4.61741">
        <ele>537.158476</ele>
        <time>2025-05-08T07:57:51.125Z</time>
      </trkpt>
      <trkpt lat="45.58458" lon="4.61733">
        <ele>537.416876</ele>
        <time>2025-05-08T07:57:55.143Z</time>
      </trkpt>
      <trkpt lat="45.58467" lon="4.61725">
        <ele>537.680286</ele>
        <time>2025-05-08T07:57:59.154Z</time>
      </trkpt>
      <trkpt lat="45.58476" lon="4.61718">
        <ele>537.922208</ele>
        <time>2025-05-08T07:58:03.148Z</time>
      </trkpt>
      <trkpt lat="45.58485" lon="4.61709">
        <ele>538.186254</ele>
        <time>2025-05-08T07:58:07.150Z</time>
      </trkpt>
      <trkpt lat="45.58494" lon="4.61701">
        <ele>538.449145</ele>
        <time>2025-05-08T07:58:11.152Z</time>
      </trkpt>
      <trkpt lat="45.58503" lon="4.61691">
        <ele>538.717594</ele>
        <time>2025-05-08T07:58:15.156Z</time>
      </trkpt>
      <trkpt lat="45.58511" lon="4.61679">
        <ele>538.989431</ele>
        <time>2025-05-08T07:58:19.158Z</time>
      </trkpt>
      <trkpt lat="45.58517" lon="4.61669">
        <ele>539.21652</ele>
        <time>2025-05-08T07:58:22.140Z</time>
      </trkpt>
      <trkpt lat="45.58523" lon="4.61655">
        <ele>539.493855</ele>
        <time>2025-05-08T07:58:26.143Z</time>
      </trkpt>
      <trkpt lat="45.58527" lon="4.61642">
        <ele>539.504603</ele>
        <time>2025-05-08T07:58:29.139Z</time>
      </trkpt>
      <trkpt lat="45.5853" lon="4.61628">
        <ele>539.514988</ele>
        <time>2025-05-08T07:58:32.139Z</time>
      </trkpt>
      <trkpt lat="45.58532" lon="4.61615">
        <ele>539.525006</ele>
        <time>2025-05-08T07:58:35.152Z</time>
      </trkpt>
      <trkpt lat="45.58533" lon="4.61602">
        <ele>539.534804</ele>
        <time>2025-05-08T07:58:38.126Z</time>
      </trkpt>
      <trkpt lat="45.58535" lon="4.61588">
        <ele>539.545024</ele>
        <time>2025-05-08T07:58:41.105Z</time>
      </trkpt>
      <trkpt lat="45.58536" lon="4.61574">
        <ele>539.555568</ele>
        <time>2025-05-08T07:58:44.137Z</time>
      </trkpt>
      <trkpt lat="45.58538" lon="4.61559">
        <ele>539.566534</ele>
        <time>2025-05-08T07:58:47.141Z</time>
      </trkpt>
      <trkpt lat="45.58539" lon="4.61544">
        <ele>539.577588</ele>
        <time>2025-05-08T07:58:50.134Z</time>
      </trkpt>
      <trkpt lat="45.58541" lon="4.6153">
        <ele>539.588379</ele>
        <time>2025-05-08T07:58:53.152Z</time>
      </trkpt>
      <trkpt lat="45.58542" lon="4.61516">
        <ele>539.598438</ele>
        <time>2025-05-08T07:58:56.139Z</time>
      </trkpt>
      <trkpt lat="45.58544" lon="4.61502">
        <ele>539.608893</ele>
        <time>2025-05-08T07:58:59.124Z</time>
      </trkpt>
      <trkpt lat="45.58545" lon="4.61487">
        <ele>539.62024</ele>
        <time>2025-05-08T07:59:02.151Z</time>
      </trkpt>
      <trkpt lat="45.58546" lon="4.61471">
        <ele>539.632007</ele>
        <time>2025-05-08T07:59:05.130Z</time>
      </trkpt>
      <trkpt lat="45.58545" lon="4.61455">
        <ele>539.644129</ele>
        <time>2025-05-08T07:59:08.148Z</time>
      </trkpt>
      <trkpt lat="45.58543" lon="4.61439">
        <ele>539.656014</ele>
        <time>2025-05-08T07:59:11.125Z</time>
      </trkpt>
      <trkpt lat="45.58541" lon="4.61424">
        <ele>539.667431</ele>
        <time>2025-05-08T07:59:14.132Z</time>
      </trkpt>
      <trkpt lat="45.58538" lon="4.61409">
        <ele>539.678623</ele>
        <time>2025-05-08T07:59:17.129Z</time>
      </trkpt>
      <trkpt lat="45.58534" lon="4.61394">
        <ele>539.612107</ele>
        <time>2025-05-08T07:59:20.132Z</time>
      </trkpt>
      <trkpt lat="45.58531" lon="4.61378">
        <ele>539.495969</ele>
        <time>2025-05-08T07:59:23.139Z</time>
      </trkpt>
      <trkpt lat="45.58527" lon="4.61361">
        <ele>539.380478</ele>
        <time>2025-05-08T07:59:26.134Z</time>
      </trkpt>
      <trkpt lat="45.58524" lon="4.61346">
        <ele>539.274207</ele>
        <time>2025-05-08T07:59:29.139Z</time>
      </trkpt>
      <trkpt lat="45.58521" lon="4.61333">
        <ele>539.177317</ele>
        <time>2025-05-08T07:59:32.145Z</time>
      </trkpt>
      <trkpt lat="45.58518" lon="4.6132">
        <ele>539.086103</ele>
        <time>2025-05-08T07:59:35.159Z</time>
      </trkpt>
      <trkpt lat="45.58515" lon="4.61307">
        <ele>538.992447</ele>
        <time>2025-05-08T07:59:38.134Z</time>
      </trkpt>
      <trkpt lat="45.58512" lon="4.61292">
        <ele>538.885609</ele>
        <time>2025-05-08T07:59:41.125Z</time>
      </trkpt>
      <trkpt lat="45.58509" lon="4.61276">
        <ele>538.778154</ele>
        <time>2025-05-08T07:59:44.133Z</time>
      </trkpt>
      <trkpt lat="45.58508" lon="4.6126">
        <ele>538.668592</ele>
        <time>2025-05-08T07:59:47.162Z</time>
      </trkpt>
      <trkpt lat="45.58508" lon="4.61245">
        <ele>538.566597</ele>
        <time>2025-05-08T07:59:50.142Z</time>
      </trkpt>
      <trkpt lat="45.58509" lon="4.6123">
        <ele>538.458122</ele>
        <time>2025-05-08T07:59:53.139Z</time>
      </trkpt>
      <trkpt lat="45.58512" lon="4.61213">
        <ele>538.34474</ele>
        <time>2025-05-08T07:59:56.128Z</time>
      </trkpt>
      <trkpt lat="45.58517" lon="4.61199">
        <ele>538.232649</ele>
        <time>2025-05-08T07:59:59.153Z</time>
      </trkpt>
      <trkpt lat="45.58522" lon="4.61185">
        <ele>538.124497</ele>
        <time>2025-05-08T08:00:02.140Z</time>
      </trkpt>
      <trkpt lat="45.58529" lon="4.61171">
        <ele>538.010831</ele>
        <time>2025-05-08T08:00:05.143Z</time>
      </trkpt>
      <trkpt lat="45.58536" lon="4.61158">
        <ele>537.855778</ele>
        <time>2025-05-08T08:00:08.144Z</time>
      </trkpt>
      <trkpt lat="45.58545" lon="4.61147">
        <ele>537.634637</ele>
        <time>2025-05-08T08:00:11.121Z</time>
      </trkpt>
      <trkpt lat="45.58552" lon="4.61138">
        <ele>537.442961</ele>
        <time>2025-05-08T08:00:14.136Z</time>
      </trkpt>
      <trkpt lat="45.58561" lon="4.61129">
        <ele>537.236346</ele>
        <time>2025-05-08T08:00:18.136Z</time>
      </trkpt>
      <trkpt lat="45.5857" lon="4.61123">
        <ele>537.055999</ele>
        <time>2025-05-08T08:00:21.123Z</time>
      </trkpt>
      <trkpt lat="45.58579" lon="4.61118">
        <ele>536.861029</ele>
        <time>2025-05-08T08:00:24.135Z</time>
      </trkpt>
      <trkpt lat="45.58589" lon="4.61114">
        <ele>536.654966</ele>
        <time>2025-05-08T08:00:27.157Z</time>
      </trkpt>
      <trkpt lat="45.586" lon="4.6111">
        <ele>536.446414</ele>
        <time>2025-05-08T08:00:30.120Z</time>
      </trkpt>
      <trkpt lat="45.58611" lon="4.61106">
        <ele>536.224329</ele>
        <time>2025-05-08T08:00:33.129Z</time>
      </trkpt>
      <trkpt lat="45.58622" lon="4.61103">
        <ele>536.006992</ele>
        <time>2025-05-08T08:00:36.140Z</time>
      </trkpt>
      <trkpt lat="45.58632" lon="4.61099">
        <ele>535.796843</ele>
        <time>2025-05-08T08:00:39.134Z</time>
      </trkpt>
      <trkpt lat="45.58641" lon="4.61096">
        <ele>535.616164</ele>
        <time>2025-05-08T08:00:42.139Z</time>
      </trkpt>
      <trkpt lat="45.58652" lon="4.61092">
        <ele>535.40194</ele>
        <time>2025-05-08T08:00:45.154Z</time>
      </trkpt>
      <trkpt lat="45.58664" lon="4.61089">
        <ele>535.175493</ele>
        <time>2025-05-08T08:00:48.136Z</time>
      </trkpt>
      <trkpt lat="45.58675" lon="4.61085">
        <ele>534.941476</ele>
        <time>2025-05-08T08:00:51.125Z</time>
      </trkpt>
      <trkpt lat="45.58688" lon="4.61081">
        <ele>534.688015</ele>
        <time>2025-05-08T08:00:54.134Z</time>
      </trkpt>
      <trkpt lat="45.58697" lon="4.61078">
        <ele>534.511188</ele>
        <time>2025-05-08T08:00:56.131Z</time>
      </trkpt>
      <trkpt lat="45.58706" lon="4.61074">
        <ele>534.281345</ele>
        <time>2025-05-08T08:00:58.166Z</time>
      </trkpt>
      <trkpt lat="45.58716" lon="4.61071">
        <ele>534.030163</ele>
        <time>2025-05-08T08:01:00.171Z</time>
      </trkpt>
      <trkpt lat="45.58725" lon="4.61068">
        <ele>533.795088</ele>
        <time>2025-05-08T08:01:02.155Z</time>
      </trkpt>
      <trkpt lat="45.58737" lon="4.61062">
        <ele>533.459314</ele>
        <time>2025-05-08T08:01:05.142Z</time>
      </trkpt>
      <trkpt lat="45.58749" lon="4.61057">
        <ele>533.139105</ele>
        <time>2025-05-08T08:01:08.139Z</time>
      </trkpt>
      <trkpt lat="45.58761" lon="4.61053">
        <ele>532.808646</ele>
        <time>2025-05-08T08:01:11.132Z</time>
      </trkpt>
      <trkpt lat="45.58771" lon="4.6105">
        <ele>532.568706</ele>
        <time>2025-05-08T08:01:13.146Z</time>
      </trkpt>
      <trkpt lat="45.58783" lon="4.61049">
        <ele>532.256435</ele>
        <time>2025-05-08T08:01:16.143Z</time>
      </trkpt>
      <trkpt lat="45.58792" lon="4.61049">
        <ele>532.019647</ele>
        <time>2025-05-08T08:01:18.148Z</time>
      </trkpt>
      <trkpt lat="45.58805" lon="4.61054">
        <ele>531.674711</ele>
        <time>2025-05-08T08:01:21.125Z</time>
      </trkpt>
      <trkpt lat="45.58813" lon="4.61059">
        <ele>531.435983</ele>
        <time>2025-05-08T08:01:23.157Z</time>
      </trkpt>
      <trkpt lat="45.58825" lon="4.61069">
        <ele>531.08984</ele>
        <time>2025-05-08T08:01:26.141Z</time>
      </trkpt>
      <trkpt lat="45.58832" lon="4.61077">
        <ele>530.85773</ele>
        <time>2025-05-08T08:01:28.140Z</time>
      </trkpt>
      <trkpt lat="45.58838" lon="4.61087">
        <ele>530.621015</ele>
        <time>2025-05-08T08:01:30.133Z</time>
      </trkpt>
      <trkpt lat="45.58843" lon="4.61098">
        <ele>530.384661</ele>
        <time>2025-05-08T08:01:32.133Z</time>
      </trkpt>
      <trkpt lat="45.58848" lon="4.61109">
        <ele>530.140643</ele>
        <time>2025-05-08T08:01:34.133Z</time>
      </trkpt>
      <trkpt lat="45.58855" lon="4.61126">
        <ele>529.828293</ele>
        <time>2025-05-08T08:01:37.148Z</time>
      </trkpt>
      <trkpt lat="45.58858" lon="4.61138">
        <ele>529.869005</ele>
        <time>2025-05-08T08:01:39.145Z</time>
      </trkpt>
      <trkpt lat="45.58863" lon="4.61149">
        <ele>529.912275</ele>
        <time>2025-05-08T08:01:41.126Z</time>
      </trkpt>
      <trkpt lat="45.58869" lon="4.61159">
        <ele>529.9538</ele>
        <time>2025-05-08T08:01:43.171Z</time>
      </trkpt>
      <trkpt lat="45.58876" lon="4.61168">
        <ele>529.996327</ele>
        <time>2025-05-08T08:01:45.136Z</time>
      </trkpt>
      <trkpt lat="45.58885" lon="4.61174">
        <ele>530.039369</ele>
        <time>2025-05-08T08:01:47.133Z</time>
      </trkpt>
      <trkpt lat="45.58897" lon="4.61182">
        <ele>530.097617</ele>
        <time>2025-05-08T08:01:50.157Z</time>
      </trkpt>
      <trkpt lat="45.58908" lon="4.61185">
        <ele>530.149011</ele>
        <time>2025-05-08T08:01:53.116Z</time>
      </trkpt>
      <trkpt lat="45.58918" lon="4.61187">
        <ele>530.19549</ele>
        <time>2025-05-08T08:01:56.119Z</time>
      </trkpt>
      <trkpt lat="45.58929" lon="4.61187">
        <ele>530.243325</ele>
        <time>2025-05-08T08:01:59.127Z</time>
      </trkpt>
      <trkpt lat="45.5894" lon="4.61183">
        <ele>530.295364</ele>
        <time>2025-05-08T08:02:02.149Z</time>
      </trkpt>
      <trkpt lat="45.5895" lon="4.61176">
        <ele>530.347891</ele>
        <time>2025-05-08T08:02:05.118Z</time>
      </trkpt>
      <trkpt lat="45.5896" lon="4.61167">
        <ele>530.400145</ele>
        <time>2025-05-08T08:02:08.157Z</time>
      </trkpt>
      <trkpt lat="45.58972" lon="4.61157">
        <ele>530.460642</ele>
        <time>2025-05-08T08:02:11.118Z</time>
      </trkpt>
      <trkpt lat="45.58979" lon="4.61149">
        <ele>530.5034</ele>
        <time>2025-05-08T08:02:13.147Z</time>
      </trkpt>
      <trkpt lat="45.58987" lon="4.61141">
        <ele>530.544535</ele>
        <time>2025-05-08T08:02:15.137Z</time>
      </trkpt>
      <trkpt lat="45.58997" lon="4.61129">
        <ele>530.604076</ele>
        <time>2025-05-08T08:02:18.138Z</time>
      </trkpt>
      <trkpt lat="45.59006" lon="4.61118">
        <ele>530.684576</ele>
        <time>2025-05-08T08:02:21.114Z</time>
      </trkpt>
      <trkpt lat="45.59017" lon="4.61108">
        <ele>530.796415</ele>
        <time>2025-05-08T08:02:24.136Z</time>
      </trkpt>
      <trkpt lat="45.59026" lon="4.61098">
        <ele>530.905398</ele>
        <time>2025-05-08T08:02:27.132Z</time>
      </trkpt>
      <trkpt lat="45.59036" lon="4.61087">
        <ele>531.019097</ele>
        <time>2025-05-08T08:02:30.137Z</time>
      </trkpt>
      <trkpt lat="45.59047" lon="4.61078">
        <ele>531.130798</ele>
        <time>2025-05-08T08:02:33.121Z</time>
      </trkpt>
      <trkpt lat="45.59057" lon="4.61067">
        <ele>531.241916</ele>
        <time>2025-05-08T08:02:36.139Z</time>
      </trkpt>
      <trkpt lat="45.59067" lon="4.61059">
        <ele>531.347522</ele>
        <time>2025-05-08T08:02:39.127Z</time>
      </trkpt>
      <trkpt lat="45.59076" lon="4.61048">
        <ele>531.453814</ele>
        <time>2025-05-08T08:02:42.149Z</time>
      </trkpt>
      <trkpt lat="45.59085" lon="4.61038">
        <ele>531.558298</ele>
        <time>2025-05-08T08:02:45.141Z</time>
      </trkpt>
      <trkpt lat="45.59093" lon="4.61028">
        <ele>531.649952</ele>
        <time>2025-05-08T08:02:48.130Z</time>
      </trkpt>
      <trkpt lat="45.59101" lon="4.61019">
        <ele>531.744665</ele>
        <time>2025-05-08T08:02:51.108Z</time>
      </trkpt>
      <trkpt lat="45.5911" lon="4.6101">
        <ele>531.838136</ele>
        <time>2025-05-08T08:02:54.147Z</time>
      </trkpt>
      <trkpt lat="45.59119" lon="4.61003">
        <ele>531.933735</ele>
        <time>2025-05-08T08:02:57.136Z</time>
      </trkpt>
      <trkpt lat="45.59129" lon="4.60997">
        <ele>532.02823</ele>
        <time>2025-05-08T08:03:00.139Z</time>
      </trkpt>
      <trkpt lat="45.59138" lon="4.60994">
        <ele>532.116168</ele>
        <time>2025-05-08T08:03:03.130Z</time>
      </trkpt>
      <trkpt lat="45.5915" lon="4.60992">
        <ele>532.223554</ele>
        <time>2025-05-08T08:03:07.123Z</time>
      </trkpt>
      <trkpt lat="45.5916" lon="4.60991">
        <ele>532.33157</ele>
        <time>2025-05-08T08:03:10.133Z</time>
      </trkpt>
      <trkpt lat="45.59169" lon="4.60992">
        <ele>532.451392</ele>
        <time>2025-05-08T08:03:13.143Z</time>
      </trkpt>
      <trkpt lat="45.59179" lon="4.60992">
        <ele>532.568696</ele>
        <time>2025-05-08T08:03:16.140Z</time>
      </trkpt>
      <trkpt lat="45.59191" lon="4.60992">
        <ele>532.718091</ele>
        <time>2025-05-08T08:03:20.144Z</time>
      </trkpt>
      <trkpt lat="45.59201" lon="4.6099">
        <ele>532.837616</ele>
        <time>2025-05-08T08:03:23.122Z</time>
      </trkpt>
      <trkpt lat="45.59212" lon="4.60986">
        <ele>532.986537</ele>
        <time>2025-05-08T08:03:27.139Z</time>
      </trkpt>
      <trkpt lat="45.5922" lon="4.6098">
        <ele>533.099871</ele>
        <time>2025-05-08T08:03:30.143Z</time>
      </trkpt>
      <trkpt lat="45.5923" lon="4.60974">
        <ele>533.225809</ele>
        <time>2025-05-08T08:03:33.130Z</time>
      </trkpt>
      <trkpt lat="45.59237" lon="4.60965">
        <ele>533.34586</ele>
        <time>2025-05-08T08:03:36.134Z</time>
      </trkpt>
      <trkpt lat="45.59245" lon="4.60956">
        <ele>533.470711</ele>
        <time>2025-05-08T08:03:39.154Z</time>
      </trkpt>
      <trkpt lat="45.59253" lon="4.60947">
        <ele>533.594895</ele>
        <time>2025-05-08T08:03:42.138Z</time>
      </trkpt>
      <trkpt lat="45.59264" lon="4.6094">
        <ele>533.740528</ele>
        <time>2025-05-08T08:03:46.123Z</time>
      </trkpt>
      <trkpt lat="45.59272" lon="4.60936">
        <ele>533.852833</ele>
        <time>2025-05-08T08:03:49.119Z</time>
      </trkpt>
      <trkpt lat="45.59282" lon="4.60933">
        <ele>533.977125</ele>
        <time>2025-05-08T08:03:52.138Z</time>
      </trkpt>
      <trkpt lat="45.59293" lon="4.6093">
        <ele>534.106097</ele>
        <time>2025-05-08T08:03:55.145Z</time>
      </trkpt>
      <trkpt lat="45.59303" lon="4.60927">
        <ele>534.234192</ele>
        <time>2025-05-08T08:03:58.148Z</time>
      </trkpt>
      <trkpt lat="45.59312" lon="4.60923">
        <ele>534.354786</ele>
        <time>2025-05-08T08:04:01.128Z</time>
      </trkpt>
      <trkpt lat="45.59323" lon="4.60916">
        <ele>534.446847</ele>
        <time>2025-05-08T08:04:05.150Z</time>
      </trkpt>
      <trkpt lat="45.59331" lon="4.60911">
        <ele>534.304216</ele>
        <time>2025-05-08T08:04:08.126Z</time>
      </trkpt>
      <trkpt lat="45.5934" lon="4.60903">
        <ele>534.141278</ele>
        <time>2025-05-08T08:04:11.135Z</time>
      </trkpt>
      <trkpt lat="45.59349" lon="4.60895">
        <ele>533.975866</ele>
        <time>2025-05-08T08:04:14.187Z</time>
      </trkpt>
      <trkpt lat="45.59358" lon="4.60889">
        <ele>533.836048</ele>
        <time>2025-05-08T08:04:17.114Z</time>
      </trkpt>
      <trkpt lat="45.59368" lon="4.60884">
        <ele>533.668139</ele>
        <time>2025-05-08T08:04:21.126Z</time>
      </trkpt>
      <trkpt lat="45.59377" lon="4.60883">
        <ele>533.5278</ele>
        <time>2025-05-08T08:04:24.147Z</time>
      </trkpt>
      <trkpt lat="45.59386" lon="4.6088">
        <ele>533.387611</ele>
        <time>2025-05-08T08:04:27.137Z</time>
      </trkpt>
      <trkpt lat="45.59396" lon="4.60875">
        <ele>533.222635</ele>
        <time>2025-05-08T08:04:30.129Z</time>
      </trkpt>
      <trkpt lat="45.59407" lon="4.60866">
        <ele>533.030939</ele>
        <time>2025-05-08T08:04:33.133Z</time>
      </trkpt>
      <trkpt lat="45.59415" lon="4.6085">
        <ele>532.818198</ele>
        <time>2025-05-08T08:04:36.158Z</time>
      </trkpt>
      <trkpt lat="45.5942" lon="4.60832">
        <ele>532.61297</ele>
        <time>2025-05-08T08:04:39.148Z</time>
      </trkpt>
      <trkpt lat="45.59423" lon="4.60813">
        <ele>532.404643</ele>
        <time>2025-05-08T08:04:42.163Z</time>
      </trkpt>
      <trkpt lat="45.59423" lon="4.60799">
        <ele>532.256508</ele>
        <time>2025-05-08T08:04:44.128Z</time>
      </trkpt>
      <trkpt lat="45.59422" lon="4.60785">
        <ele>532.109126</ele>
        <time>2025-05-08T08:04:46.141Z</time>
      </trkpt>
      <trkpt lat="45.59421" lon="4.60772">
        <ele>531.964368</ele>
        <time>2025-05-08T08:04:48.144Z</time>
      </trkpt>
      <trkpt lat="45.59418" lon="4.60758">
        <ele>531.811659</ele>
        <time>2025-05-08T08:04:50.134Z</time>
      </trkpt>
      <trkpt lat="45.59414" lon="4.60746">
        <ele>531.627213</ele>
        <time>2025-05-08T08:04:52.159Z</time>
      </trkpt>
      <trkpt lat="45.59407" lon="4.60736">
        <ele>531.393542</ele>
        <time>2025-05-08T08:04:54.140Z</time>
      </trkpt>
      <trkpt lat="45.59401" lon="4.60727">
        <ele>531.171399</ele>
        <time>2025-05-08T08:04:56.134Z</time>
      </trkpt>
      <trkpt lat="45.5939" lon="4.60717">
        <ele>530.865446</ele>
        <time>2025-05-08T08:04:59.145Z</time>
      </trkpt>
      <trkpt lat="45.5938" lon="4.60711">
        <ele>530.592436</ele>
        <time>2025-05-08T08:05:02.124Z</time>
      </trkpt>
      <trkpt lat="45.5937" lon="4.60708">
        <ele>530.32818</ele>
        <time>2025-05-08T08:05:05.144Z</time>
      </trkpt>
      <trkpt lat="45.59358" lon="4.60707">
        <ele>530.033139</ele>
        <time>2025-05-08T08:05:08.133Z</time>
      </trkpt>
      <trkpt lat="45.59346" lon="4.60706">
        <ele>529.743181</ele>
        <time>2025-05-08T08:05:11.109Z</time>
      </trkpt>
      <trkpt lat="45.59334" lon="4.60705">
        <ele>529.452553</ele>
        <time>2025-05-08T08:05:14.132Z</time>
      </trkpt>
      <trkpt lat="45.59322" lon="4.60704">
        <ele>529.145259</ele>
        <time>2025-05-08T08:05:17.151Z</time>
      </trkpt>
      <trkpt lat="45.5931" lon="4.60702">
        <ele>528.856233</ele>
        <time>2025-05-08T08:05:20.148Z</time>
      </trkpt>
      <trkpt lat="45.59298" lon="4.607">
        <ele>528.559492</ele>
        <time>2025-05-08T08:05:23.128Z</time>
      </trkpt>
      <trkpt lat="45.59288" lon="4.60699">
        <ele>528.32813</ele>
        <time>2025-05-08T08:05:25.139Z</time>
      </trkpt>
      <trkpt lat="45.59275" lon="4.60695">
        <ele>527.994879</ele>
        <time>2025-05-08T08:05:28.135Z</time>
      </trkpt>
      <trkpt lat="45.59262" lon="4.6069">
        <ele>527.674527</ele>
        <time>2025-05-08T08:05:31.133Z</time>
      </trkpt>
      <trkpt lat="45.59254" lon="4.60688">
        <ele>527.450845</ele>
        <time>2025-05-08T08:05:33.172Z</time>
      </trkpt>
      <trkpt lat="45.59244" lon="4.60685">
        <ele>527.544087</ele>
        <time>2025-05-08T08:05:35.141Z</time>
      </trkpt>
      <trkpt lat="45.59231" lon="4.6068">
        <ele>528.381164</ele>
        <time>2025-05-08T08:05:38.147Z</time>
      </trkpt>
      <trkpt lat="45.59222" lon="4.60675">
        <ele>528.960911</ele>
        <time>2025-05-08T08:05:40.127Z</time>
      </trkpt>
      <trkpt lat="45.59213" lon="4.60669">
        <ele>529.560708</ele>
        <time>2025-05-08T08:05:42.141Z</time>
      </trkpt>
      <trkpt lat="45.59206" lon="4.60661">
        <ele>530.1577</ele>
        <time>2025-05-08T08:05:44.140Z</time>
      </trkpt>
      <trkpt lat="45.59199" lon="4.60651">
        <ele>530.746959</ele>
        <time>2025-05-08T08:05:46.157Z</time>
      </trkpt>
      <trkpt lat="45.59191" lon="4.60639">
        <ele>531.460607</ele>
        <time>2025-05-08T08:05:49.143Z</time>
      </trkpt>
      <trkpt lat="45.5919" lon="4.60626">
        <ele>532.020542</ele>
        <time>2025-05-08T08:05:53.134Z</time>
      </trkpt>
      <trkpt lat="45.59199" lon="4.60624">
        <ele>532.574126</ele>
        <time>2025-05-08T08:05:58.144Z</time>
      </trkpt>
      <trkpt lat="45.59209" lon="4.60624">
        <ele>533.209275</ele>
        <time>2025-05-08T08:06:04.166Z</time>
      </trkpt>
      <trkpt lat="45.59219" lon="4.60624">
        <ele>533.825811</ele>
        <time>2025-05-08T08:06:10.143Z</time>
      </trkpt>
      <trkpt lat="45.59228" lon="4.60624">
        <ele>534.386845</ele>
        <time>2025-05-08T08:06:16.123Z</time>
      </trkpt>
      <trkpt lat="45.59237" lon="4.60625">
        <ele>534.938408</ele>
        <time>2025-05-08T08:06:22.127Z</time>
      </trkpt>
      <trkpt lat="45.59246" lon="4.60627">
        <ele>535.498685</ele>
        <time>2025-05-08T08:06:28.140Z</time>
      </trkpt>
      <trkpt lat="45.59255" lon="4.60628">
        <ele>536.066475</ele>
        <time>2025-05-08T08:06:34.129Z</time>
      </trkpt>
      <trkpt lat="45.59266" lon="4.60629">
        <ele>536.693984</ele>
        <time>2025-05-08T08:06:41.139Z</time>
      </trkpt>
      <trkpt lat="45.59275" lon="4.6063">
        <ele>537.275454</ele>
        <time>2025-05-08T08:06:47.127Z</time>
      </trkpt>
      <trkpt lat="45.59285" lon="4.60632">
        <ele>537.908083</ele>
        <time>2025-05-08T08:06:54.154Z</time>
      </trkpt>
      <trkpt lat="45.59294" lon="4.60633">
        <ele>538.515141</ele>
        <time>2025-05-08T08:07:00.136Z</time>
      </trkpt>
      <trkpt lat="45.59304" lon="4.60634">
        <ele>539.594626</ele>
        <time>2025-05-08T08:07:07.164Z</time>
      </trkpt>
      <trkpt lat="45.59314" lon="4.60634">
        <ele>540.599719</ele>
        <time>2025-05-08T08:07:13.148Z</time>
      </trkpt>
      <trkpt lat="45.59323" lon="4.60635">
        <ele>541.57948</ele>
        <time>2025-05-08T08:07:19.147Z</time>
      </trkpt>
      <trkpt lat="45.59333" lon="4.60637">
        <ele>542.578547</ele>
        <time>2025-05-08T08:07:26.151Z</time>
      </trkpt>
      <trkpt lat="45.59342" lon="4.60637">
        <ele>543.531894</ele>
        <time>2025-05-08T08:07:33.125Z</time>
      </trkpt>
      <trkpt lat="45.59352" lon="4.60638">
        <ele>544.622205</ele>
        <time>2025-05-08T08:07:41.130Z</time>
      </trkpt>
      <trkpt lat="45.59362" lon="4.60634">
        <ele>545.689152</ele>
        <time>2025-05-08T08:07:47.145Z</time>
      </trkpt>
      <trkpt lat="45.59371" lon="4.60636">
        <ele>546.668913</ele>
        <time>2025-05-08T08:07:51.119Z</time>
      </trkpt>
      <trkpt lat="45.59382" lon="4.60637">
        <ele>547.827173</ele>
        <time>2025-05-08T08:07:56.125Z</time>
      </trkpt>
      <trkpt lat="45.59392" lon="4.60638">
        <ele>548.854038</ele>
        <time>2025-05-08T08:08:01.116Z</time>
      </trkpt>
      <trkpt lat="45.59397" lon="4.60626">
        <ele>549.867804</ele>
        <time>2025-05-08T08:08:07.146Z</time>
      </trkpt>
      <trkpt lat="45.59396" lon="4.60612">
        <ele>550.853904</ele>
        <time>2025-05-08T08:08:13.133Z</time>
      </trkpt>
      <trkpt lat="45.59395" lon="4.60598">
        <ele>551.915013</ele>
        <time>2025-05-08T08:08:21.121Z</time>
      </trkpt>
      <trkpt lat="45.59395" lon="4.60583">
        <ele>552.97718</ele>
        <time>2025-05-08T08:08:28.153Z</time>
      </trkpt>
      <trkpt lat="45.59395" lon="4.6057">
        <ele>553.973419</ele>
        <time>2025-05-08T08:08:35.124Z</time>
      </trkpt>
      <trkpt lat="45.59394" lon="4.60556">
        <ele>555.011576</ele>
        <time>2025-05-08T08:08:42.138Z</time>
      </trkpt>
      <trkpt lat="45.59392" lon="4.60542">
        <ele>556.03459</ele>
        <time>2025-05-08T08:08:49.117Z</time>
      </trkpt>
      <trkpt lat="45.59392" lon="4.60528">
        <ele>557.089484</ele>
        <time>2025-05-08T08:08:56.141Z</time>
      </trkpt>
      <trkpt lat="45.59391" lon="4.60513">
        <ele>558.145812</ele>
        <time>2025-05-08T08:09:03.137Z</time>
      </trkpt>
      <trkpt lat="45.59392" lon="4.60499">
        <ele>559.10764</ele>
        <time>2025-05-08T08:09:08.145Z</time>
      </trkpt>
      <trkpt lat="45.59391" lon="4.60485">
        <ele>560.086092</ele>
        <time>2025-05-08T08:09:13.147Z</time>
      </trkpt>
      <trkpt lat="45.5939" lon="4.60471">
        <ele>561.086537</ele>
        <time>2025-05-08T08:09:19.138Z</time>
      </trkpt>
      <trkpt lat="45.59388" lon="4.60459">
        <ele>561.99489</ele>
        <time>2025-05-08T08:09:24.143Z</time>
      </trkpt>
      <trkpt lat="45.59381" lon="4.60448">
        <ele>563.024142</ele>
        <time>2025-05-08T08:09:29.128Z</time>
      </trkpt>
      <trkpt lat="45.59375" lon="4.60438">
        <ele>563.938952</ele>
        <time>2025-05-08T08:09:34.123Z</time>
      </trkpt>
      <trkpt lat="45.59371" lon="4.60425">
        <ele>564.931515</ele>
        <time>2025-05-08T08:09:40.127Z</time>
      </trkpt>
      <trkpt lat="45.59367" lon="4.60413">
        <ele>565.854084</ele>
        <time>2025-05-08T08:09:45.124Z</time>
      </trkpt>
      <trkpt lat="45.59364" lon="4.60401">
        <ele>566.770163</ele>
        <time>2025-05-08T08:09:51.129Z</time>
      </trkpt>
      <trkpt lat="45.59358" lon="4.60391">
        <ele>567.747503</ele>
        <time>2025-05-08T08:09:57.156Z</time>
      </trkpt>
      <trkpt lat="45.59361" lon="4.60377">
        <ele>568.761848</ele>
        <time>2025-05-08T08:10:09.131Z</time>
      </trkpt>
      <trkpt lat="45.59368" lon="4.60368">
        <ele>569.740045</ele>
        <time>2025-05-08T08:10:15.128Z</time>
      </trkpt>
      <trkpt lat="45.59369" lon="4.60355">
        <ele>570.676431</ele>
        <time>2025-05-08T08:10:20.141Z</time>
      </trkpt>
      <trkpt lat="45.59367" lon="4.60343">
        <ele>571.588265</ele>
        <time>2025-05-08T08:10:26.124Z</time>
      </trkpt>
      <trkpt lat="45.59369" lon="4.60329">
        <ele>572.595529</ele>
        <time>2025-05-08T08:10:33.137Z</time>
      </trkpt>
      <trkpt lat="45.59378" lon="4.60322">
        <ele>573.628266</ele>
        <time>2025-05-08T08:10:39.146Z</time>
      </trkpt>
      <trkpt lat="45.59387" lon="4.60317">
        <ele>574.581966</ele>
        <time>2025-05-08T08:10:45.141Z</time>
      </trkpt>
      <trkpt lat="45.59396" lon="4.60313">
        <ele>575.437942</ele>
        <time>2025-05-08T08:10:51.127Z</time>
      </trkpt>
      <trkpt lat="45.59404" lon="4.60309">
        <ele>575.892047</ele>
        <time>2025-05-08T08:10:57.131Z</time>
      </trkpt>
      <trkpt lat="45.59412" lon="4.60304">
        <ele>576.353353</ele>
        <time>2025-05-08T08:11:03.127Z</time>
      </trkpt>
      <trkpt lat="45.59422" lon="4.60298">
        <ele>576.87085</ele>
        <time>2025-05-08T08:11:10.131Z</time>
      </trkpt>
      <trkpt lat="45.59431" lon="4.60295">
        <ele>577.326709</ele>
        <time>2025-05-08T08:11:19.135Z</time>
      </trkpt>
      <trkpt lat="45.59425" lon="4.60283">
        <ele>577.825231</ele>
        <time>2025-05-08T08:11:27.135Z</time>
      </trkpt>
      <trkpt lat="45.59424" lon="4.60269">
        <ele>578.332425</ele>
        <time>2025-05-08T08:11:33.130Z</time>
      </trkpt>
      <trkpt lat="45.59423" lon="4.60255">
        <ele>578.822845</ele>
        <time>2025-05-08T08:11:38.141Z</time>
      </trkpt>
      <trkpt lat="45.59422" lon="4.60239">
        <ele>579.382614</ele>
        <time>2025-05-08T08:11:42.129Z</time>
      </trkpt>
      <trkpt lat="45.59423" lon="4.60224">
        <ele>579.948638</ele>
        <time>2025-05-08T08:11:46.124Z</time>
      </trkpt>
      <trkpt lat="45.59423" lon="4.6021">
        <ele>580.424544</ele>
        <time>2025-05-08T08:11:49.141Z</time>
      </trkpt>
      <trkpt lat="45.59423" lon="4.60194">
        <ele>580.993226</ele>
        <time>2025-05-08T08:11:52.141Z</time>
      </trkpt>
      <trkpt lat="45.59423" lon="4.60178">
        <ele>581.554241</ele>
        <time>2025-05-08T08:11:56.127Z</time>
      </trkpt>
      <trkpt lat="45.59422" lon="4.60163">
        <ele>582.095477</ele>
        <time>2025-05-08T08:12:01.107Z</time>
      </trkpt>
      <trkpt lat="45.59419" lon="4.60148">
        <ele>582.636427</ele>
        <time>2025-05-08T08:12:06.153Z</time>
      </trkpt>
      <trkpt lat="45.59416" lon="4.60136">
        <ele>583.101457</ele>
        <time>2025-05-08T08:12:10.140Z</time>
      </trkpt>
      <trkpt lat="45.59415" lon="4.60121">
        <ele>583.649712</ele>
        <time>2025-05-08T08:12:15.121Z</time>
      </trkpt>
      <trkpt lat="45.59413" lon="4.60106">
        <ele>584.191249</ele>
        <time>2025-05-08T08:12:20.135Z</time>
      </trkpt>
      <trkpt lat="45.59413" lon="4.6009">
        <ele>585.215039</ele>
        <time>2025-05-08T08:12:25.140Z</time>
      </trkpt>
      <trkpt lat="45.59412" lon="4.60075">
        <ele>586.799398</ele>
        <time>2025-05-08T08:12:30.140Z</time>
      </trkpt>
      <trkpt lat="45.59412" lon="4.6006">
        <ele>588.379111</ele>
        <time>2025-05-08T08:12:35.131Z</time>
      </trkpt>
      <trkpt lat="45.59411" lon="4.60047">
        <ele>589.783936</ele>
        <time>2025-05-08T08:12:40.137Z</time>
      </trkpt>
      <trkpt lat="45.5941" lon="4.60031">
        <ele>591.386094</ele>
        <time>2025-05-08T08:12:46.149Z</time>
      </trkpt>
      <trkpt lat="45.5941" lon="4.60017">
        <ele>592.880472</ele>
        <time>2025-05-08T08:12:52.149Z</time>
      </trkpt>
      <trkpt lat="45.5941" lon="4.60003">
        <ele>594.408272</ele>
        <time>2025-05-08T08:12:58.138Z</time>
      </trkpt>
      <trkpt lat="45.5941" lon="4.59988">
        <ele>595.902952</ele>
        <time>2025-05-08T08:13:04.136Z</time>
      </trkpt>
      <trkpt lat="45.59411" lon="4.59974">
        <ele>597.448305</ele>
        <time>2025-05-08T08:13:10.140Z</time>
      </trkpt>
      <trkpt lat="45.59413" lon="4.59961">
        <ele>598.797729</ele>
        <time>2025-05-08T08:13:16.125Z</time>
      </trkpt>
      <trkpt lat="45.59417" lon="4.59947">
        <ele>600.424059</ele>
        <time>2025-05-08T08:13:27.126Z</time>
      </trkpt>
      <trkpt lat="45.59421" lon="4.59935">
        <ele>601.81021</ele>
        <time>2025-05-08T08:13:33.133Z</time>
      </trkpt>
      <trkpt lat="45.59425" lon="4.59922">
        <ele>603.36794</ele>
        <time>2025-05-08T08:13:41.133Z</time>
      </trkpt>
      <trkpt lat="45.59431" lon="4.5991">
        <ele>604.799557</ele>
        <time>2025-05-08T08:13:48.129Z</time>
      </trkpt>
      <trkpt lat="45.59437" lon="4.59899">
        <ele>606.31472</ele>
        <time>2025-05-08T08:13:55.128Z</time>
      </trkpt>
      <trkpt lat="45.59444" lon="4.5989">
        <ele>607.756594</ele>
        <time>2025-05-08T08:14:02.147Z</time>
      </trkpt>
      <trkpt lat="45.59451" lon="4.59879">
        <ele>609.257202</ele>
        <time>2025-05-08T08:14:09.135Z</time>
      </trkpt>
      <trkpt lat="45.59459" lon="4.59871">
        <ele>610.757004</ele>
        <time>2025-05-08T08:14:16.139Z</time>
      </trkpt>
      <trkpt lat="45.59467" lon="4.59866">
        <ele>612.130017</ele>
        <time>2025-05-08T08:14:23.123Z</time>
      </trkpt>
      <trkpt lat="45.59476" lon="4.5986">
        <ele>613.432969</ele>
        <time>2025-05-08T08:14:30.149Z</time>
      </trkpt>
      <trkpt lat="45.59485" lon="4.59854">
        <ele>614.88827</ele>
        <time>2025-05-08T08:14:38.135Z</time>
      </trkpt>
      <trkpt lat="45.59493" lon="4.59848">
        <ele>616.204307</ele>
        <time>2025-05-08T08:14:45.142Z</time>
      </trkpt>
      <trkpt lat="45.59501" lon="4.59841">
        <ele>617.555335</ele>
        <time>2025-05-08T08:14:52.139Z</time>
      </trkpt>
      <trkpt lat="45.59509" lon="4.59834">
        <ele>618.974468</ele>
        <time>2025-05-08T08:15:00.139Z</time>
      </trkpt>
      <trkpt lat="45.59517" lon="4.59825">
        <ele>620.38119</ele>
        <time>2025-05-08T08:15:08.140Z</time>
      </trkpt>
      <trkpt lat="45.59524" lon="4.59817">
        <ele>621.685886</ele>
        <time>2025-05-08T08:15:16.121Z</time>
      </trkpt>
      <trkpt lat="45.59531" lon="4.59809">
        <ele>623.028965</ele>
        <time>2025-05-08T08:15:24.138Z</time>
      </trkpt>
      <trkpt lat="45.59538" lon="4.598">
        <ele>624.375629</ele>
        <time>2025-05-08T08:15:31.117Z</time>
      </trkpt>
      <trkpt lat="45.59543" lon="4.59788">
        <ele>625.736828</ele>
        <time>2025-05-08T08:15:39.123Z</time>
      </trkpt>
      <trkpt lat="45.59544" lon="4.59773">
        <ele>627.216142</ele>
        <time>2025-05-08T08:15:47.139Z</time>
      </trkpt>
      <trkpt lat="45.59544" lon="4.59759">
        <ele>628.656315</ele>
        <time>2025-05-08T08:15:54.123Z</time>
      </trkpt>
      <trkpt lat="45.59544" lon="4.59744">
        <ele>630.140059</ele>
        <time>2025-05-08T08:16:01.124Z</time>
      </trkpt>
      <trkpt lat="45.59545" lon="4.59731">
        <ele>631.469089</ele>
        <time>2025-05-08T08:16:08.139Z</time>
      </trkpt>
      <trkpt lat="45.59545" lon="4.59717">
        <ele>632.877923</ele>
        <time>2025-05-08T08:16:15.133Z</time>
      </trkpt>
      <trkpt lat="45.59544" lon="4.59702">
        <ele>634.348261</ele>
        <time>2025-05-08T08:16:22.137Z</time>
      </trkpt>
      <trkpt lat="45.59544" lon="4.59689">
        <ele>635.707085</ele>
        <time>2025-05-08T08:16:28.123Z</time>
      </trkpt>
      <trkpt lat="45.59545" lon="4.59675">
        <ele>637.077554</ele>
        <time>2025-05-08T08:16:34.149Z</time>
      </trkpt>
      <trkpt lat="45.59546" lon="4.59662">
        <ele>638.018306</ele>
        <time>2025-05-08T08:16:40.139Z</time>
      </trkpt>
      <trkpt lat="45.59548" lon="4.59648">
        <ele>638.888508</ele>
        <time>2025-05-08T08:16:46.151Z</time>
      </trkpt>
      <trkpt lat="45.59551" lon="4.59635">
        <ele>639.737581</ele>
        <time>2025-05-08T08:16:52.119Z</time>
      </trkpt>
      <trkpt lat="45.59552" lon="4.59621">
        <ele>640.576368</ele>
        <time>2025-05-08T08:16:57.151Z</time>
      </trkpt>
      <trkpt lat="45.59552" lon="4.59606">
        <ele>641.495777</ele>
        <time>2025-05-08T08:17:03.145Z</time>
      </trkpt>
      <trkpt lat="45.5955" lon="4.59592">
        <ele>642.339053</ele>
        <time>2025-05-08T08:17:08.134Z</time>
      </trkpt>
      <trkpt lat="45.59551" lon="4.59579">
        <ele>643.134457</ele>
        <time>2025-05-08T08:17:13.134Z</time>
      </trkpt>
      <trkpt lat="45.59551" lon="4.59566">
        <ele>643.957034</ele>
        <time>2025-05-08T08:17:19.129Z</time>
      </trkpt>
      <trkpt lat="45.59552" lon="4.59553">
        <ele>644.73809</ele>
        <time>2025-05-08T08:17:25.140Z</time>
      </trkpt>
      <trkpt lat="45.59553" lon="4.5954">
        <ele>645.523656</ele>
        <time>2025-05-08T08:17:31.121Z</time>
      </trkpt>
      <trkpt lat="45.59552" lon="4.59527">
        <ele>646.303892</ele>
        <time>2025-05-08T08:17:37.125Z</time>
      </trkpt>
      <trkpt lat="45.59551" lon="4.59513">
        <ele>647.193818</ele>
        <time>2025-05-08T08:17:43.128Z</time>
      </trkpt>
      <trkpt lat="45.5955" lon="4.59499">
        <ele>648.031855</ele>
        <time>2025-05-08T08:17:49.133Z</time>
      </trkpt>
      <trkpt lat="45.5955" lon="4.59485">
        <ele>648.865855</ele>
        <time>2025-05-08T08:17:55.127Z</time>
      </trkpt>
      <trkpt lat="45.5955" lon="4.59472">
        <ele>649.668457</ele>
        <time>2025-05-08T08:18:01.104Z</time>
      </trkpt>
      <trkpt lat="45.59551" lon="4.59459">
        <ele>650.458172</ele>
        <time>2025-05-08T08:18:07.093Z</time>
      </trkpt>
      <trkpt lat="45.59551" lon="4.59445">
        <ele>651.326559</ele>
        <time>2025-05-08T08:18:13.149Z</time>
      </trkpt>
      <trkpt lat="45.59549" lon="4.5943">
        <ele>652.211799</ele>
        <time>2025-05-08T08:18:19.148Z</time>
      </trkpt>
      <trkpt lat="45.59547" lon="4.59417">
        <ele>653.018649</ele>
        <time>2025-05-08T08:18:25.114Z</time>
      </trkpt>
      <trkpt lat="45.59543" lon="4.59405">
        <ele>653.820778</ele>
        <time>2025-05-08T08:18:34.135Z</time>
      </trkpt>
      <trkpt lat="45.59551" lon="4.59414">
        <ele>654.706797</ele>
        <time>2025-05-08T08:27:02.153Z</time>
      </trkpt>
      <trkpt lat="45.59554" lon="4.59427">
        <ele>655.519577</ele>
        <time>2025-05-08T08:27:05.113Z</time>
      </trkpt>
      <trkpt lat="45.5956" lon="4.5944">
        <ele>656.475199</ele>
        <time>2025-05-08T08:27:09.145Z</time>
      </trkpt>
      <trkpt lat="45.59564" lon="4.59452">
        <ele>657.299394</ele>
        <time>2025-05-08T08:27:13.115Z</time>
      </trkpt>
      <trkpt lat="45.5957" lon="4.59466">
        <ele>658.254157</ele>
        <time>2025-05-08T08:27:18.133Z</time>
      </trkpt>
      <trkpt lat="45.59575" lon="4.59479">
        <ele>659.144974</ele>
        <time>2025-05-08T08:27:23.133Z</time>
      </trkpt>
      <trkpt lat="45.5958" lon="4.59492">
        <ele>660.069939</ele>
        <time>2025-05-08T08:27:28.110Z</time>
      </trkpt>
      <trkpt lat="45.59585" lon="4.59505">
        <ele>661.008638</ele>
        <time>2025-05-08T08:27:33.119Z</time>
      </trkpt>
      <trkpt lat="45.59591" lon="4.59518">
        <ele>661.916318</ele>
        <time>2025-05-08T08:27:38.129Z</time>
      </trkpt>
      <trkpt lat="45.59596" lon="4.5953">
        <ele>662.757216</ele>
        <time>2025-05-08T08:27:43.130Z</time>
      </trkpt>
      <trkpt lat="45.59605" lon="4.59534">
        <ele>663.610881</ele>
        <time>2025-05-08T08:27:48.123Z</time>
      </trkpt>
      <trkpt lat="45.59616" lon="4.59538">
        <ele>664.544182</ele>
        <time>2025-05-08T08:27:53.124Z</time>
      </trkpt>
      <trkpt lat="45.59623" lon="4.59548">
        <ele>665.419561</ele>
        <time>2025-05-08T08:27:58.125Z</time>
      </trkpt>
      <trkpt lat="45.5963" lon="4.59556">
        <ele>666.213232</ele>
        <time>2025-05-08T08:28:03.103Z</time>
      </trkpt>
      <trkpt lat="45.59637" lon="4.59565">
        <ele>667.017218</ele>
        <time>2025-05-08T08:28:09.131Z</time>
      </trkpt>
      <trkpt lat="45.59646" lon="4.59569">
        <ele>667.844984</ele>
        <time>2025-05-08T08:28:17.127Z</time>
      </trkpt>
      <trkpt lat="45.59653" lon="4.5956">
        <ele>668.731294</ele>
        <time>2025-05-08T08:28:26.120Z</time>
      </trkpt>
      <trkpt lat="45.59656" lon="4.59547">
        <ele>670.323903</ele>
        <time>2025-05-08T08:28:33.112Z</time>
      </trkpt>
      <trkpt lat="45.5966" lon="4.59535">
        <ele>671.902103</ele>
        <time>2025-05-08T08:28:40.136Z</time>
      </trkpt>
      <trkpt lat="45.59664" lon="4.59522">
        <ele>673.465283</ele>
        <time>2025-05-08T08:28:48.150Z</time>
      </trkpt>
      <trkpt lat="45.59667" lon="4.59509">
        <ele>675.052913</ele>
        <time>2025-05-08T08:28:56.156Z</time>
      </trkpt>
      <trkpt lat="45.5967" lon="4.59497">
        <ele>676.553977</ele>
        <time>2025-05-08T08:29:03.121Z</time>
      </trkpt>
      <trkpt lat="45.59672" lon="4.59484">
        <ele>678.11618</ele>
        <time>2025-05-08T08:29:11.093Z</time>
      </trkpt>
      <trkpt lat="45.59674" lon="4.5947">
        <ele>679.704986</ele>
        <time>2025-05-08T08:29:19.131Z</time>
      </trkpt>
      <trkpt lat="45.59676" lon="4.59456">
        <ele>681.406443</ele>
        <time>2025-05-08T08:29:28.121Z</time>
      </trkpt>
      <trkpt lat="45.59678" lon="4.59442">
        <ele>683.071716</ele>
        <time>2025-05-08T08:29:36.135Z</time>
      </trkpt>
      <trkpt lat="45.59679" lon="4.59428">
        <ele>684.716866</ele>
        <time>2025-05-08T08:29:43.113Z</time>
      </trkpt>
      <trkpt lat="45.5968" lon="4.59415">
        <ele>686.213223</ele>
        <time>2025-05-08T08:29:49.100Z</time>
      </trkpt>
      <trkpt lat="45.59682" lon="4.59402">
        <ele>687.763932</ele>
        <time>2025-05-08T08:29:55.107Z</time>
      </trkpt>
      <trkpt lat="45.59683" lon="4.59378">
        <ele>690.55802</ele>
        <time>2025-05-08T08:31:04.119Z</time>
      </trkpt>
      <trkpt lat="45.59685" lon="4.59364">
        <ele>692.220027</ele>
        <time>2025-05-08T08:31:11.120Z</time>
      </trkpt>
      <trkpt lat="45.59687" lon="4.59351">
        <ele>693.771376</ele>
        <time>2025-05-08T08:31:17.125Z</time>
      </trkpt>
      <trkpt lat="45.5969" lon="4.59327">
        <ele>696.528004</ele>
        <time>2025-05-08T08:32:19.115Z</time>
      </trkpt>
      <trkpt lat="45.5969" lon="4.59314">
        <ele>698.145271</ele>
        <time>2025-05-08T08:32:25.119Z</time>
      </trkpt>
      <trkpt lat="45.59689" lon="4.593">
        <ele>699.988364</ele>
        <time>2025-05-08T08:32:31.127Z</time>
      </trkpt>
      <trkpt lat="45.59689" lon="4.59285">
        <ele>702.017393</ele>
        <time>2025-05-08T08:32:37.117Z</time>
      </trkpt>
      <trkpt lat="45.59691" lon="4.59271">
        <ele>703.833566</ele>
        <time>2025-05-08T08:32:43.140Z</time>
      </trkpt>
      <trkpt lat="45.59692" lon="4.59258">
        <ele>705.687278</ele>
        <time>2025-05-08T08:32:50.134Z</time>
      </trkpt>
      <trkpt lat="45.59694" lon="4.59243">
        <ele>707.693483</ele>
        <time>2025-05-08T08:32:57.123Z</time>
      </trkpt>
      <trkpt lat="45.59695" lon="4.59229">
        <ele>709.542366</ele>
        <time>2025-05-08T08:33:03.127Z</time>
      </trkpt>
      <trkpt lat="45.59696" lon="4.59216">
        <ele>711.329198</ele>
        <time>2025-05-08T08:33:09.122Z</time>
      </trkpt>
      <trkpt lat="45.59698" lon="4.59203">
        <ele>713.18562</ele>
        <time>2025-05-08T08:33:15.138Z</time>
      </trkpt>
      <trkpt lat="45.59699" lon="4.59188">
        <ele>715.159824</ele>
        <time>2025-05-08T08:33:22.137Z</time>
      </trkpt>
      <trkpt lat="45.59701" lon="4.59175">
        <ele>716.955701</ele>
        <time>2025-05-08T08:33:28.127Z</time>
      </trkpt>
      <trkpt lat="45.59702" lon="4.59162">
        <ele>718.728447</ele>
        <time>2025-05-08T08:33:34.135Z</time>
      </trkpt>
      <trkpt lat="45.59705" lon="4.59149">
        <ele>720.598652</ele>
        <time>2025-05-08T08:33:40.138Z</time>
      </trkpt>
      <trkpt lat="45.59709" lon="4.59135">
        <ele>722.581844</ele>
        <time>2025-05-08T08:33:46.123Z</time>
      </trkpt>
      <trkpt lat="45.59713" lon="4.59122">
        <ele>724.601791</ele>
        <time>2025-05-08T08:33:52.118Z</time>
      </trkpt>
      <trkpt lat="45.59717" lon="4.59108">
        <ele>726.568145</ele>
        <time>2025-05-08T08:33:58.127Z</time>
      </trkpt>
      <trkpt lat="45.59721" lon="4.59096">
        <ele>728.453532</ele>
        <time>2025-05-08T08:34:04.128Z</time>
      </trkpt>
      <trkpt lat="45.59724" lon="4.59082">
        <ele>730.346525</ele>
        <time>2025-05-08T08:34:10.116Z</time>
      </trkpt>
      <trkpt lat="45.59726" lon="4.59068">
        <ele>732.259167</ele>
        <time>2025-05-08T08:34:16.127Z</time>
      </trkpt>
      <trkpt lat="45.59726" lon="4.59054">
        <ele>733.944169</ele>
        <time>2025-05-08T08:34:22.127Z</time>
      </trkpt>
      <trkpt lat="45.59725" lon="4.5904">
        <ele>735.301552</ele>
        <time>2025-05-08T08:34:28.122Z</time>
      </trkpt>
      <trkpt lat="45.59723" lon="4.59026">
        <ele>736.695324</ele>
        <time>2025-05-08T08:34:34.126Z</time>
      </trkpt>
      <trkpt lat="45.59722" lon="4.59012">
        <ele>738.073095</ele>
        <time>2025-05-08T08:34:40.144Z</time>
      </trkpt>
      <trkpt lat="45.59721" lon="4.58998">
        <ele>739.441196</ele>
        <time>2025-05-08T08:34:46.132Z</time>
      </trkpt>
      <trkpt lat="45.59719" lon="4.58985">
        <ele>740.75058</ele>
        <time>2025-05-08T08:34:51.100Z</time>
      </trkpt>
      <trkpt lat="45.59718" lon="4.5897">
        <ele>742.213776</ele>
        <time>2025-05-08T08:34:57.128Z</time>
      </trkpt>
      <trkpt lat="45.59717" lon="4.58956">
        <ele>743.564675</ele>
        <time>2025-05-08T08:35:03.102Z</time>
      </trkpt>
      <trkpt lat="45.59717" lon="4.58943">
        <ele>744.835672</ele>
        <time>2025-05-08T08:35:09.108Z</time>
      </trkpt>
      <trkpt lat="45.59716" lon="4.58929">
        <ele>746.172494</ele>
        <time>2025-05-08T08:35:15.106Z</time>
      </trkpt>
      <trkpt lat="45.59723" lon="4.58911">
        <ele>748.142236</ele>
        <time>2025-05-08T08:35:45.136Z</time>
      </trkpt>
      <trkpt lat="45.59731" lon="4.58903">
        <ele>749.532047</ele>
        <time>2025-05-08T08:35:49.126Z</time>
      </trkpt>
      <trkpt lat="45.59739" lon="4.58894">
        <ele>750.951574</ele>
        <time>2025-05-08T08:35:54.129Z</time>
      </trkpt>
      <trkpt lat="45.59746" lon="4.58885">
        <ele>752.300052</ele>
        <time>2025-05-08T08:36:00.117Z</time>
      </trkpt>
      <trkpt lat="45.59755" lon="4.58878">
        <ele>753.687748</ele>
        <time>2025-05-08T08:36:07.102Z</time>
      </trkpt>
      <trkpt lat="45.59763" lon="4.58869">
        <ele>755.056307</ele>
        <time>2025-05-08T08:36:15.126Z</time>
      </trkpt>
      <trkpt lat="45.5977" lon="4.5886">
        <ele>756.411085</ele>
        <time>2025-05-08T08:36:23.124Z</time>
      </trkpt>
      <trkpt lat="45.59777" lon="4.58851">
        <ele>757.696518</ele>
        <time>2025-05-08T08:36:31.116Z</time>
      </trkpt>
      <trkpt lat="45.59783" lon="4.5884">
        <ele>758.560518</ele>
        <time>2025-05-08T08:36:39.118Z</time>
      </trkpt>
      <trkpt lat="45.59788" lon="4.58829">
        <ele>759.068444</ele>
        <time>2025-05-08T08:36:48.138Z</time>
      </trkpt>
      <trkpt lat="45.59793" lon="4.58817">
        <ele>759.567659</ele>
        <time>2025-05-08T08:36:57.109Z</time>
      </trkpt>
      <trkpt lat="45.59795" lon="4.58804">
        <ele>760.05781</ele>
        <time>2025-05-08T08:37:05.129Z</time>
      </trkpt>
      <trkpt lat="45.59796" lon="4.58783">
        <ele>760.794182</ele>
        <time>2025-05-08T08:40:27.130Z</time>
      </trkpt>
      <trkpt lat="45.59802" lon="4.5881">
        <ele>761.819297</ele>
        <time>2025-05-08T08:43:45.124Z</time>
      </trkpt>
      <trkpt lat="45.59803" lon="4.58824">
        <ele>762.334868</ele>
        <time>2025-05-08T08:43:49.110Z</time>
      </trkpt>
      <trkpt lat="45.59806" lon="4.58839">
        <ele>762.880173</ele>
        <time>2025-05-08T08:43:53.093Z</time>
      </trkpt>
      <trkpt lat="45.5981" lon="4.58852">
        <ele>763.405853</ele>
        <time>2025-05-08T08:43:58.112Z</time>
      </trkpt>
      <trkpt lat="45.59817" lon="4.58862">
        <ele>763.927439</ele>
        <time>2025-05-08T08:44:03.109Z</time>
      </trkpt>
      <trkpt lat="45.59824" lon="4.58872">
        <ele>764.415344</ele>
        <time>2025-05-08T08:44:07.113Z</time>
      </trkpt>
      <trkpt lat="45.59831" lon="4.58883">
        <ele>764.960744</ele>
        <time>2025-05-08T08:44:11.101Z</time>
      </trkpt>
      <trkpt lat="45.59839" lon="4.58891">
        <ele>765.479257</ele>
        <time>2025-05-08T08:44:15.118Z</time>
      </trkpt>
      <trkpt lat="45.59848" lon="4.589">
        <ele>766.044329</ele>
        <time>2025-05-08T08:44:19.125Z</time>
      </trkpt>
      <trkpt lat="45.59857" lon="4.58908">
        <ele>766.603017</ele>
        <time>2025-05-08T08:44:23.122Z</time>
      </trkpt>
      <trkpt lat="45.59867" lon="4.58918">
        <ele>767.193366</ele>
        <time>2025-05-08T08:44:27.119Z</time>
      </trkpt>
      <trkpt lat="45.59874" lon="4.58926">
        <ele>767.566708</ele>
        <time>2025-05-08T08:44:30.113Z</time>
      </trkpt>
      <trkpt lat="45.59882" lon="4.58935">
        <ele>767.377965</ele>
        <time>2025-05-08T08:44:33.125Z</time>
      </trkpt>
      <trkpt lat="45.59891" lon="4.58943">
        <ele>767.180644</ele>
        <time>2025-05-08T08:44:37.122Z</time>
      </trkpt>
      <trkpt lat="45.59899" lon="4.5895">
        <ele>766.996119</ele>
        <time>2025-05-08T08:44:41.108Z</time>
      </trkpt>
      <trkpt lat="45.59909" lon="4.58955">
        <ele>766.788942</ele>
        <time>2025-05-08T08:44:46.109Z</time>
      </trkpt>
      <trkpt lat="45.59919" lon="4.58955">
        <ele>766.60337</ele>
        <time>2025-05-08T08:44:51.119Z</time>
      </trkpt>
      <trkpt lat="45.59929" lon="4.58954">
        <ele>766.423009</ele>
        <time>2025-05-08T08:44:55.129Z</time>
      </trkpt>
      <trkpt lat="45.59938" lon="4.58949">
        <ele>766.229081</ele>
        <time>2025-05-08T08:44:59.141Z</time>
      </trkpt>
      <trkpt lat="45.59948" lon="4.5894">
        <ele>766.014954</ele>
        <time>2025-05-08T08:45:04.119Z</time>
      </trkpt>
      <trkpt lat="45.59956" lon="4.58931">
        <ele>765.81849</ele>
        <time>2025-05-08T08:45:09.136Z</time>
      </trkpt>
      <trkpt lat="45.59964" lon="4.58923">
        <ele>765.635934</ele>
        <time>2025-05-08T08:45:13.106Z</time>
      </trkpt>
      <trkpt lat="45.59968" lon="4.58911">
        <ele>765.464949</ele>
        <time>2025-05-08T08:45:16.125Z</time>
      </trkpt>
      <trkpt lat="45.59972" lon="4.58897">
        <ele>765.261727</ele>
        <time>2025-05-08T08:45:21.108Z</time>
      </trkpt>
      <trkpt lat="45.5998" lon="4.58889">
        <ele>765.065247</ele>
        <time>2025-05-08T08:45:25.101Z</time>
      </trkpt>
      <trkpt lat="45.59992" lon="4.58889">
        <ele>764.843655</ele>
        <time>2025-05-08T08:45:29.126Z</time>
      </trkpt>
      <trkpt lat="45.60002" lon="4.58892">
        <ele>764.647488</ele>
        <time>2025-05-08T08:45:33.096Z</time>
      </trkpt>
      <trkpt lat="45.60012" lon="4.58898">
        <ele>764.441885</ele>
        <time>2025-05-08T08:45:36.120Z</time>
      </trkpt>
      <trkpt lat="45.6002" lon="4.58906">
        <ele>764.252337</ele>
        <time>2025-05-08T08:45:40.128Z</time>
      </trkpt>
      <trkpt lat="45.60032" lon="4.58907">
        <ele>764.233281</ele>
        <time>2025-05-08T08:45:47.100Z</time>
      </trkpt>
      <trkpt lat="45.60041" lon="4.58912">
        <ele>764.280659</ele>
        <time>2025-05-08T08:45:50.128Z</time>
      </trkpt>
      <trkpt lat="45.60051" lon="4.58912">
        <ele>764.330554</ele>
        <time>2025-05-08T08:45:53.110Z</time>
      </trkpt>
      <trkpt lat="45.60062" lon="4.58913">
        <ele>764.385455</ele>
        <time>2025-05-08T08:45:56.125Z</time>
      </trkpt>
      <trkpt lat="45.60074" lon="4.58916">
        <ele>764.444268</ele>
        <time>2025-05-08T08:45:59.116Z</time>
      </trkpt>
      <trkpt lat="45.60086" lon="4.5892">
        <ele>764.508058</ele>
        <time>2025-05-08T08:46:02.102Z</time>
      </trkpt>
      <trkpt lat="45.601" lon="4.58923">
        <ele>764.576335</ele>
        <time>2025-05-08T08:46:05.124Z</time>
      </trkpt>
      <trkpt lat="45.6011" lon="4.58924">
        <ele>764.62889</ele>
        <time>2025-05-08T08:46:08.118Z</time>
      </trkpt>
      <trkpt lat="45.6012" lon="4.58926">
        <ele>764.675131</ele>
        <time>2025-05-08T08:46:12.123Z</time>
      </trkpt>
      <trkpt lat="45.60129" lon="4.58924">
        <ele>764.722362</ele>
        <time>2025-05-08T08:46:18.119Z</time>
      </trkpt>
      <trkpt lat="45.60134" lon="4.58913">
        <ele>764.767558</ele>
        <time>2025-05-08T08:46:24.120Z</time>
      </trkpt>
      <trkpt lat="45.60147" lon="4.58906">
        <ele>764.83658</ele>
        <time>2025-05-08T08:46:57.123Z</time>
      </trkpt>
      <trkpt lat="45.60165" lon="4.58909">
        <ele>764.925393</ele>
        <time>2025-05-08T08:47:59.121Z</time>
      </trkpt>
      <trkpt lat="45.60175" lon="4.58909">
        <ele>764.97734</ele>
        <time>2025-05-08T08:48:04.115Z</time>
      </trkpt>
      <trkpt lat="45.60186" lon="4.58909">
        <ele>765.029733</ele>
        <time>2025-05-08T08:48:09.129Z</time>
      </trkpt>
      <trkpt lat="45.60196" lon="4.5891">
        <ele>765.080721</ele>
        <time>2025-05-08T08:48:14.127Z</time>
      </trkpt>
      <trkpt lat="45.60205" lon="4.58911">
        <ele>766.118758</ele>
        <time>2025-05-08T08:48:19.124Z</time>
      </trkpt>
      <trkpt lat="45.60214" lon="4.58914">
        <ele>767.305231</ele>
        <time>2025-05-08T08:48:24.135Z</time>
      </trkpt>
      <trkpt lat="45.60224" lon="4.58917">
        <ele>768.668998</ele>
        <time>2025-05-08T08:48:30.133Z</time>
      </trkpt>
      <trkpt lat="45.60234" lon="4.58922">
        <ele>769.949937</ele>
        <time>2025-05-08T08:48:36.113Z</time>
      </trkpt>
      <trkpt lat="45.60243" lon="4.58927">
        <ele>771.194468</ele>
        <time>2025-05-08T08:48:42.112Z</time>
      </trkpt>
      <trkpt lat="45.60253" lon="4.58932">
        <ele>772.544943</ele>
        <time>2025-05-08T08:48:49.112Z</time>
      </trkpt>
      <trkpt lat="45.60263" lon="4.58936">
        <ele>773.899911</ele>
        <time>2025-05-08T08:48:56.110Z</time>
      </trkpt>
      <trkpt lat="45.60273" lon="4.58938">
        <ele>775.248311</ele>
        <time>2025-05-08T08:49:03.108Z</time>
      </trkpt>
      <trkpt lat="45.60283" lon="4.58941">
        <ele>776.591591</ele>
        <time>2025-05-08T08:49:09.096Z</time>
      </trkpt>
      <trkpt lat="45.60293" lon="4.58945">
        <ele>777.935356</ele>
        <time>2025-05-08T08:49:15.099Z</time>
      </trkpt>
      <trkpt lat="45.60303" lon="4.58949">
        <ele>779.276223</ele>
        <time>2025-05-08T08:49:21.089Z</time>
      </trkpt>
      <trkpt lat="45.60313" lon="4.58953">
        <ele>780.579627</ele>
        <time>2025-05-08T08:49:27.097Z</time>
      </trkpt>
      <trkpt lat="45.60322" lon="4.58955">
        <ele>781.803888</ele>
        <time>2025-05-08T08:49:33.120Z</time>
      </trkpt>
      <trkpt lat="45.60332" lon="4.58957">
        <ele>783.053571</ele>
        <time>2025-05-08T08:49:39.111Z</time>
      </trkpt>
      <trkpt lat="45.60342" lon="4.5896">
        <ele>784.305981</ele>
        <time>2025-05-08T08:49:45.112Z</time>
      </trkpt>
      <trkpt lat="45.60351" lon="4.5896">
        <ele>785.503954</ele>
        <time>2025-05-08T08:49:51.091Z</time>
      </trkpt>
      <trkpt lat="45.60361" lon="4.5896">
        <ele>786.794112</ele>
        <time>2025-05-08T08:49:57.107Z</time>
      </trkpt>
      <trkpt lat="45.60371" lon="4.58961">
        <ele>788.059095</ele>
        <time>2025-05-08T08:50:03.171Z</time>
      </trkpt>
      <trkpt lat="45.6038" lon="4.58961">
        <ele>789.193391</ele>
        <time>2025-05-08T08:50:09.096Z</time>
      </trkpt>
      <trkpt lat="45.6039" lon="4.58961">
        <ele>790.341861</ele>
        <time>2025-05-08T08:50:15.107Z</time>
      </trkpt>
      <trkpt lat="45.604" lon="4.58956">
        <ele>791.505447</ele>
        <time>2025-05-08T08:50:21.109Z</time>
      </trkpt>
      <trkpt lat="45.60409" lon="4.5895">
        <ele>792.72035</ele>
        <time>2025-05-08T08:50:28.130Z</time>
      </trkpt>
      <trkpt lat="45.60419" lon="4.58944">
        <ele>793.926279</ele>
        <time>2025-05-08T08:50:35.108Z</time>
      </trkpt>
      <trkpt lat="45.60428" lon="4.58947">
        <ele>795.051532</ele>
        <time>2025-05-08T08:50:41.106Z</time>
      </trkpt>
      <trkpt lat="45.60444" lon="4.58943">
        <ele>796.873225</ele>
        <time>2025-05-08T08:51:51.100Z</time>
      </trkpt>
      <trkpt lat="45.60453" lon="4.58944">
        <ele>797.988784</ele>
        <time>2025-05-08T08:51:57.127Z</time>
      </trkpt>
      <trkpt lat="45.60464" lon="4.58942">
        <ele>799.219875</ele>
        <time>2025-05-08T08:52:03.089Z</time>
      </trkpt>
      <trkpt lat="45.60473" lon="4.5894">
        <ele>800.313415</ele>
        <time>2025-05-08T08:52:08.125Z</time>
      </trkpt>
      <trkpt lat="45.60482" lon="4.58936">
        <ele>801.415775</ele>
        <time>2025-05-08T08:52:13.137Z</time>
      </trkpt>
      <trkpt lat="45.60492" lon="4.58933">
        <ele>802.59506</ele>
        <time>2025-05-08T08:52:18.113Z</time>
      </trkpt>
      <trkpt lat="45.60502" lon="4.5893">
        <ele>803.739943</ele>
        <time>2025-05-08T08:52:23.115Z</time>
      </trkpt>
      <trkpt lat="45.60511" lon="4.5893">
        <ele>804.807208</ele>
        <time>2025-05-08T08:52:28.108Z</time>
      </trkpt>
      <trkpt lat="45.6052" lon="4.58933">
        <ele>805.879248</ele>
        <time>2025-05-08T08:52:33.122Z</time>
      </trkpt>
      <trkpt lat="45.60531" lon="4.58936">
        <ele>807.121418</ele>
        <time>2025-05-08T08:52:39.104Z</time>
      </trkpt>
      <trkpt lat="45.60541" lon="4.58936">
        <ele>808.293792</ele>
        <time>2025-05-08T08:52:45.124Z</time>
      </trkpt>
      <trkpt lat="45.60551" lon="4.58936">
        <ele>809.175708</ele>
        <time>2025-05-08T08:52:51.096Z</time>
      </trkpt>
      <trkpt lat="45.60561" lon="4.58938">
        <ele>809.378371</ele>
        <time>2025-05-08T08:52:57.099Z</time>
      </trkpt>
      <trkpt lat="45.60571" lon="4.58944">
        <ele>809.587689</ele>
        <time>2025-05-08T08:53:03.104Z</time>
      </trkpt>
      <trkpt lat="45.6058" lon="4.58948">
        <ele>809.779902</ele>
        <time>2025-05-08T08:53:08.111Z</time>
      </trkpt>
      <trkpt lat="45.6059" lon="4.58953">
        <ele>809.971736</ele>
        <time>2025-05-08T08:53:12.096Z</time>
      </trkpt>
      <trkpt lat="45.60599" lon="4.58958">
        <ele>810.165644</ele>
        <time>2025-05-08T08:53:17.109Z</time>
      </trkpt>
      <trkpt lat="45.60608" lon="4.58964">
        <ele>810.369452</ele>
        <time>2025-05-08T08:53:22.119Z</time>
      </trkpt>
      <trkpt lat="45.60617" lon="4.58968">
        <ele>810.547349</ele>
        <time>2025-05-08T08:53:26.098Z</time>
      </trkpt>
      <trkpt lat="45.60629" lon="4.58973">
        <ele>810.78587</ele>
        <time>2025-05-08T08:53:30.110Z</time>
      </trkpt>
      <trkpt lat="45.6064" lon="4.58974">
        <ele>811.002386</ele>
        <time>2025-05-08T08:53:33.099Z</time>
      </trkpt>
      <trkpt lat="45.6065" lon="4.58977">
        <ele>811.215398</ele>
        <time>2025-05-08T08:53:36.117Z</time>
      </trkpt>
      <trkpt lat="45.6066" lon="4.58979">
        <ele>811.417651</ele>
        <time>2025-05-08T08:53:39.117Z</time>
      </trkpt>
      <trkpt lat="45.6067" lon="4.58981">
        <ele>811.603125</ele>
        <time>2025-05-08T08:53:42.114Z</time>
      </trkpt>
      <trkpt lat="45.60679" lon="4.58983">
        <ele>811.790531</ele>
        <time>2025-05-08T08:53:45.117Z</time>
      </trkpt>
      <trkpt lat="45.60689" lon="4.58986">
        <ele>811.988899</ele>
        <time>2025-05-08T08:53:48.096Z</time>
      </trkpt>
      <trkpt lat="45.607" lon="4.58989">
        <ele>812.208682</ele>
        <time>2025-05-08T08:53:51.095Z</time>
      </trkpt>
      <trkpt lat="45.60713" lon="4.58992">
        <ele>812.459213</ele>
        <time>2025-05-08T08:53:54.086Z</time>
      </trkpt>
      <trkpt lat="45.60722" lon="4.58994">
        <ele>812.647478</ele>
        <time>2025-05-08T08:53:56.118Z</time>
      </trkpt>
      <trkpt lat="45.60735" lon="4.58997">
        <ele>813.208887</ele>
        <time>2025-05-08T08:53:59.113Z</time>
      </trkpt>
      <trkpt lat="45.60745" lon="4.58997">
        <ele>813.603991</ele>
        <time>2025-05-08T08:54:01.101Z</time>
      </trkpt>
      <trkpt lat="45.60756" lon="4.58996">
        <ele>814.067925</ele>
        <time>2025-05-08T08:54:04.097Z</time>
      </trkpt>
      <trkpt lat="45.60778" lon="4.58998">
        <ele>815.020929</ele>
        <time>2025-05-08T08:57:07.126Z</time>
      </trkpt>
      <trkpt lat="45.60788" lon="4.58995">
        <ele>815.445508</ele>
        <time>2025-05-08T08:57:11.097Z</time>
      </trkpt>
      <trkpt lat="45.60798" lon="4.58995">
        <ele>815.874248</ele>
        <time>2025-05-08T08:57:15.111Z</time>
      </trkpt>
      <trkpt lat="45.6081" lon="4.58997">
        <ele>816.379388</ele>
        <time>2025-05-08T08:57:19.128Z</time>
      </trkpt>
      <trkpt lat="45.6082" lon="4.58999">
        <ele>816.7701</ele>
        <time>2025-05-08T08:57:22.124Z</time>
      </trkpt>
      <trkpt lat="45.6083" lon="4.59005">
        <ele>817.232254</ele>
        <time>2025-05-08T08:57:26.111Z</time>
      </trkpt>
      <trkpt lat="45.60839" lon="4.59013">
        <ele>817.685977</ele>
        <time>2025-05-08T08:57:30.123Z</time>
      </trkpt>
      <trkpt lat="45.60846" lon="4.59022">
        <ele>818.088768</ele>
        <time>2025-05-08T08:57:34.130Z</time>
      </trkpt>
      <trkpt lat="45.60853" lon="4.59033">
        <ele>818.506656</ele>
        <time>2025-05-08T08:57:38.121Z</time>
      </trkpt>
      <trkpt lat="45.60859" lon="4.59044">
        <ele>818.935903</ele>
        <time>2025-05-08T08:57:43.114Z</time>
      </trkpt>
      <trkpt lat="45.60863" lon="4.59056">
        <ele>819.316176</ele>
        <time>2025-05-08T08:57:47.117Z</time>
      </trkpt>
      <trkpt lat="45.60869" lon="4.59069">
        <ele>819.771674</ele>
        <time>2025-05-08T08:57:52.125Z</time>
      </trkpt>
      <trkpt lat="45.60873" lon="4.59081">
        <ele>820.169432</ele>
        <time>2025-05-08T08:57:56.128Z</time>
      </trkpt>
      <trkpt lat="45.60878" lon="4.59092">
        <ele>820.136819</ele>
        <time>2025-05-08T08:58:00.107Z</time>
      </trkpt>
      <trkpt lat="45.60882" lon="4.59105">
        <ele>820.047553</ele>
        <time>2025-05-08T08:58:04.124Z</time>
      </trkpt>
      <trkpt lat="45.60886" lon="4.59117">
        <ele>819.960777</ele>
        <time>2025-05-08T08:58:08.111Z</time>
      </trkpt>
      <trkpt lat="45.6089" lon="4.5913">
        <ele>819.870157</ele>
        <time>2025-05-08T08:58:12.109Z</time>
      </trkpt>
      <trkpt lat="45.60894" lon="4.59143">
        <ele>819.773079</ele>
        <time>2025-05-08T08:58:16.125Z</time>
      </trkpt>
      <trkpt lat="45.60898" lon="4.59159">
        <ele>819.66665</ele>
        <time>2025-05-08T08:58:20.125Z</time>
      </trkpt>
      <trkpt lat="45.609" lon="4.59173">
        <ele>819.56925</ele>
        <time>2025-05-08T08:58:24.116Z</time>
      </trkpt>
      <trkpt lat="45.60899" lon="4.5919">
        <ele>819.460485</ele>
        <time>2025-05-08T08:58:28.103Z</time>
      </trkpt>
      <trkpt lat="45.60897" lon="4.59208">
        <ele>819.342286</ele>
        <time>2025-05-08T08:58:31.099Z</time>
      </trkpt>
      <trkpt lat="45.60896" lon="4.59222">
        <ele>819.251548</ele>
        <time>2025-05-08T08:58:33.129Z</time>
      </trkpt>
      <trkpt lat="45.60895" lon="4.59238">
        <ele>819.148581</ele>
        <time>2025-05-08T08:58:35.100Z</time>
      </trkpt>
      <trkpt lat="45.60894" lon="4.59253">
        <ele>819.048379</ele>
        <time>2025-05-08T08:58:37.103Z</time>
      </trkpt>
      <trkpt lat="45.60892" lon="4.59269">
        <ele>818.947002</ele>
        <time>2025-05-08T08:58:39.109Z</time>
      </trkpt>
      <trkpt lat="45.60891" lon="4.59285">
        <ele>818.83856</ele>
        <time>2025-05-08T08:58:41.097Z</time>
      </trkpt>
      <trkpt lat="45.60889" lon="4.59302">
        <ele>818.73128</ele>
        <time>2025-05-08T08:58:43.111Z</time>
      </trkpt>
      <trkpt lat="45.60888" lon="4.59319">
        <ele>818.622043</ele>
        <time>2025-05-08T08:58:45.115Z</time>
      </trkpt>
      <trkpt lat="45.60887" lon="4.59336">
        <ele>818.509331</ele>
        <time>2025-05-08T08:58:47.102Z</time>
      </trkpt>
      <trkpt lat="45.60886" lon="4.59352">
        <ele>818.395221</ele>
        <time>2025-05-08T08:58:49.105Z</time>
      </trkpt>
      <trkpt lat="45.60884" lon="4.59369">
        <ele>818.283976</ele>
        <time>2025-05-08T08:58:51.085Z</time>
      </trkpt>
      <trkpt lat="45.60882" lon="4.59382">
        <ele>818.191357</ele>
        <time>2025-05-08T08:58:53.143Z</time>
      </trkpt>
      <trkpt lat="45.60878" lon="4.59398">
        <ele>818.078076</ele>
        <time>2025-05-08T08:58:56.103Z</time>
      </trkpt>
      <trkpt lat="45.60875" lon="4.59412">
        <ele>817.975808</ele>
        <time>2025-05-08T08:58:59.118Z</time>
      </trkpt>
      <trkpt lat="45.60873" lon="4.59426">
        <ele>817.881013</ele>
        <time>2025-05-08T08:59:02.107Z</time>
      </trkpt>
      <trkpt lat="45.6087" lon="4.5944">
        <ele>817.783569</ele>
        <time>2025-05-08T08:59:05.118Z</time>
      </trkpt>
      <trkpt lat="45.60868" lon="4.59455">
        <ele>817.676829</ele>
        <time>2025-05-08T08:59:08.100Z</time>
      </trkpt>
      <trkpt lat="45.60868" lon="4.59471">
        <ele>817.568782</ele>
        <time>2025-05-08T08:59:11.080Z</time>
      </trkpt>
      <trkpt lat="45.60868" lon="4.59486">
        <ele>817.463449</ele>
        <time>2025-05-08T08:59:14.115Z</time>
      </trkpt>
      <trkpt lat="45.60869" lon="4.59502">
        <ele>817.359383</ele>
        <time>2025-05-08T08:59:17.110Z</time>
      </trkpt>
      <trkpt lat="45.6087" lon="4.59517">
        <ele>817.254717</ele>
        <time>2025-05-08T08:59:20.110Z</time>
      </trkpt>
      <trkpt lat="45.60872" lon="4.59533">
        <ele>817.143471</ele>
        <time>2025-05-08T08:59:23.109Z</time>
      </trkpt>
      <trkpt lat="45.60875" lon="4.59546">
        <ele>817.053392</ele>
        <time>2025-05-08T08:59:25.118Z</time>
      </trkpt>
      <trkpt lat="45.60881" lon="4.59561">
        <ele>816.935659</ele>
        <time>2025-05-08T08:59:28.097Z</time>
      </trkpt>
      <trkpt lat="45.60886" lon="4.59572">
        <ele>816.840469</ele>
        <time>2025-05-08T08:59:31.089Z</time>
      </trkpt>
      <trkpt lat="45.60893" lon="4.59584">
        <ele>816.508021</ele>
        <time>2025-05-08T08:59:34.114Z</time>
      </trkpt>
      <trkpt lat="45.60899" lon="4.59596">
        <ele>815.976912</ele>
        <time>2025-05-08T08:59:37.107Z</time>
      </trkpt>
      <trkpt lat="45.60909" lon="4.59609">
        <ele>815.357841</ele>
        <time>2025-05-08T08:59:40.105Z</time>
      </trkpt>
      <trkpt lat="45.60918" lon="4.59616">
        <ele>814.845877</ele>
        <time>2025-05-08T08:59:43.133Z</time>
      </trkpt>
      <trkpt lat="45.60927" lon="4.59624">
        <ele>814.344049</ele>
        <time>2025-05-08T08:59:47.091Z</time>
      </trkpt>
      <trkpt lat="45.60934" lon="4.59633">
        <ele>813.905846</ele>
        <time>2025-05-08T08:59:51.101Z</time>
      </trkpt>
      <trkpt lat="45.60938" lon="4.59648">
        <ele>813.356312</ele>
        <time>2025-05-08T08:59:55.097Z</time>
      </trkpt>
      <trkpt lat="45.60942" lon="4.5966">
        <ele>812.898113</ele>
        <time>2025-05-08T08:59:57.115Z</time>
      </trkpt>
      <trkpt lat="45.60948" lon="4.59673">
        <ele>812.392348</ele>
        <time>2025-05-08T08:59:59.115Z</time>
      </trkpt>
      <trkpt lat="45.60954" lon="4.59686">
        <ele>811.876567</ele>
        <time>2025-05-08T09:00:01.096Z</time>
      </trkpt>
      <trkpt lat="45.60959" lon="4.59699">
        <ele>811.367</ele>
        <time>2025-05-08T09:00:03.114Z</time>
      </trkpt>
      <trkpt lat="45.60964" lon="4.59712">
        <ele>810.880513</ele>
        <time>2025-05-08T09:00:05.127Z</time>
      </trkpt>
      <trkpt lat="45.60969" lon="4.59726">
        <ele>810.358357</ele>
        <time>2025-05-08T09:00:07.117Z</time>
      </trkpt>
      <trkpt lat="45.60973" lon="4.5974">
        <ele>809.828878</ele>
        <time>2025-05-08T09:00:09.117Z</time>
      </trkpt>
      <trkpt lat="45.60978" lon="4.59754">
        <ele>809.327306</ele>
        <time>2025-05-08T09:00:11.090Z</time>
      </trkpt>
      <trkpt lat="45.60985" lon="4.59766">
        <ele>808.802129</ele>
        <time>2025-05-08T09:00:13.106Z</time>
      </trkpt>
      <trkpt lat="45.60996" lon="4.59773">
        <ele>808.219239</ele>
        <time>2025-05-08T09:00:15.108Z</time>
      </trkpt>
      <trkpt lat="45.61009" lon="4.59775">
        <ele>808.119595</ele>
        <time>2025-05-08T09:00:17.104Z</time>
      </trkpt>
      <trkpt lat="45.61021" lon="4.59778">
        <ele>808.063499</ele>
        <time>2025-05-08T09:00:19.087Z</time>
      </trkpt>
      <trkpt lat="45.61029" lon="4.59788">
        <ele>808.015531</ele>
        <time>2025-05-08T09:00:21.097Z</time>
      </trkpt>
      <trkpt lat="45.6103" lon="4.59805">
        <ele>807.96226</ele>
        <time>2025-05-08T09:00:23.091Z</time>
      </trkpt>
      <trkpt lat="45.61027" lon="4.59824">
        <ele>807.902628</ele>
        <time>2025-05-08T09:00:25.111Z</time>
      </trkpt>
      <trkpt lat="45.61023" lon="4.59842">
        <ele>807.842054</ele>
        <time>2025-05-08T09:00:27.100Z</time>
      </trkpt>
      <trkpt lat="45.6102" lon="4.5986">
        <ele>807.783249</ele>
        <time>2025-05-08T09:00:29.112Z</time>
      </trkpt>
      <trkpt lat="45.61017" lon="4.59876">
        <ele>807.731018</ele>
        <time>2025-05-08T09:00:31.102Z</time>
      </trkpt>
      <trkpt lat="45.61016" lon="4.59891">
        <ele>807.681764</ele>
        <time>2025-05-08T09:00:33.109Z</time>
      </trkpt>
      <trkpt lat="45.61017" lon="4.59905">
        <ele>807.637291</ele>
        <time>2025-05-08T09:00:35.120Z</time>
      </trkpt>
      <trkpt lat="45.61021" lon="4.59922">
        <ele>807.582735</ele>
        <time>2025-05-08T09:00:38.111Z</time>
      </trkpt>
      <trkpt lat="45.61026" lon="4.59933">
        <ele>807.541678</ele>
        <time>2025-05-08T09:00:41.097Z</time>
      </trkpt>
      <trkpt lat="45.61031" lon="4.59943">
        <ele>807.500676</ele>
        <time>2025-05-08T09:00:45.104Z</time>
      </trkpt>
      <trkpt lat="45.61037" lon="4.59955">
        <ele>807.455001</ele>
        <time>2025-05-08T09:00:49.116Z</time>
      </trkpt>
      <trkpt lat="45.61044" lon="4.59966">
        <ele>807.410361</ele>
        <time>2025-05-08T09:00:53.116Z</time>
      </trkpt>
      <trkpt lat="45.61051" lon="4.59976">
        <ele>807.364262</ele>
        <time>2025-05-08T09:00:58.103Z</time>
      </trkpt>
      <trkpt lat="45.6106" lon="4.59987">
        <ele>806.787131</ele>
        <time>2025-05-08T09:01:03.085Z</time>
      </trkpt>
      <trkpt lat="45.61068" lon="4.59997">
        <ele>806.248745</ele>
        <time>2025-05-08T09:01:06.112Z</time>
      </trkpt>
      <trkpt lat="45.61078" lon="4.60008">
        <ele>805.575542</ele>
        <time>2025-05-08T09:01:09.120Z</time>
      </trkpt>
      <trkpt lat="45.6109" lon="4.60016">
        <ele>804.896714</ele>
        <time>2025-05-08T09:01:12.124Z</time>
      </trkpt>
      <trkpt lat="45.61102" lon="4.60024">
        <ele>804.224005</ele>
        <time>2025-05-08T09:01:15.118Z</time>
      </trkpt>
      <trkpt lat="45.61113" lon="4.6003">
        <ele>803.607619</ele>
        <time>2025-05-08T09:01:18.088Z</time>
      </trkpt>
      <trkpt lat="45.61126" lon="4.60038">
        <ele>802.918515</ele>
        <time>2025-05-08T09:01:21.116Z</time>
      </trkpt>
      <trkpt lat="45.61136" lon="4.60042">
        <ele>802.339436</ele>
        <time>2025-05-08T09:01:23.166Z</time>
      </trkpt>
      <trkpt lat="45.61149" lon="4.60048">
        <ele>801.669008</ele>
        <time>2025-05-08T09:01:25.509Z</time>
      </trkpt>
      <trkpt lat="45.61162" lon="4.60052">
        <ele>800.959813</ele>
        <time>2025-05-08T09:01:27.133Z</time>
      </trkpt>
      <trkpt lat="45.61174" lon="4.60064">
        <ele>800.229986</ele>
        <time>2025-05-08T09:01:29.245Z</time>
      </trkpt>
      <trkpt lat="45.61176" lon="4.60081">
        <ele>799.621937</ele>
        <time>2025-05-08T09:01:31.212Z</time>
      </trkpt>
      <trkpt lat="45.61179" lon="4.60097">
        <ele>799.033736</ele>
        <time>2025-05-08T09:01:33.137Z</time>
      </trkpt>
      <trkpt lat="45.61179" lon="4.60113">
        <ele>798.465705</ele>
        <time>2025-05-08T09:01:35.108Z</time>
      </trkpt>
      <trkpt lat="45.6118" lon="4.6013">
        <ele>797.80698</ele>
        <time>2025-05-08T09:01:37.096Z</time>
      </trkpt>
      <trkpt lat="45.61182" lon="4.60151">
        <ele>796.992682</ele>
        <time>2025-05-08T09:01:39.101Z</time>
      </trkpt>
      <trkpt lat="45.61185" lon="4.60175">
        <ele>796.068304</ele>
        <time>2025-05-08T09:01:41.095Z</time>
      </trkpt>
      <trkpt lat="45.61187" lon="4.60187">
        <ele>795.570673</ele>
        <time>2025-05-08T09:01:42.144Z</time>
      </trkpt>
      <trkpt lat="45.6119" lon="4.6021">
        <ele>794.68643</ele>
        <time>2025-05-08T09:01:44.241Z</time>
      </trkpt>
      <trkpt lat="45.61196" lon="4.6023">
        <ele>793.831132</ele>
        <time>2025-05-08T09:01:46.114Z</time>
      </trkpt>
      <trkpt lat="45.61201" lon="4.60249">
        <ele>793.053055</ele>
        <time>2025-05-08T09:01:48.097Z</time>
      </trkpt>
      <trkpt lat="45.61205" lon="4.60263">
        <ele>792.489538</ele>
        <time>2025-05-08T09:01:50.098Z</time>
      </trkpt>
      <trkpt lat="45.61211" lon="4.60279">
        <ele>791.768478</ele>
        <time>2025-05-08T09:01:53.094Z</time>
      </trkpt>
      <trkpt lat="45.6122" lon="4.6029">
        <ele>791.085879</ele>
        <time>2025-05-08T09:01:56.116Z</time>
      </trkpt>
      <trkpt lat="45.61229" lon="4.60302">
        <ele>790.448798</ele>
        <time>2025-05-08T09:01:59.085Z</time>
      </trkpt>
      <trkpt lat="45.61235" lon="4.60312">
        <ele>789.903392</ele>
        <time>2025-05-08T09:02:02.100Z</time>
      </trkpt>
      <trkpt lat="45.61242" lon="4.60327">
        <ele>789.238</ele>
        <time>2025-05-08T09:02:05.111Z</time>
      </trkpt>
      <trkpt lat="45.61248" lon="4.60338">
        <ele>788.676678</ele>
        <time>2025-05-08T09:02:07.093Z</time>
      </trkpt>
      <trkpt lat="45.61256" lon="4.60348">
        <ele>788.223311</ele>
        <time>2025-05-08T09:02:09.099Z</time>
      </trkpt>
      <trkpt lat="45.61265" lon="4.60354">
        <ele>788.546723</ele>
        <time>2025-05-08T09:02:11.098Z</time>
      </trkpt>
      <trkpt lat="45.61274" lon="4.60358">
        <ele>788.843327</ele>
        <time>2025-05-08T09:02:13.156Z</time>
      </trkpt>
      <trkpt lat="45.6128" lon="4.60367">
        <ele>789.133305</ele>
        <time>2025-05-08T09:02:15.139Z</time>
      </trkpt>
      <trkpt lat="45.61288" lon="4.60381">
        <ele>789.534824</ele>
        <time>2025-05-08T09:02:18.142Z</time>
      </trkpt>
      <trkpt lat="45.61293" lon="4.60393">
        <ele>789.826326</ele>
        <time>2025-05-08T09:02:20.119Z</time>
      </trkpt>
      <trkpt lat="45.61296" lon="4.60406">
        <ele>790.143765</ele>
        <time>2025-05-08T09:02:23.109Z</time>
      </trkpt>
      <trkpt lat="45.61296" lon="4.60422">
        <ele>790.490921</ele>
        <time>2025-05-08T09:02:28.131Z</time>
      </trkpt>
      <trkpt lat="45.613" lon="4.60437">
        <ele>790.862481</ele>
        <time>2025-05-08T09:02:32.118Z</time>
      </trkpt>
      <trkpt lat="45.61302" lon="4.60451">
        <ele>791.180249</ele>
        <time>2025-05-08T09:02:34.128Z</time>
      </trkpt>
      <trkpt lat="45.61303" lon="4.60467">
        <ele>791.524843</ele>
        <time>2025-05-08T09:02:37.095Z</time>
      </trkpt>
      <trkpt lat="45.61303" lon="4.60483">
        <ele>791.883238</ele>
        <time>2025-05-08T09:02:40.082Z</time>
      </trkpt>
      <trkpt lat="45.61303" lon="4.60497">
        <ele>792.20609</ele>
        <time>2025-05-08T09:02:45.109Z</time>
      </trkpt>
      <trkpt lat="45.61306" lon="4.60512">
        <ele>792.538098</ele>
        <time>2025-05-08T09:02:51.089Z</time>
      </trkpt>
      <trkpt lat="45.61312" lon="4.60523">
        <ele>792.850526</ele>
        <time>2025-05-08T09:02:57.145Z</time>
      </trkpt>
      <trkpt lat="45.61318" lon="4.60533">
        <ele>793.149808</ele>
        <time>2025-05-08T09:03:02.120Z</time>
      </trkpt>
      <trkpt lat="45.61325" lon="4.60542">
        <ele>793.446672</ele>
        <time>2025-05-08T09:03:07.093Z</time>
      </trkpt>
      <trkpt lat="45.61334" lon="4.60552">
        <ele>793.794197</ele>
        <time>2025-05-08T09:03:10.100Z</time>
      </trkpt>
      <trkpt lat="45.61342" lon="4.60559">
        <ele>794.037531</ele>
        <time>2025-05-08T09:03:12.110Z</time>
      </trkpt>
      <trkpt lat="45.6135" lon="4.60567">
        <ele>794.228678</ele>
        <time>2025-05-08T09:03:14.097Z</time>
      </trkpt>
      <trkpt lat="45.61358" lon="4.60575">
        <ele>794.41989</ele>
        <time>2025-05-08T09:03:16.106Z</time>
      </trkpt>
      <trkpt lat="45.61368" lon="4.60574">
        <ele>794.608656</ele>
        <time>2025-05-08T09:03:18.108Z</time>
      </trkpt>
      <trkpt lat="45.61377" lon="4.60575">
        <ele>794.792092</ele>
        <time>2025-05-08T09:03:22.101Z</time>
      </trkpt>
      <trkpt lat="45.61387" lon="4.60577">
        <ele>794.997227</ele>
        <time>2025-05-08T09:03:27.109Z</time>
      </trkpt>
      <trkpt lat="45.61398" lon="4.60577">
        <ele>795.209373</ele>
        <time>2025-05-08T09:03:31.088Z</time>
      </trkpt>
      <trkpt lat="45.61407" lon="4.60581">
        <ele>795.400435</ele>
        <time>2025-05-08T09:03:35.105Z</time>
      </trkpt>
      <trkpt lat="45.61417" lon="4.60581">
        <ele>795.604669</ele>
        <time>2025-05-08T09:03:40.119Z</time>
      </trkpt>
      <trkpt lat="45.61429" lon="4.60584">
        <ele>795.831394</ele>
        <time>2025-05-08T09:03:44.106Z</time>
      </trkpt>
      <trkpt lat="45.61438" lon="4.60585">
        <ele>796.021912</ele>
        <time>2025-05-08T09:03:47.125Z</time>
      </trkpt>
      <trkpt lat="45.6145" lon="4.60587">
        <ele>796.266077</ele>
        <time>2025-05-08T09:03:50.118Z</time>
      </trkpt>
      <trkpt lat="45.61461" lon="4.6058">
        <ele>796.496401</ele>
        <time>2025-05-08T09:03:53.118Z</time>
      </trkpt>
      <trkpt lat="45.61468" lon="4.6057">
        <ele>796.685458</ele>
        <time>2025-05-08T09:03:57.095Z</time>
      </trkpt>
      <trkpt lat="45.61476" lon="4.60566">
        <ele>796.869399</ele>
        <time>2025-05-08T09:04:02.107Z</time>
      </trkpt>
      <trkpt lat="45.61484" lon="4.60576">
        <ele>797.075129</ele>
        <time>2025-05-08T09:04:07.116Z</time>
      </trkpt>
      <trkpt lat="45.61492" lon="4.60586">
        <ele>797.291854</ele>
        <time>2025-05-08T09:04:11.094Z</time>
      </trkpt>
      <trkpt lat="45.61499" lon="4.60596">
        <ele>797.451167</ele>
        <time>2025-05-08T09:04:16.093Z</time>
      </trkpt>
      <trkpt lat="45.61504" lon="4.60608">
        <ele>797.227694</ele>
        <time>2025-05-08T09:04:34.096Z</time>
      </trkpt>
      <trkpt lat="45.61513" lon="4.60612">
        <ele>797.019114</ele>
        <time>2025-05-08T09:05:02.108Z</time>
      </trkpt>
      <trkpt lat="45.61523" lon="4.60621">
        <ele>796.748966</ele>
        <time>2025-05-08T09:05:11.116Z</time>
      </trkpt>
      <trkpt lat="45.61534" lon="4.60627">
        <ele>796.486967</ele>
        <time>2025-05-08T09:05:14.091Z</time>
      </trkpt>
      <trkpt lat="45.61544" lon="4.60633">
        <ele>796.239725</ele>
        <time>2025-05-08T09:05:17.121Z</time>
      </trkpt>
      <trkpt lat="45.61553" lon="4.60643">
        <ele>795.96555</ele>
        <time>2025-05-08T09:05:19.107Z</time>
      </trkpt>
      <trkpt lat="45.61567" lon="4.60654">
        <ele>795.61961</ele>
        <time>2025-05-08T09:05:21.096Z</time>
      </trkpt>
      <trkpt lat="45.61576" lon="4.60665">
        <ele>795.345822</ele>
        <time>2025-05-08T09:05:23.114Z</time>
      </trkpt>
      <trkpt lat="45.61587" lon="4.60678">
        <ele>795.021111</ele>
        <time>2025-05-08T09:05:25.100Z</time>
      </trkpt>
      <trkpt lat="45.61595" lon="4.6069">
        <ele>794.744597</ele>
        <time>2025-05-08T09:05:27.130Z</time>
      </trkpt>
      <trkpt lat="45.61604" lon="4.60704">
        <ele>794.460722</ele>
        <time>2025-05-08T09:05:29.123Z</time>
      </trkpt>
      <trkpt lat="45.61612" lon="4.60713">
        <ele>794.221403</ele>
        <time>2025-05-08T09:05:31.094Z</time>
      </trkpt>
      <trkpt lat="45.61619" lon="4.60721">
        <ele>794.016548</ele>
        <time>2025-05-08T09:05:33.126Z</time>
      </trkpt>
      <trkpt lat="45.61626" lon="4.60732">
        <ele>793.778164</ele>
        <time>2025-05-08T09:05:35.111Z</time>
      </trkpt>
      <trkpt lat="45.61636" lon="4.60743">
        <ele>793.498223</ele>
        <time>2025-05-08T09:05:38.105Z</time>
      </trkpt>
      <trkpt lat="45.61642" lon="4.60752">
        <ele>793.385492</ele>
        <time>2025-05-08T09:05:43.088Z</time>
      </trkpt>
      <trkpt lat="45.61659" lon="4.6077">
        <ele>793.452495</ele>
        <time>2025-05-08T09:06:18.116Z</time>
      </trkpt>
      <trkpt lat="45.6167" lon="4.60765">
        <ele>793.490659</ele>
        <time>2025-05-08T09:06:22.123Z</time>
      </trkpt>
      <trkpt lat="45.61681" lon="4.60763">
        <ele>793.525333</ele>
        <time>2025-05-08T09:06:26.101Z</time>
      </trkpt>
      <trkpt lat="45.6169" lon="4.60761">
        <ele>793.55594</ele>
        <time>2025-05-08T09:06:30.113Z</time>
      </trkpt>
      <trkpt lat="45.61701" lon="4.60759">
        <ele>793.592265</ele>
        <time>2025-05-08T09:06:35.100Z</time>
      </trkpt>
      <trkpt lat="45.61711" lon="4.60755">
        <ele>793.624347</ele>
        <time>2025-05-08T09:06:40.107Z</time>
      </trkpt>
      <trkpt lat="45.61719" lon="4.6075">
        <ele>793.653423</ele>
        <time>2025-05-08T09:06:45.103Z</time>
      </trkpt>
      <trkpt lat="45.61728" lon="4.60744">
        <ele>793.684156</ele>
        <time>2025-05-08T09:06:53.100Z</time>
      </trkpt>
      <trkpt lat="45.61736" lon="4.60737">
        <ele>793.714245</ele>
        <time>2025-05-08T09:07:00.117Z</time>
      </trkpt>
      <trkpt lat="45.61745" lon="4.6074">
        <ele>793.743969</ele>
        <time>2025-05-08T09:07:05.136Z</time>
      </trkpt>
      <trkpt lat="45.61754" lon="4.60742">
        <ele>793.773225</ele>
        <time>2025-05-08T09:07:12.113Z</time>
      </trkpt>
      <trkpt lat="45.61764" lon="4.60745">
        <ele>793.807154</ele>
        <time>2025-05-08T09:07:19.130Z</time>
      </trkpt>
      <trkpt lat="45.61774" lon="4.6075">
        <ele>793.839781</ele>
        <time>2025-05-08T09:07:26.107Z</time>
      </trkpt>
      <trkpt lat="45.61782" lon="4.60757">
        <ele>793.871324</ele>
        <time>2025-05-08T09:07:34.113Z</time>
      </trkpt>
      <trkpt lat="45.61787" lon="4.60772">
        <ele>793.907258</ele>
        <time>2025-05-08T09:07:41.138Z</time>
      </trkpt>
      <trkpt lat="45.61783" lon="4.60785">
        <ele>793.938998</ele>
        <time>2025-05-08T09:07:45.116Z</time>
      </trkpt>
      <trkpt lat="45.61783" lon="4.60799">
        <ele>792.990008</ele>
        <time>2025-05-08T09:07:49.110Z</time>
      </trkpt>
      <trkpt lat="45.61786" lon="4.60813">
        <ele>791.318423</ele>
        <time>2025-05-08T09:07:52.129Z</time>
      </trkpt>
      <trkpt lat="45.61794" lon="4.60822">
        <ele>789.51366</ele>
        <time>2025-05-08T09:07:56.144Z</time>
      </trkpt>
      <trkpt lat="45.61802" lon="4.60832">
        <ele>787.770943</ele>
        <time>2025-05-08T09:08:00.090Z</time>
      </trkpt>
      <trkpt lat="45.6181" lon="4.60841">
        <ele>786.051166</ele>
        <time>2025-05-08T09:08:07.104Z</time>
      </trkpt>
      <trkpt lat="45.61819" lon="4.60853">
        <ele>783.905644</ele>
        <time>2025-05-08T09:08:11.140Z</time>
      </trkpt>
      <trkpt lat="45.61827" lon="4.60863">
        <ele>782.15805</ele>
        <time>2025-05-08T09:08:16.111Z</time>
      </trkpt>
      <trkpt lat="45.61839" lon="4.6086">
        <ele>780.087793</ele>
        <time>2025-05-08T09:08:20.114Z</time>
      </trkpt>
      <trkpt lat="45.61849" lon="4.60857">
        <ele>778.381775</ele>
        <time>2025-05-08T09:08:23.113Z</time>
      </trkpt>
      <trkpt lat="45.61858" lon="4.60857">
        <ele>776.75886</ele>
        <time>2025-05-08T09:08:45.128Z</time>
      </trkpt>
      <trkpt lat="45.61868" lon="4.60856">
        <ele>775.079269</ele>
        <time>2025-05-08T09:08:57.112Z</time>
      </trkpt>
      <trkpt lat="45.61881" lon="4.60856">
        <ele>772.881503</ele>
        <time>2025-05-08T09:09:00.098Z</time>
      </trkpt>
      <trkpt lat="45.61891" lon="4.60857">
        <ele>771.232163</ele>
        <time>2025-05-08T09:09:02.077Z</time>
      </trkpt>
      <trkpt lat="45.61901" lon="4.6086">
        <ele>769.509559</ele>
        <time>2025-05-08T09:09:05.117Z</time>
      </trkpt>
      <trkpt lat="45.6191" lon="4.60864">
        <ele>767.871171</ele>
        <time>2025-05-08T09:09:08.149Z</time>
      </trkpt>
      <trkpt lat="45.6192" lon="4.60869">
        <ele>766.108158</ele>
        <time>2025-05-08T09:09:12.127Z</time>
      </trkpt>
      <trkpt lat="45.6194" lon="4.60885">
        <ele>762.65297</ele>
        <time>2025-05-08T09:09:56.118Z</time>
      </trkpt>
      <trkpt lat="45.61952" lon="4.60891">
        <ele>761.268615</ele>
        <time>2025-05-08T09:10:00.104Z</time>
      </trkpt>
      <trkpt lat="45.61962" lon="4.60891">
        <ele>760.241601</ele>
        <time>2025-05-08T09:10:03.085Z</time>
      </trkpt>
      <trkpt lat="45.61974" lon="4.60891">
        <ele>758.86147</ele>
        <time>2025-05-08T09:10:07.106Z</time>
      </trkpt>
      <trkpt lat="45.61985" lon="4.60889">
        <ele>757.697159</ele>
        <time>2025-05-08T09:10:13.100Z</time>
      </trkpt>
      <trkpt lat="45.62" lon="4.60886">
        <ele>756.015093</ele>
        <time>2025-05-08T09:11:19.118Z</time>
      </trkpt>
      <trkpt lat="45.62009" lon="4.60881">
        <ele>754.949087</ele>
        <time>2025-05-08T09:11:23.114Z</time>
      </trkpt>
      <trkpt lat="45.62019" lon="4.60879">
        <ele>753.815346</ele>
        <time>2025-05-08T09:11:27.099Z</time>
      </trkpt>
      <trkpt lat="45.62029" lon="4.6088">
        <ele>752.732703</ele>
        <time>2025-05-08T09:11:32.107Z</time>
      </trkpt>
      <trkpt lat="45.6204" lon="4.60883">
        <ele>751.513421</ele>
        <time>2025-05-08T09:11:38.121Z</time>
      </trkpt>
      <trkpt lat="45.62049" lon="4.60888">
        <ele>750.419172</ele>
        <time>2025-05-08T09:11:45.093Z</time>
      </trkpt>
      <trkpt lat="45.62056" lon="4.60898">
        <ele>749.314193</ele>
        <time>2025-05-08T09:11:50.098Z</time>
      </trkpt>
      <trkpt lat="45.62058" lon="4.60911">
        <ele>748.311374</ele>
        <time>2025-05-08T09:11:55.087Z</time>
      </trkpt>
      <trkpt lat="45.62056" lon="4.60925">
        <ele>747.190836</ele>
        <time>2025-05-08T09:12:00.106Z</time>
      </trkpt>
      <trkpt lat="45.62047" lon="4.60935">
        <ele>745.925422</ele>
        <time>2025-05-08T09:12:04.106Z</time>
      </trkpt>
      <trkpt lat="45.62042" lon="4.60946">
        <ele>744.925328</ele>
        <time>2025-05-08T09:12:07.108Z</time>
      </trkpt>
      <trkpt lat="45.62038" lon="4.60959">
        <ele>743.814907</ele>
        <time>2025-05-08T09:12:10.111Z</time>
      </trkpt>
      <trkpt lat="45.62033" lon="4.60975">
        <ele>742.386265</ele>
        <time>2025-05-08T09:12:14.097Z</time>
      </trkpt>
      <trkpt lat="45.62027" lon="4.6099">
        <ele>740.914355</ele>
        <time>2025-05-08T09:12:17.107Z</time>
      </trkpt>
      <trkpt lat="45.62022" lon="4.61002">
        <ele>739.800729</ele>
        <time>2025-05-08T09:12:19.101Z</time>
      </trkpt>
      <trkpt lat="45.62019" lon="4.61018">
        <ele>738.376674</ele>
        <time>2025-05-08T09:12:22.114Z</time>
      </trkpt>
      <trkpt lat="45.62018" lon="4.61032">
        <ele>737.267436</ele>
        <time>2025-05-08T09:12:26.115Z</time>
      </trkpt>
      <trkpt lat="45.62017" lon="4.61045">
        <ele>736.176415</ele>
        <time>2025-05-08T09:12:36.090Z</time>
      </trkpt>
      <trkpt lat="45.62014" lon="4.61058">
        <ele>735.048005</ele>
        <time>2025-05-08T09:12:42.127Z</time>
      </trkpt>
      <trkpt lat="45.62011" lon="4.61072">
        <ele>733.82536</ele>
        <time>2025-05-08T09:12:45.084Z</time>
      </trkpt>
      <trkpt lat="45.62006" lon="4.61087">
        <ele>732.482179</ele>
        <time>2025-05-08T09:12:48.090Z</time>
      </trkpt>
      <trkpt lat="45.62003" lon="4.61101">
        <ele>731.267345</ele>
        <time>2025-05-08T09:12:51.095Z</time>
      </trkpt>
      <trkpt lat="45.62009" lon="4.61111">
        <ele>730.185816</ele>
        <time>2025-05-08T09:12:56.116Z</time>
      </trkpt>
      <trkpt lat="45.62004" lon="4.61127">
        <ele>728.688046</ele>
        <time>2025-05-08T09:13:00.111Z</time>
      </trkpt>
      <trkpt lat="45.61998" lon="4.61137">
        <ele>727.600108</ele>
        <time>2025-05-08T09:13:03.118Z</time>
      </trkpt>
      <trkpt lat="45.62" lon="4.61161">
        <ele>725.6625</ele>
        <time>2025-05-08T09:13:56.114Z</time>
      </trkpt>
      <trkpt lat="45.62003" lon="4.61175">
        <ele>724.474705</ele>
        <time>2025-05-08T09:14:00.118Z</time>
      </trkpt>
      <trkpt lat="45.62008" lon="4.61186">
        <ele>723.354745</ele>
        <time>2025-05-08T09:14:03.108Z</time>
      </trkpt>
      <trkpt lat="45.62014" lon="4.612">
        <ele>721.990539</ele>
        <time>2025-05-08T09:14:06.090Z</time>
      </trkpt>
      <trkpt lat="45.62021" lon="4.6121">
        <ele>720.832986</ele>
        <time>2025-05-08T09:14:10.119Z</time>
      </trkpt>
      <trkpt lat="45.6203" lon="4.61218">
        <ele>719.551657</ele>
        <time>2025-05-08T09:14:13.093Z</time>
      </trkpt>
      <trkpt lat="45.62038" lon="4.61225">
        <ele>718.461023</ele>
        <time>2025-05-08T09:14:16.106Z</time>
      </trkpt>
      <trkpt lat="45.62045" lon="4.61233">
        <ele>717.338323</ele>
        <time>2025-05-08T09:14:20.121Z</time>
      </trkpt>
      <trkpt lat="45.62054" lon="4.61243">
        <ele>715.970702</ele>
        <time>2025-05-08T09:14:24.111Z</time>
      </trkpt>
      <trkpt lat="45.62063" lon="4.61252">
        <ele>714.767975</ele>
        <time>2025-05-08T09:14:29.104Z</time>
      </trkpt>
      <trkpt lat="45.62074" lon="4.61255">
        <ele>713.364032</ele>
        <time>2025-05-08T09:14:33.112Z</time>
      </trkpt>
      <trkpt lat="45.62082" lon="4.61263">
        <ele>712.237918</ele>
        <time>2025-05-08T09:14:37.095Z</time>
      </trkpt>
      <trkpt lat="45.6209" lon="4.61273">
        <ele>711.054763</ele>
        <time>2025-05-08T09:14:40.216Z</time>
      </trkpt>
      <trkpt lat="45.62099" lon="4.61282">
        <ele>709.687861</ele>
        <time>2025-05-08T09:14:43.183Z</time>
      </trkpt>
      <trkpt lat="45.62109" lon="4.6129">
        <ele>708.301705</ele>
        <time>2025-05-08T09:14:46.091Z</time>
      </trkpt>
      <trkpt lat="45.62117" lon="4.613">
        <ele>707.114317</ele>
        <time>2025-05-08T09:14:49.092Z</time>
      </trkpt>
      <trkpt lat="45.62126" lon="4.6131">
        <ele>705.776754</ele>
        <time>2025-05-08T09:14:52.088Z</time>
      </trkpt>
      <trkpt lat="45.62136" lon="4.61321">
        <ele>704.303154</ele>
        <time>2025-05-08T09:14:56.107Z</time>
      </trkpt>
      <trkpt lat="45.62147" lon="4.61334">
        <ele>702.611317</ele>
        <time>2025-05-08T09:14:59.110Z</time>
      </trkpt>
      <trkpt lat="45.62154" lon="4.61343">
        <ele>701.400866</ele>
        <time>2025-05-08T09:15:01.106Z</time>
      </trkpt>
      <trkpt lat="45.62168" lon="4.6135">
        <ele>699.790736</ele>
        <time>2025-05-08T09:15:04.120Z</time>
      </trkpt>
      <trkpt lat="45.62176" lon="4.61354">
        <ele>698.770097</ele>
        <time>2025-05-08T09:15:06.099Z</time>
      </trkpt>
      <trkpt lat="45.62189" lon="4.61378">
        <ele>696.323311</ele>
        <time>2025-05-08T09:15:52.128Z</time>
      </trkpt>
      <trkpt lat="45.62198" lon="4.61391">
        <ele>694.900951</ele>
        <time>2025-05-08T09:15:54.108Z</time>
      </trkpt>
      <trkpt lat="45.62208" lon="4.614">
        <ele>693.586457</ele>
        <time>2025-05-08T09:15:56.114Z</time>
      </trkpt>
      <trkpt lat="45.6222" lon="4.61408">
        <ele>692.08545</ele>
        <time>2025-05-08T09:15:58.096Z</time>
      </trkpt>
      <trkpt lat="45.6223" lon="4.61416">
        <ele>690.828332</ele>
        <time>2025-05-08T09:16:00.115Z</time>
      </trkpt>
      <trkpt lat="45.62241" lon="4.61423">
        <ele>689.417756</ele>
        <time>2025-05-08T09:16:02.111Z</time>
      </trkpt>
      <trkpt lat="45.62251" lon="4.6143">
        <ele>688.190633</ele>
        <time>2025-05-08T09:16:04.113Z</time>
      </trkpt>
      <trkpt lat="45.62261" lon="4.6144">
        <ele>686.795094</ele>
        <time>2025-05-08T09:16:06.109Z</time>
      </trkpt>
      <trkpt lat="45.62271" lon="4.61452">
        <ele>685.321727</ele>
        <time>2025-05-08T09:16:08.103Z</time>
      </trkpt>
      <trkpt lat="45.62278" lon="4.61464">
        <ele>684.095545</ele>
        <time>2025-05-08T09:16:10.118Z</time>
      </trkpt>
      <trkpt lat="45.62284" lon="4.61476">
        <ele>682.936912</ele>
        <time>2025-05-08T09:16:14.111Z</time>
      </trkpt>
      <trkpt lat="45.62291" lon="4.61492">
        <ele>681.461464</ele>
        <time>2025-05-08T09:16:19.083Z</time>
      </trkpt>
      <trkpt lat="45.623" lon="4.61505">
        <ele>680.187924</ele>
        <time>2025-05-08T09:16:22.121Z</time>
      </trkpt>
      <trkpt lat="45.62307" lon="4.61515">
        <ele>679.327124</ele>
        <time>2025-05-08T09:16:24.086Z</time>
      </trkpt>
      <trkpt lat="45.62313" lon="4.61525">
        <ele>678.53191</ele>
        <time>2025-05-08T09:16:26.094Z</time>
      </trkpt>
      <trkpt lat="45.62318" lon="4.61539">
        <ele>677.596087</ele>
        <time>2025-05-08T09:16:28.110Z</time>
      </trkpt>
      <trkpt lat="45.62322" lon="4.61555">
        <ele>676.520772</ele>
        <time>2025-05-08T09:16:31.085Z</time>
      </trkpt>
      <trkpt lat="45.62329" lon="4.61565">
        <ele>675.699719</ele>
        <time>2025-05-08T09:16:33.100Z</time>
      </trkpt>
      <trkpt lat="45.62341" lon="4.61574">
        <ele>674.518371</ele>
        <time>2025-05-08T09:16:36.110Z</time>
      </trkpt>
      <trkpt lat="45.62352" lon="4.61582">
        <ele>673.413416</ele>
        <time>2025-05-08T09:16:38.101Z</time>
      </trkpt>
      <trkpt lat="45.62366" lon="4.61589">
        <ele>672.135164</ele>
        <time>2025-05-08T09:16:40.096Z</time>
      </trkpt>
      <trkpt lat="45.62381" lon="4.61593">
        <ele>670.785701</ele>
        <time>2025-05-08T09:16:42.097Z</time>
      </trkpt>
      <trkpt lat="45.62397" lon="4.61596">
        <ele>669.435632</ele>
        <time>2025-05-08T09:16:44.097Z</time>
      </trkpt>
      <trkpt lat="45.62412" lon="4.61598">
        <ele>668.088927</ele>
        <time>2025-05-08T09:16:46.107Z</time>
      </trkpt>
      <trkpt lat="45.62427" lon="4.61597">
        <ele>666.807722</ele>
        <time>2025-05-08T09:16:48.106Z</time>
      </trkpt>
      <trkpt lat="45.62442" lon="4.61588">
        <ele>665.393583</ele>
        <time>2025-05-08T09:16:50.112Z</time>
      </trkpt>
      <trkpt lat="45.62455" lon="4.61578">
        <ele>665.116337</ele>
        <time>2025-05-08T09:16:52.105Z</time>
      </trkpt>
      <trkpt lat="45.62469" lon="4.61572">
        <ele>665.044682</ele>
        <time>2025-05-08T09:16:54.123Z</time>
      </trkpt>
      <trkpt lat="45.6248" lon="4.61565">
        <ele>664.97995</ele>
        <time>2025-05-08T09:16:56.109Z</time>
      </trkpt>
      <trkpt lat="45.6249" lon="4.6156">
        <ele>664.925162</ele>
        <time>2025-05-08T09:16:58.086Z</time>
      </trkpt>
      <trkpt lat="45.625" lon="4.61554">
        <ele>664.8748</ele>
        <time>2025-05-08T09:17:01.089Z</time>
      </trkpt>
      <trkpt lat="45.62508" lon="4.6155">
        <ele>664.82796</ele>
        <time>2025-05-08T09:17:05.109Z</time>
      </trkpt>
      <trkpt lat="45.62519" lon="4.61544">
        <ele>664.769915</ele>
        <time>2025-05-08T09:17:10.099Z</time>
      </trkpt>
      <trkpt lat="45.62529" lon="4.6154">
        <ele>664.716477</ele>
        <time>2025-05-08T09:17:15.085Z</time>
      </trkpt>
      <trkpt lat="45.62538" lon="4.61536">
        <ele>664.665669</ele>
        <time>2025-05-08T09:17:19.120Z</time>
      </trkpt>
      <trkpt lat="45.6255" lon="4.61534">
        <ele>664.602427</ele>
        <time>2025-05-08T09:17:22.115Z</time>
      </trkpt>
      <trkpt lat="45.62561" lon="4.61533">
        <ele>664.55056</ele>
        <time>2025-05-08T09:17:24.100Z</time>
      </trkpt>
      <trkpt lat="45.62573" lon="4.61534">
        <ele>664.48493</ele>
        <time>2025-05-08T09:17:27.083Z</time>
      </trkpt>
      <trkpt lat="45.62586" lon="4.61538">
        <ele>664.419616</ele>
        <time>2025-05-08T09:17:30.093Z</time>
      </trkpt>
      <trkpt lat="45.62596" lon="4.61548">
        <ele>664.35413</ele>
        <time>2025-05-08T09:17:33.094Z</time>
      </trkpt>
      <trkpt lat="45.62605" lon="4.6156">
        <ele>664.293478</ele>
        <time>2025-05-08T09:17:36.103Z</time>
      </trkpt>
      <trkpt lat="45.62612" lon="4.61571">
        <ele>664.154674</ele>
        <time>2025-05-08T09:17:39.097Z</time>
      </trkpt>
      <trkpt lat="45.62621" lon="4.6158">
        <ele>663.838653</ele>
        <time>2025-05-08T09:17:43.084Z</time>
      </trkpt>
      <trkpt lat="45.62631" lon="4.6159">
        <ele>663.508183</ele>
        <time>2025-05-08T09:17:47.091Z</time>
      </trkpt>
      <trkpt lat="45.62637" lon="4.61601">
        <ele>663.229444</ele>
        <time>2025-05-08T09:17:50.118Z</time>
      </trkpt>
      <trkpt lat="45.62638" lon="4.6162">
        <ele>662.879386</ele>
        <time>2025-05-08T09:17:53.130Z</time>
      </trkpt>
      <trkpt lat="45.62637" lon="4.61636">
        <ele>662.565696</ele>
        <time>2025-05-08T09:17:55.106Z</time>
      </trkpt>
      <trkpt lat="45.62638" lon="4.61656">
        <ele>662.172934</ele>
        <time>2025-05-08T09:17:57.104Z</time>
      </trkpt>
      <trkpt lat="45.62643" lon="4.61673">
        <ele>661.823232</ele>
        <time>2025-05-08T09:17:59.104Z</time>
      </trkpt>
      <trkpt lat="45.6265" lon="4.61686">
        <ele>661.519622</ele>
        <time>2025-05-08T09:18:01.095Z</time>
      </trkpt>
      <trkpt lat="45.62655" lon="4.61696">
        <ele>661.26792</ele>
        <time>2025-05-08T09:18:03.145Z</time>
      </trkpt>
      <trkpt lat="45.62661" lon="4.61708">
        <ele>660.979749</ele>
        <time>2025-05-08T09:18:06.088Z</time>
      </trkpt>
      <trkpt lat="45.62667" lon="4.61719">
        <ele>660.72779</ele>
        <time>2025-05-08T09:18:09.091Z</time>
      </trkpt>
      <trkpt lat="45.62673" lon="4.6173">
        <ele>660.463017</ele>
        <time>2025-05-08T09:18:12.108Z</time>
      </trkpt>
      <trkpt lat="45.62677" lon="4.61742">
        <ele>660.192671</ele>
        <time>2025-05-08T09:18:15.098Z</time>
      </trkpt>
      <trkpt lat="45.62682" lon="4.61756">
        <ele>659.888711</ele>
        <time>2025-05-08T09:18:18.110Z</time>
      </trkpt>
      <trkpt lat="45.62686" lon="4.61773">
        <ele>659.547939</ele>
        <time>2025-05-08T09:18:21.100Z</time>
      </trkpt>
      <trkpt lat="45.62689" lon="4.61785">
        <ele>659.185318</ele>
        <time>2025-05-08T09:18:23.103Z</time>
      </trkpt>
      <trkpt lat="45.62693" lon="4.61799">
        <ele>657.587317</ele>
        <time>2025-05-08T09:18:25.109Z</time>
      </trkpt>
      <trkpt lat="45.62698" lon="4.61815">
        <ele>655.755876</ele>
        <time>2025-05-08T09:18:27.092Z</time>
      </trkpt>
      <trkpt lat="45.62702" lon="4.6183">
        <ele>654.031703</ele>
        <time>2025-05-08T09:18:29.117Z</time>
      </trkpt>
      <trkpt lat="45.62707" lon="4.61845">
        <ele>652.386326</ele>
        <time>2025-05-08T09:18:31.125Z</time>
      </trkpt>
      <trkpt lat="45.62711" lon="4.61858">
        <ele>650.792042</ele>
        <time>2025-05-08T09:18:33.107Z</time>
      </trkpt>
      <trkpt lat="45.62716" lon="4.61873">
        <ele>649.045423</ele>
        <time>2025-05-08T09:18:35.106Z</time>
      </trkpt>
      <trkpt lat="45.62721" lon="4.61885">
        <ele>647.631246</ele>
        <time>2025-05-08T09:18:37.088Z</time>
      </trkpt>
      <trkpt lat="45.6272" lon="4.61901">
        <ele>645.914801</ele>
        <time>2025-05-08T09:18:40.111Z</time>
      </trkpt>
      <trkpt lat="45.62712" lon="4.61913">
        <ele>644.107238</ele>
        <time>2025-05-08T09:18:42.113Z</time>
      </trkpt>
      <trkpt lat="45.62702" lon="4.61926">
        <ele>642.128409</ele>
        <time>2025-05-08T09:18:44.101Z</time>
      </trkpt>
      <trkpt lat="45.62693" lon="4.61935">
        <ele>640.485819</ele>
        <time>2025-05-08T09:18:46.117Z</time>
      </trkpt>
      <trkpt lat="45.62685" lon="4.61944">
        <ele>638.904222</ele>
        <time>2025-05-08T09:18:48.089Z</time>
      </trkpt>
      <trkpt lat="45.62674" lon="4.61956">
        <ele>636.85976</ele>
        <time>2025-05-08T09:18:51.090Z</time>
      </trkpt>
      <trkpt lat="45.62669" lon="4.61966">
        <ele>635.489929</ele>
        <time>2025-05-08T09:18:55.098Z</time>
      </trkpt>
      <trkpt lat="45.62675" lon="4.61978">
        <ele>633.911537</ele>
        <time>2025-05-08T09:18:58.115Z</time>
      </trkpt>
      <trkpt lat="45.62683" lon="4.61988">
        <ele>632.368116</ele>
        <time>2025-05-08T09:19:00.097Z</time>
      </trkpt>
      <trkpt lat="45.6269" lon="4.61999">
        <ele>630.910617</ele>
        <time>2025-05-08T09:19:02.076Z</time>
      </trkpt>
      <trkpt lat="45.62699" lon="4.62008">
        <ele>629.445362</ele>
        <time>2025-05-08T09:19:04.116Z</time>
      </trkpt>
      <trkpt lat="45.62709" lon="4.62015">
        <ele>627.840536</ele>
        <time>2025-05-08T09:19:06.119Z</time>
      </trkpt>
      <trkpt lat="45.62721" lon="4.62018">
        <ele>626.182163</ele>
        <time>2025-05-08T09:19:08.103Z</time>
      </trkpt>
      <trkpt lat="45.62733" lon="4.6202">
        <ele>624.617556</ele>
        <time>2025-05-08T09:19:10.115Z</time>
      </trkpt>
      <trkpt lat="45.62744" lon="4.62023">
        <ele>622.982374</ele>
        <time>2025-05-08T09:19:12.092Z</time>
      </trkpt>
      <trkpt lat="45.62756" lon="4.6203">
        <ele>621.290655</ele>
        <time>2025-05-08T09:19:14.121Z</time>
      </trkpt>
      <trkpt lat="45.62765" lon="4.62039">
        <ele>619.725164</ele>
        <time>2025-05-08T09:19:16.093Z</time>
      </trkpt>
      <trkpt lat="45.62776" lon="4.62051">
        <ele>617.831142</ele>
        <time>2025-05-08T09:19:18.088Z</time>
      </trkpt>
      <trkpt lat="45.62787" lon="4.62061">
        <ele>616.04449</ele>
        <time>2025-05-08T09:19:20.106Z</time>
      </trkpt>
      <trkpt lat="45.62798" lon="4.62072">
        <ele>614.232159</ele>
        <time>2025-05-08T09:19:22.109Z</time>
      </trkpt>
      <trkpt lat="45.62808" lon="4.62083">
        <ele>612.494058</ele>
        <time>2025-05-08T09:19:24.114Z</time>
      </trkpt>
      <trkpt lat="45.62819" lon="4.62094">
        <ele>610.683602</ele>
        <time>2025-05-08T09:19:26.092Z</time>
      </trkpt>
      <trkpt lat="45.62827" lon="4.62102">
        <ele>609.279801</ele>
        <time>2025-05-08T09:19:28.106Z</time>
      </trkpt>
      <trkpt lat="45.62836" lon="4.62113">
        <ele>607.739929</ele>
        <time>2025-05-08T09:19:30.105Z</time>
      </trkpt>
      <trkpt lat="45.62843" lon="4.62125">
        <ele>606.499289</ele>
        <time>2025-05-08T09:19:32.105Z</time>
      </trkpt>
      <trkpt lat="45.62852" lon="4.6213">
        <ele>605.334403</ele>
        <time>2025-05-08T09:19:34.102Z</time>
      </trkpt>
      <trkpt lat="45.62863" lon="4.6213">
        <ele>604.191162</ele>
        <time>2025-05-08T09:19:36.100Z</time>
      </trkpt>
      <trkpt lat="45.62873" lon="4.6213">
        <ele>602.993029</ele>
        <time>2025-05-08T09:19:38.097Z</time>
      </trkpt>
      <trkpt lat="45.62882" lon="4.62129">
        <ele>601.973169</ele>
        <time>2025-05-08T09:19:40.103Z</time>
      </trkpt>
      <trkpt lat="45.62895" lon="4.62128">
        <ele>600.537088</ele>
        <time>2025-05-08T09:19:43.098Z</time>
      </trkpt>
      <trkpt lat="45.62905" lon="4.62124">
        <ele>599.443482</ele>
        <time>2025-05-08T09:19:45.090Z</time>
      </trkpt>
      <trkpt lat="45.62917" lon="4.62119">
        <ele>598.048114</ele>
        <time>2025-05-08T09:19:47.112Z</time>
      </trkpt>
      <trkpt lat="45.62931" lon="4.62111">
        <ele>596.344022</ele>
        <time>2025-05-08T09:19:49.098Z</time>
      </trkpt>
      <trkpt lat="45.62944" lon="4.621">
        <ele>594.670517</ele>
        <time>2025-05-08T09:19:51.086Z</time>
      </trkpt>
      <trkpt lat="45.62952" lon="4.62086">
        <ele>593.195054</ele>
        <time>2025-05-08T09:19:53.099Z</time>
      </trkpt>
      <trkpt lat="45.62961" lon="4.62067">
        <ele>591.406952</ele>
        <time>2025-05-08T09:19:55.107Z</time>
      </trkpt>
      <trkpt lat="45.62969" lon="4.62045">
        <ele>589.497989</ele>
        <time>2025-05-08T09:19:57.109Z</time>
      </trkpt>
      <trkpt lat="45.62977" lon="4.62028">
        <ele>587.836245</ele>
        <time>2025-05-08T09:19:59.105Z</time>
      </trkpt>
      <trkpt lat="45.62986" lon="4.62011">
        <ele>586.63894</ele>
        <time>2025-05-08T09:20:01.086Z</time>
      </trkpt>
      <trkpt lat="45.62994" lon="4.61998">
        <ele>585.783711</ele>
        <time>2025-05-08T09:20:03.100Z</time>
      </trkpt>
      <trkpt lat="45.63005" lon="4.61993">
        <ele>585.015045</ele>
        <time>2025-05-08T09:20:05.103Z</time>
      </trkpt>
      <trkpt lat="45.63016" lon="4.61996">
        <ele>584.277154</ele>
        <time>2025-05-08T09:20:07.102Z</time>
      </trkpt>
      <trkpt lat="45.63024" lon="4.62005">
        <ele>583.544146</ele>
        <time>2025-05-08T09:20:09.107Z</time>
      </trkpt>
      <trkpt lat="45.63031" lon="4.62017">
        <ele>582.780338</ele>
        <time>2025-05-08T09:20:11.099Z</time>
      </trkpt>
      <trkpt lat="45.63038" lon="4.62028">
        <ele>582.072826</ele>
        <time>2025-05-08T09:20:13.093Z</time>
      </trkpt>
      <trkpt lat="45.6306" lon="4.62059">
        <ele>579.963212</ele>
        <time>2025-05-08T09:21:38.136Z</time>
      </trkpt>
      <trkpt lat="45.63067" lon="4.62072">
        <ele>579.152293</ele>
        <time>2025-05-08T09:21:40.113Z</time>
      </trkpt>
      <trkpt lat="45.63073" lon="4.6209">
        <ele>578.211878</ele>
        <time>2025-05-08T09:21:42.108Z</time>
      </trkpt>
      <trkpt lat="45.63077" lon="4.62111">
        <ele>577.145464</ele>
        <time>2025-05-08T09:21:44.107Z</time>
      </trkpt>
      <trkpt lat="45.63081" lon="4.62134">
        <ele>576.01454</ele>
        <time>2025-05-08T09:21:46.151Z</time>
      </trkpt>
      <trkpt lat="45.63083" lon="4.62156">
        <ele>574.947997</ele>
        <time>2025-05-08T09:21:48.089Z</time>
      </trkpt>
      <trkpt lat="45.63079" lon="4.62179">
        <ele>573.52862</ele>
        <time>2025-05-08T09:21:50.120Z</time>
      </trkpt>
      <trkpt lat="45.63074" lon="4.62199">
        <ele>572.233019</ele>
        <time>2025-05-08T09:21:52.118Z</time>
      </trkpt>
      <trkpt lat="45.63067" lon="4.62216">
        <ele>571.071112</ele>
        <time>2025-05-08T09:21:54.106Z</time>
      </trkpt>
      <trkpt lat="45.63062" lon="4.62233">
        <ele>569.966131</ele>
        <time>2025-05-08T09:21:56.102Z</time>
      </trkpt>
      <trkpt lat="45.63057" lon="4.62248">
        <ele>568.950411</ele>
        <time>2025-05-08T09:21:58.097Z</time>
      </trkpt>
      <trkpt lat="45.63055" lon="4.62267">
        <ele>567.808327</ele>
        <time>2025-05-08T09:22:00.104Z</time>
      </trkpt>
      <trkpt lat="45.63058" lon="4.62285">
        <ele>566.647824</ele>
        <time>2025-05-08T09:22:02.099Z</time>
      </trkpt>
      <trkpt lat="45.63062" lon="4.62302">
        <ele>565.587067</ele>
        <time>2025-05-08T09:22:04.104Z</time>
      </trkpt>
      <trkpt lat="45.63067" lon="4.6232">
        <ele>564.40257</ele>
        <time>2025-05-08T09:22:06.102Z</time>
      </trkpt>
      <trkpt lat="45.63071" lon="4.62339">
        <ele>563.216715</ele>
        <time>2025-05-08T09:22:08.097Z</time>
      </trkpt>
      <trkpt lat="45.63075" lon="4.62354">
        <ele>562.243033</ele>
        <time>2025-05-08T09:22:10.122Z</time>
      </trkpt>
      <trkpt lat="45.63078" lon="4.62368">
        <ele>561.37489</ele>
        <time>2025-05-08T09:22:12.101Z</time>
      </trkpt>
      <trkpt lat="45.63083" lon="4.62382">
        <ele>560.429178</ele>
        <time>2025-05-08T09:22:15.129Z</time>
      </trkpt>
      <trkpt lat="45.63088" lon="4.62394">
        <ele>559.570038</ele>
        <time>2025-05-08T09:22:21.147Z</time>
      </trkpt>
      <trkpt lat="45.63092" lon="4.6241">
        <ele>558.230149</ele>
        <time>2025-05-08T09:22:25.099Z</time>
      </trkpt>
      <trkpt lat="45.63095" lon="4.62423">
        <ele>557.133872</ele>
        <time>2025-05-08T09:22:27.111Z</time>
      </trkpt>
      <trkpt lat="45.63097" lon="4.62437">
        <ele>556.006538</ele>
        <time>2025-05-08T09:22:29.170Z</time>
      </trkpt>
      <trkpt lat="45.63099" lon="4.62453">
        <ele>554.640602</ele>
        <time>2025-05-08T09:22:32.095Z</time>
      </trkpt>
      <trkpt lat="45.631" lon="4.62467">
        <ele>553.574573</ele>
        <time>2025-05-08T09:22:34.076Z</time>
      </trkpt>
      <trkpt lat="45.63101" lon="4.62482">
        <ele>552.361029</ele>
        <time>2025-05-08T09:22:36.109Z</time>
      </trkpt>
      <trkpt lat="45.63102" lon="4.62499">
        <ele>550.989766</ele>
        <time>2025-05-08T09:22:38.100Z</time>
      </trkpt>
      <trkpt lat="45.63104" lon="4.62514">
        <ele>549.725576</ele>
        <time>2025-05-08T09:22:40.112Z</time>
      </trkpt>
      <trkpt lat="45.63102" lon="4.6253">
        <ele>548.454816</ele>
        <time>2025-05-08T09:22:42.097Z</time>
      </trkpt>
      <trkpt lat="45.63099" lon="4.62546">
        <ele>547.109461</ele>
        <time>2025-05-08T09:22:45.103Z</time>
      </trkpt>
      <trkpt lat="45.63096" lon="4.62558">
        <ele>546.069648</ele>
        <time>2025-05-08T09:22:47.104Z</time>
      </trkpt>
      <trkpt lat="45.63091" lon="4.62575">
        <ele>544.558859</ele>
        <time>2025-05-08T09:22:50.097Z</time>
      </trkpt>
      <trkpt lat="45.63088" lon="4.6259">
        <ele>543.358829</ele>
        <time>2025-05-08T09:22:52.089Z</time>
      </trkpt>
      <trkpt lat="45.63084" lon="4.6261">
        <ele>541.669687</ele>
        <time>2025-05-08T09:22:54.098Z</time>
      </trkpt>
      <trkpt lat="45.63081" lon="4.62626">
        <ele>540.357185</ele>
        <time>2025-05-08T09:22:56.101Z</time>
      </trkpt>
      <trkpt lat="45.63077" lon="4.62639">
        <ele>539.200844</ele>
        <time>2025-05-08T09:22:58.114Z</time>
      </trkpt>
      <trkpt lat="45.63075" lon="4.62654">
        <ele>538.18424</ele>
        <time>2025-05-08T09:23:01.288Z</time>
      </trkpt>
      <trkpt lat="45.63078" lon="4.62666">
        <ele>537.372781</ele>
        <time>2025-05-08T09:23:05.093Z</time>
      </trkpt>
      <trkpt lat="45.63077" lon="4.62681">
        <ele>536.433098</ele>
        <time>2025-05-08T09:23:09.104Z</time>
      </trkpt>
      <trkpt lat="45.63077" lon="4.62695">
        <ele>535.581739</ele>
        <time>2025-05-08T09:23:17.173Z</time>
      </trkpt>
      <trkpt lat="45.63081" lon="4.62714">
        <ele>534.308494</ele>
        <time>2025-05-08T09:23:49.131Z</time>
      </trkpt>
      <trkpt lat="45.63086" lon="4.62729">
        <ele>533.260441</ele>
        <time>2025-05-08T09:23:53.243Z</time>
      </trkpt>
      <trkpt lat="45.63088" lon="4.62743">
        <ele>532.408829</ele>
        <time>2025-05-08T09:23:57.124Z</time>
      </trkpt>
      <trkpt lat="45.63092" lon="4.62759">
        <ele>531.318522</ele>
        <time>2025-05-08T09:24:01.099Z</time>
      </trkpt>
      <trkpt lat="45.63092" lon="4.62776">
        <ele>530.272492</ele>
        <time>2025-05-08T09:24:03.118Z</time>
      </trkpt>
      <trkpt lat="45.63091" lon="4.62789">
        <ele>529.451214</ele>
        <time>2025-05-08T09:24:05.118Z</time>
      </trkpt>
      <trkpt lat="45.63089" lon="4.62805">
        <ele>528.402336</ele>
        <time>2025-05-08T09:24:07.103Z</time>
      </trkpt>
      <trkpt lat="45.63089" lon="4.6282">
        <ele>527.481726</ele>
        <time>2025-05-08T09:24:09.128Z</time>
      </trkpt>
      <trkpt lat="45.63089" lon="4.62835">
        <ele>526.567374</ele>
        <time>2025-05-08T09:24:11.089Z</time>
      </trkpt>
      <trkpt lat="45.63089" lon="4.6285">
        <ele>525.627992</ele>
        <time>2025-05-08T09:24:13.097Z</time>
      </trkpt>
      <trkpt lat="45.63089" lon="4.62864">
        <ele>524.745288</ele>
        <time>2025-05-08T09:24:15.120Z</time>
      </trkpt>
      <trkpt lat="45.6309" lon="4.62878">
        <ele>523.840257</ele>
        <time>2025-05-08T09:24:17.100Z</time>
      </trkpt>
      <trkpt lat="45.63091" lon="4.62892">
        <ele>522.934385</ele>
        <time>2025-05-08T09:24:19.083Z</time>
      </trkpt>
      <trkpt lat="45.63094" lon="4.62909">
        <ele>523.154635</ele>
        <time>2025-05-08T09:24:21.086Z</time>
      </trkpt>
      <trkpt lat="45.63098" lon="4.62925">
        <ele>523.742857</ele>
        <time>2025-05-08T09:24:23.121Z</time>
      </trkpt>
      <trkpt lat="45.63101" lon="4.62941">
        <ele>524.368242</ele>
        <time>2025-05-08T09:24:26.122Z</time>
      </trkpt>
      <trkpt lat="45.63104" lon="4.62956">
        <ele>524.910438</ele>
        <time>2025-05-08T09:24:29.110Z</time>
      </trkpt>
      <trkpt lat="45.63106" lon="4.62974">
        <ele>525.586737</ele>
        <time>2025-05-08T09:24:32.105Z</time>
      </trkpt>
      <trkpt lat="45.63107" lon="4.62987">
        <ele>526.064124</ele>
        <time>2025-05-08T09:24:34.100Z</time>
      </trkpt>
      <trkpt lat="45.63108" lon="4.63005">
        <ele>526.716403</ele>
        <time>2025-05-08T09:24:37.212Z</time>
      </trkpt>
      <trkpt lat="45.63107" lon="4.63023">
        <ele>527.354974</ele>
        <time>2025-05-08T09:24:40.106Z</time>
      </trkpt>
      <trkpt lat="45.63103" lon="4.63037">
        <ele>527.918522</ele>
        <time>2025-05-08T09:24:43.104Z</time>
      </trkpt>
      <trkpt lat="45.63099" lon="4.63052">
        <ele>528.501238</ele>
        <time>2025-05-08T09:24:47.086Z</time>
      </trkpt>
      <trkpt lat="45.63092" lon="4.63064">
        <ele>529.058365</ele>
        <time>2025-05-08T09:24:51.096Z</time>
      </trkpt>
      <trkpt lat="45.63085" lon="4.63076">
        <ele>529.61887</ele>
        <time>2025-05-08T09:24:55.106Z</time>
      </trkpt>
      <trkpt lat="45.63079" lon="4.63088">
        <ele>530.132148</ele>
        <time>2025-05-08T09:24:59.110Z</time>
      </trkpt>
      <trkpt lat="45.63075" lon="4.63101">
        <ele>530.667779</ele>
        <time>2025-05-08T09:25:03.104Z</time>
      </trkpt>
      <trkpt lat="45.6307" lon="4.63114">
        <ele>531.190114</ele>
        <time>2025-05-08T09:25:07.108Z</time>
      </trkpt>
      <trkpt lat="45.63066" lon="4.63127">
        <ele>531.70194</ele>
        <time>2025-05-08T09:25:11.096Z</time>
      </trkpt>
      <trkpt lat="45.63063" lon="4.63139">
        <ele>531.91434</ele>
        <time>2025-05-08T09:25:15.105Z</time>
      </trkpt>
      <trkpt lat="45.63061" lon="4.63152">
        <ele>531.768355</ele>
        <time>2025-05-08T09:25:19.101Z</time>
      </trkpt>
      <trkpt lat="45.63059" lon="4.63184">
        <ele>531.422396</ele>
        <time>2025-05-08T09:25:49.132Z</time>
      </trkpt>
      <trkpt lat="45.63062" lon="4.63199">
        <ele>531.245311</ele>
        <time>2025-05-08T09:25:53.102Z</time>
      </trkpt>
      <trkpt lat="45.63065" lon="4.63212">
        <ele>531.100023</ele>
        <time>2025-05-08T09:25:57.109Z</time>
      </trkpt>
      <trkpt lat="45.63077" lon="4.63237">
        <ele>530.763951</ele>
        <time>2025-05-08T09:27:09.109Z</time>
      </trkpt>
      <trkpt lat="45.63086" lon="4.6325">
        <ele>530.569389</ele>
        <time>2025-05-08T09:27:12.101Z</time>
      </trkpt>
      <trkpt lat="45.63094" lon="4.63261">
        <ele>530.386845</ele>
        <time>2025-05-08T09:27:15.076Z</time>
      </trkpt>
      <trkpt lat="45.63101" lon="4.63275">
        <ele>530.202174</ele>
        <time>2025-05-08T09:27:18.081Z</time>
      </trkpt>
      <trkpt lat="45.63106" lon="4.63289">
        <ele>530.030433</ele>
        <time>2025-05-08T09:27:21.083Z</time>
      </trkpt>
      <trkpt lat="45.63112" lon="4.633">
        <ele>529.876974</ele>
        <time>2025-05-08T09:27:23.064Z</time>
      </trkpt>
      <trkpt lat="45.63118" lon="4.63311">
        <ele>529.718313</ele>
        <time>2025-05-08T09:27:25.226Z</time>
      </trkpt>
      <trkpt lat="45.63123" lon="4.63325">
        <ele>529.55094</ele>
        <time>2025-05-08T09:27:27.101Z</time>
      </trkpt>
      <trkpt lat="45.63127" lon="4.63339">
        <ele>529.380624</ele>
        <time>2025-05-08T09:27:29.296Z</time>
      </trkpt>
      <trkpt lat="45.6313" lon="4.63354">
        <ele>529.213154</ele>
        <time>2025-05-08T09:27:31.260Z</time>
      </trkpt>
      <trkpt lat="45.63133" lon="4.63369">
        <ele>528.67521</ele>
        <time>2025-05-08T09:27:33.350Z</time>
      </trkpt>
      <trkpt lat="45.63137" lon="4.63382">
        <ele>527.994515</ele>
        <time>2025-05-08T09:27:35.334Z</time>
      </trkpt>
      <trkpt lat="45.63141" lon="4.63396">
        <ele>527.276608</ele>
        <time>2025-05-08T09:27:37.100Z</time>
      </trkpt>
      <trkpt lat="45.63146" lon="4.6341">
        <ele>526.541375</ele>
        <time>2025-05-08T09:27:39.176Z</time>
      </trkpt>
      <trkpt lat="45.63148" lon="4.63427">
        <ele>525.714136</ele>
        <time>2025-05-08T09:27:41.092Z</time>
      </trkpt>
      <trkpt lat="45.6315" lon="4.63443">
        <ele>524.918711</ele>
        <time>2025-05-08T09:27:43.087Z</time>
      </trkpt>
      <trkpt lat="45.63151" lon="4.6346">
        <ele>524.129218</ele>
        <time>2025-05-08T09:27:45.079Z</time>
      </trkpt>
      <trkpt lat="45.63153" lon="4.63476">
        <ele>523.361366</ele>
        <time>2025-05-08T09:27:47.089Z</time>
      </trkpt>
      <trkpt lat="45.63154" lon="4.63491">
        <ele>522.617975</ele>
        <time>2025-05-08T09:27:49.079Z</time>
      </trkpt>
      <trkpt lat="45.63155" lon="4.63507">
        <ele>521.865897</ele>
        <time>2025-05-08T09:27:51.259Z</time>
      </trkpt>
      <trkpt lat="45.63156" lon="4.63522">
        <ele>521.13348</ele>
        <time>2025-05-08T09:27:53.086Z</time>
      </trkpt>
      <trkpt lat="45.63159" lon="4.63539">
        <ele>520.304835</ele>
        <time>2025-05-08T09:27:55.109Z</time>
      </trkpt>
      <trkpt lat="45.63163" lon="4.63557">
        <ele>519.421451</ele>
        <time>2025-05-08T09:27:57.112Z</time>
      </trkpt>
      <trkpt lat="45.63168" lon="4.63572">
        <ele>518.616018</ele>
        <time>2025-05-08T09:27:59.084Z</time>
      </trkpt>
      <trkpt lat="45.63172" lon="4.63589">
        <ele>517.742988</ele>
        <time>2025-05-08T09:28:01.074Z</time>
      </trkpt>
      <trkpt lat="45.63177" lon="4.63608">
        <ele>516.874051</ele>
        <time>2025-05-08T09:28:03.079Z</time>
      </trkpt>
      <trkpt lat="45.63181" lon="4.63625">
        <ele>516.617912</ele>
        <time>2025-05-08T09:28:05.077Z</time>
      </trkpt>
      <trkpt lat="45.63184" lon="4.63641">
        <ele>516.375059</ele>
        <time>2025-05-08T09:28:07.075Z</time>
      </trkpt>
      <trkpt lat="45.63189" lon="4.63655">
        <ele>516.154478</ele>
        <time>2025-05-08T09:28:09.079Z</time>
      </trkpt>
      <trkpt lat="45.63192" lon="4.6367">
        <ele>515.928764</ele>
        <time>2025-05-08T09:28:11.113Z</time>
      </trkpt>
      <trkpt lat="45.63196" lon="4.63686">
        <ele>515.683991</ele>
        <time>2025-05-08T09:28:13.082Z</time>
      </trkpt>
      <trkpt lat="45.63202" lon="4.637">
        <ele>515.446842</ele>
        <time>2025-05-08T09:28:15.059Z</time>
      </trkpt>
      <trkpt lat="45.63208" lon="4.63714">
        <ele>515.208437</ele>
        <time>2025-05-08T09:28:17.074Z</time>
      </trkpt>
      <trkpt lat="45.63216" lon="4.6373">
        <ele>514.93715</ele>
        <time>2025-05-08T09:28:20.088Z</time>
      </trkpt>
      <trkpt lat="45.63221" lon="4.63741">
        <ele>514.748322</ele>
        <time>2025-05-08T09:28:22.078Z</time>
      </trkpt>
      <trkpt lat="45.63229" lon="4.63747">
        <ele>514.549651</ele>
        <time>2025-05-08T09:28:24.080Z</time>
      </trkpt>
      <trkpt lat="45.6324" lon="4.6375">
        <ele>514.329392</ele>
        <time>2025-05-08T09:28:26.093Z</time>
      </trkpt>
      <trkpt lat="45.6325" lon="4.63748">
        <ele>514.111729</ele>
        <time>2025-05-08T09:28:28.066Z</time>
      </trkpt>
      <trkpt lat="45.63259" lon="4.63747">
        <ele>513.920117</ele>
        <time>2025-05-08T09:28:30.087Z</time>
      </trkpt>
      <trkpt lat="45.63272" lon="4.63748">
        <ele>513.662578</ele>
        <time>2025-05-08T09:28:33.103Z</time>
      </trkpt>
      <trkpt lat="45.63281" lon="4.63755">
        <ele>513.442822</ele>
        <time>2025-05-08T09:28:36.095Z</time>
      </trkpt>
      <trkpt lat="45.63287" lon="4.63766">
        <ele>513.249107</ele>
        <time>2025-05-08T09:28:39.083Z</time>
      </trkpt>
      <trkpt lat="45.63291" lon="4.63779">
        <ele>513.511558</ele>
        <time>2025-05-08T09:28:42.075Z</time>
      </trkpt>
      <trkpt lat="45.63294" lon="4.63793">
        <ele>513.96556</ele>
        <time>2025-05-08T09:28:46.101Z</time>
      </trkpt>
      <trkpt lat="45.63297" lon="4.63807">
        <ele>514.390575</ele>
        <time>2025-05-08T09:28:51.099Z</time>
      </trkpt>
      <trkpt lat="45.633" lon="4.6382">
        <ele>514.788012</ele>
        <time>2025-05-08T09:28:56.074Z</time>
      </trkpt>
      <trkpt lat="45.63302" lon="4.63833">
        <ele>515.183416</ele>
        <time>2025-05-08T09:29:01.075Z</time>
      </trkpt>
      <trkpt lat="45.63305" lon="4.63846">
        <ele>515.582808</ele>
        <time>2025-05-08T09:29:06.093Z</time>
      </trkpt>
      <trkpt lat="45.63306" lon="4.6386">
        <ele>515.998911</ele>
        <time>2025-05-08T09:29:11.096Z</time>
      </trkpt>
      <trkpt lat="45.63308" lon="4.63873">
        <ele>516.39976</ele>
        <time>2025-05-08T09:29:17.093Z</time>
      </trkpt>
      <trkpt lat="45.63311" lon="4.63886">
        <ele>516.812428</ele>
        <time>2025-05-08T09:29:23.095Z</time>
      </trkpt>
      <trkpt lat="45.63317" lon="4.63898">
        <ele>517.231209</ele>
        <time>2025-05-08T09:29:31.087Z</time>
      </trkpt>
      <trkpt lat="45.63322" lon="4.6391">
        <ele>517.633452</ele>
        <time>2025-05-08T09:29:40.096Z</time>
      </trkpt>
      <trkpt lat="45.63331" lon="4.63908">
        <ele>518.021516</ele>
        <time>2025-05-08T09:29:49.077Z</time>
      </trkpt>
      <trkpt lat="45.63336" lon="4.63921">
        <ele>518.460345</ele>
        <time>2025-05-08T09:29:56.102Z</time>
      </trkpt>
      <trkpt lat="45.63342" lon="4.63932">
        <ele>518.87671</ele>
        <time>2025-05-08T09:30:03.108Z</time>
      </trkpt>
      <trkpt lat="45.63347" lon="4.63945">
        <ele>519.31575</ele>
        <time>2025-05-08T09:30:07.121Z</time>
      </trkpt>
      <trkpt lat="45.63352" lon="4.6396">
        <ele>519.80311</ele>
        <time>2025-05-08T09:30:10.083Z</time>
      </trkpt>
      <trkpt lat="45.63357" lon="4.63977">
        <ele>520.328994</ele>
        <time>2025-05-08T09:30:13.102Z</time>
      </trkpt>
      <trkpt lat="45.6336" lon="4.6399">
        <ele>520.751512</ele>
        <time>2025-05-08T09:30:15.100Z</time>
      </trkpt>
      <trkpt lat="45.63368" lon="4.64004">
        <ele>519.51681</ele>
        <time>2025-05-08T09:30:18.096Z</time>
      </trkpt>
      <trkpt lat="45.63374" lon="4.64014">
        <ele>518.464101</ele>
        <time>2025-05-08T09:30:20.107Z</time>
      </trkpt>
      <trkpt lat="45.6338" lon="4.64025">
        <ele>517.406928</ele>
        <time>2025-05-08T09:30:22.111Z</time>
      </trkpt>
      <trkpt lat="45.63384" lon="4.64038">
        <ele>516.293194</ele>
        <time>2025-05-08T09:30:24.102Z</time>
      </trkpt>
      <trkpt lat="45.63382" lon="4.64052">
        <ele>515.18975</ele>
        <time>2025-05-08T09:30:26.110Z</time>
      </trkpt>
      <trkpt lat="45.63377" lon="4.64063">
        <ele>514.12208</ele>
        <time>2025-05-08T09:30:28.108Z</time>
      </trkpt>
      <trkpt lat="45.63373" lon="4.64077">
        <ele>512.974027</ele>
        <time>2025-05-08T09:30:30.098Z</time>
      </trkpt>
      <trkpt lat="45.6337" lon="4.64092">
        <ele>511.79865</ele>
        <time>2025-05-08T09:30:32.112Z</time>
      </trkpt>
      <trkpt lat="45.63369" lon="4.64109">
        <ele>510.464602</ele>
        <time>2025-05-08T09:30:34.096Z</time>
      </trkpt>
      <trkpt lat="45.6337" lon="4.64126">
        <ele>509.161543</ele>
        <time>2025-05-08T09:30:36.116Z</time>
      </trkpt>
      <trkpt lat="45.6337" lon="4.64141">
        <ele>507.998772</ele>
        <time>2025-05-08T09:30:38.104Z</time>
      </trkpt>
      <trkpt lat="45.63368" lon="4.64158">
        <ele>506.60709</ele>
        <time>2025-05-08T09:30:41.072Z</time>
      </trkpt>
      <trkpt lat="45.63367" lon="4.64173">
        <ele>505.451592</ele>
        <time>2025-05-08T09:30:45.110Z</time>
      </trkpt>
      <trkpt lat="45.63374" lon="4.64189">
        <ele>504.006795</ele>
        <time>2025-05-08T09:30:48.114Z</time>
      </trkpt>
      <trkpt lat="45.6338" lon="4.64205">
        <ele>502.564433</ele>
        <time>2025-05-08T09:30:50.111Z</time>
      </trkpt>
      <trkpt lat="45.63388" lon="4.64222">
        <ele>501.049378</ele>
        <time>2025-05-08T09:30:52.091Z</time>
      </trkpt>
      <trkpt lat="45.63396" lon="4.64235">
        <ele>500.303269</ele>
        <time>2025-05-08T09:30:54.096Z</time>
      </trkpt>
      <trkpt lat="45.63405" lon="4.64249">
        <ele>499.653182</ele>
        <time>2025-05-08T09:30:56.108Z</time>
      </trkpt>
      <trkpt lat="45.6341" lon="4.64261">
        <ele>499.168869</ele>
        <time>2025-05-08T09:30:58.091Z</time>
      </trkpt>
      <trkpt lat="45.63416" lon="4.64273">
        <ele>498.673216</ele>
        <time>2025-05-08T09:31:00.108Z</time>
      </trkpt>
      <trkpt lat="45.63426" lon="4.64285">
        <ele>498.009349</ele>
        <time>2025-05-08T09:31:02.150Z</time>
      </trkpt>
      <trkpt lat="45.63435" lon="4.64304">
        <ele>497.187273</ele>
        <time>2025-05-08T09:31:04.103Z</time>
      </trkpt>
      <trkpt lat="45.63443" lon="4.64328">
        <ele>496.299208</ele>
        <time>2025-05-08T09:31:06.127Z</time>
      </trkpt>
      <trkpt lat="45.63446" lon="4.6434">
        <ele>495.816399</ele>
        <time>2025-05-08T09:31:07.070Z</time>
      </trkpt>
      <trkpt lat="45.63449" lon="4.64353">
        <ele>495.357875</ele>
        <time>2025-05-08T09:31:08.153Z</time>
      </trkpt>
      <trkpt lat="45.6345" lon="4.64366">
        <ele>494.904246</ele>
        <time>2025-05-08T09:31:09.132Z</time>
      </trkpt>
      <trkpt lat="45.63451" lon="4.64379">
        <ele>494.450616</ele>
        <time>2025-05-08T09:31:10.107Z</time>
      </trkpt>
      <trkpt lat="45.63447" lon="4.644">
        <ele>493.681061</ele>
        <time>2025-05-08T09:31:12.102Z</time>
      </trkpt>
      <trkpt lat="45.63441" lon="4.64416">
        <ele>493.04495</ele>
        <time>2025-05-08T09:31:14.095Z</time>
      </trkpt>
      <trkpt lat="45.63436" lon="4.64434">
        <ele>492.384969</ele>
        <time>2025-05-08T09:31:17.150Z</time>
      </trkpt>
      <trkpt lat="45.63432" lon="4.64451">
        <ele>491.95852</ele>
        <time>2025-05-08T09:31:20.120Z</time>
      </trkpt>
      <trkpt lat="45.63428" lon="4.64468">
        <ele>492.414472</ele>
        <time>2025-05-08T09:31:23.094Z</time>
      </trkpt>
      <trkpt lat="45.63427" lon="4.64487">
        <ele>492.909703</ele>
        <time>2025-05-08T09:31:26.210Z</time>
      </trkpt>
      <trkpt lat="45.63429" lon="4.64505">
        <ele>493.381708</ele>
        <time>2025-05-08T09:31:29.107Z</time>
      </trkpt>
      <trkpt lat="45.6343" lon="4.64521">
        <ele>493.79595</ele>
        <time>2025-05-08T09:31:32.093Z</time>
      </trkpt>
      <trkpt lat="45.63432" lon="4.64534">
        <ele>494.139651</ele>
        <time>2025-05-08T09:31:35.129Z</time>
      </trkpt>
      <trkpt lat="45.63434" lon="4.64548">
        <ele>494.530181</ele>
        <time>2025-05-08T09:31:39.091Z</time>
      </trkpt>
      <trkpt lat="45.63439" lon="4.64562">
        <ele>494.935149</ele>
        <time>2025-05-08T09:31:44.105Z</time>
      </trkpt>
      <trkpt lat="45.63444" lon="4.64576">
        <ele>495.343486</ele>
        <time>2025-05-08T09:31:48.107Z</time>
      </trkpt>
      <trkpt lat="45.63448" lon="4.6459">
        <ele>495.750287</ele>
        <time>2025-05-08T09:31:52.082Z</time>
      </trkpt>
      <trkpt lat="45.63453" lon="4.64605">
        <ele>496.176237</ele>
        <time>2025-05-08T09:31:56.107Z</time>
      </trkpt>
      <trkpt lat="45.63456" lon="4.6462">
        <ele>496.574632</ele>
        <time>2025-05-08T09:32:00.062Z</time>
      </trkpt>
      <trkpt lat="45.63454" lon="4.64636">
        <ele>496.989005</ele>
        <time>2025-05-08T09:32:04.132Z</time>
      </trkpt>
      <trkpt lat="45.63445" lon="4.64646">
        <ele>497.418247</ele>
        <time>2025-05-08T09:32:07.092Z</time>
      </trkpt>
      <trkpt lat="45.63435" lon="4.64655">
        <ele>497.853116</ele>
        <time>2025-05-08T09:32:10.119Z</time>
      </trkpt>
      <trkpt lat="45.63426" lon="4.64662">
        <ele>498.230742</ele>
        <time>2025-05-08T09:32:13.096Z</time>
      </trkpt>
      <trkpt lat="45.63415" lon="4.64669">
        <ele>498.39787</ele>
        <time>2025-05-08T09:32:17.099Z</time>
      </trkpt>
      <trkpt lat="45.63405" lon="4.64676">
        <ele>497.713163</ele>
        <time>2025-05-08T09:32:21.071Z</time>
      </trkpt>
      <trkpt lat="45.63396" lon="4.64682">
        <ele>497.137267</ele>
        <time>2025-05-08T09:32:25.080Z</time>
      </trkpt>
      <trkpt lat="45.63387" lon="4.6469">
        <ele>496.508202</ele>
        <time>2025-05-08T09:32:29.086Z</time>
      </trkpt>
      <trkpt lat="45.63378" lon="4.64694">
        <ele>495.968331</ele>
        <time>2025-05-08T09:32:32.093Z</time>
      </trkpt>
      <trkpt lat="45.63368" lon="4.64697">
        <ele>495.339685</ele>
        <time>2025-05-08T09:32:35.114Z</time>
      </trkpt>
      <trkpt lat="45.63357" lon="4.64703">
        <ele>494.647464</ele>
        <time>2025-05-08T09:32:38.084Z</time>
      </trkpt>
      <trkpt lat="45.63347" lon="4.6471">
        <ele>494.005448</ele>
        <time>2025-05-08T09:32:41.092Z</time>
      </trkpt>
      <trkpt lat="45.63334" lon="4.64715">
        <ele>493.203403</ele>
        <time>2025-05-08T09:32:44.081Z</time>
      </trkpt>
      <trkpt lat="45.63323" lon="4.64719">
        <ele>492.50582</ele>
        <time>2025-05-08T09:32:47.109Z</time>
      </trkpt>
      <trkpt lat="45.63311" lon="4.64725">
        <ele>491.743688</ele>
        <time>2025-05-08T09:32:50.072Z</time>
      </trkpt>
      <trkpt lat="45.63302" lon="4.6473">
        <ele>491.147438</ele>
        <time>2025-05-08T09:32:52.100Z</time>
      </trkpt>
      <trkpt lat="45.6329" lon="4.64739">
        <ele>490.387046</ele>
        <time>2025-05-08T09:32:55.118Z</time>
      </trkpt>
      <trkpt lat="45.6328" lon="4.64747">
        <ele>489.717605</ele>
        <time>2025-05-08T09:32:57.100Z</time>
      </trkpt>
      <trkpt lat="45.6327" lon="4.64753">
        <ele>489.066985</ele>
        <time>2025-05-08T09:32:59.094Z</time>
      </trkpt>
      <trkpt lat="45.63262" lon="4.6476">
        <ele>488.508794</ele>
        <time>2025-05-08T09:33:01.099Z</time>
      </trkpt>
      <trkpt lat="45.63252" lon="4.64767">
        <ele>487.848938</ele>
        <time>2025-05-08T09:33:03.089Z</time>
      </trkpt>
      <trkpt lat="45.6324" lon="4.64774">
        <ele>487.187409</ele>
        <time>2025-05-08T09:33:05.076Z</time>
      </trkpt>
      <trkpt lat="45.63227" lon="4.64784">
        <ele>486.430041</ele>
        <time>2025-05-08T09:33:07.068Z</time>
      </trkpt>
      <trkpt lat="45.63215" lon="4.64795">
        <ele>485.697779</ele>
        <time>2025-05-08T09:33:09.092Z</time>
      </trkpt>
      <trkpt lat="45.63203" lon="4.64802">
        <ele>485.042481</ele>
        <time>2025-05-08T09:33:11.072Z</time>
      </trkpt>
      <trkpt lat="45.63193" lon="4.64812">
        <ele>484.410071</ele>
        <time>2025-05-08T09:33:13.091Z</time>
      </trkpt>
      <trkpt lat="45.63181" lon="4.64821">
        <ele>483.737879</ele>
        <time>2025-05-08T09:33:15.083Z</time>
      </trkpt>
      <trkpt lat="45.63169" lon="4.64831">
        <ele>483.041914</ele>
        <time>2025-05-08T09:33:17.086Z</time>
      </trkpt>
      <trkpt lat="45.63157" lon="4.64841">
        <ele>482.31759</ele>
        <time>2025-05-08T09:33:19.100Z</time>
      </trkpt>
      <trkpt lat="45.63145" lon="4.64853">
        <ele>481.57037</ele>
        <time>2025-05-08T09:33:21.079Z</time>
      </trkpt>
      <trkpt lat="45.63134" lon="4.64866">
        <ele>480.845768</ele>
        <time>2025-05-08T09:33:23.090Z</time>
      </trkpt>
      <trkpt lat="45.63123" lon="4.64879">
        <ele>480.119579</ele>
        <time>2025-05-08T09:33:25.097Z</time>
      </trkpt>
      <trkpt lat="45.63113" lon="4.64892">
        <ele>479.428903</ele>
        <time>2025-05-08T09:33:27.097Z</time>
      </trkpt>
      <trkpt lat="45.63102" lon="4.64902">
        <ele>478.773034</ele>
        <time>2025-05-08T09:33:29.107Z</time>
      </trkpt>
      <trkpt lat="45.63092" lon="4.64909">
        <ele>477.222491</ele>
        <time>2025-05-08T09:33:31.091Z</time>
      </trkpt>
      <trkpt lat="45.63083" lon="4.64917">
        <ele>475.650735</ele>
        <time>2025-05-08T09:33:33.103Z</time>
      </trkpt>
      <trkpt lat="45.63073" lon="4.64924">
        <ele>474.025489</ele>
        <time>2025-05-08T09:33:35.093Z</time>
      </trkpt>
      <trkpt lat="45.63063" lon="4.64931">
        <ele>472.487752</ele>
        <time>2025-05-08T09:33:37.099Z</time>
      </trkpt>
      <trkpt lat="45.63054" lon="4.64939">
        <ele>470.832834</ele>
        <time>2025-05-08T09:33:39.101Z</time>
      </trkpt>
      <trkpt lat="45.63043" lon="4.64946">
        <ele>469.093409</ele>
        <time>2025-05-08T09:33:41.089Z</time>
      </trkpt>
      <trkpt lat="45.63033" lon="4.64952">
        <ele>467.535528</ele>
        <time>2025-05-08T09:33:43.103Z</time>
      </trkpt>
      <trkpt lat="45.63022" lon="4.64956">
        <ele>465.966062</ele>
        <time>2025-05-08T09:33:45.109Z</time>
      </trkpt>
      <trkpt lat="45.63013" lon="4.6496">
        <ele>464.526075</ele>
        <time>2025-05-08T09:33:47.108Z</time>
      </trkpt>
      <trkpt lat="45.63001" lon="4.64964">
        <ele>462.662219</ele>
        <time>2025-05-08T09:33:50.113Z</time>
      </trkpt>
      <trkpt lat="45.62989" lon="4.6497">
        <ele>460.892115</ele>
        <time>2025-05-08T09:33:53.092Z</time>
      </trkpt>
      <trkpt lat="45.62979" lon="4.64975">
        <ele>459.369781</ele>
        <time>2025-05-08T09:33:56.089Z</time>
      </trkpt>
      <trkpt lat="45.62969" lon="4.64983">
        <ele>457.697135</ele>
        <time>2025-05-08T09:33:59.088Z</time>
      </trkpt>
      <trkpt lat="45.62962" lon="4.64992">
        <ele>456.272442</ele>
        <time>2025-05-08T09:34:07.078Z</time>
      </trkpt>
      <trkpt lat="45.62953" lon="4.64998">
        <ele>454.849325</ele>
        <time>2025-05-08T09:34:12.081Z</time>
      </trkpt>
      <trkpt lat="45.62945" lon="4.65003">
        <ele>453.52624</ele>
        <time>2025-05-08T09:34:22.093Z</time>
      </trkpt>
      <trkpt lat="45.62936" lon="4.65004">
        <ele>452.289621</ele>
        <time>2025-05-08T09:34:30.092Z</time>
      </trkpt>
      <trkpt lat="45.62926" lon="4.65026">
        <ele>450.566507</ele>
        <time>2025-05-08T09:35:00.105Z</time>
      </trkpt>
      <trkpt lat="45.62924" lon="4.65045">
        <ele>449.323957</ele>
        <time>2025-05-08T09:35:03.084Z</time>
      </trkpt>
      <trkpt lat="45.62923" lon="4.65062">
        <ele>448.163701</ele>
        <time>2025-05-08T09:35:06.096Z</time>
      </trkpt>
      <trkpt lat="45.62922" lon="4.6508">
        <ele>446.987022</ele>
        <time>2025-05-08T09:35:09.098Z</time>
      </trkpt>
      <trkpt lat="45.62922" lon="4.65098">
        <ele>445.760067</ele>
        <time>2025-05-08T09:35:12.093Z</time>
      </trkpt>
      <trkpt lat="45.62922" lon="4.65112">
        <ele>444.858133</ele>
        <time>2025-05-08T09:35:14.082Z</time>
      </trkpt>
      <trkpt lat="45.62922" lon="4.65128">
        <ele>443.809843</ele>
        <time>2025-05-08T09:35:16.071Z</time>
      </trkpt>
      <trkpt lat="45.62923" lon="4.65145">
        <ele>442.63824</ele>
        <time>2025-05-08T09:35:18.089Z</time>
      </trkpt>
      <trkpt lat="45.62924" lon="4.65165">
        <ele>441.302161</ele>
        <time>2025-05-08T09:35:20.099Z</time>
      </trkpt>
      <trkpt lat="45.62926" lon="4.65188">
        <ele>439.811846</ele>
        <time>2025-05-08T09:35:22.087Z</time>
      </trkpt>
      <trkpt lat="45.62927" lon="4.6521">
        <ele>438.295098</ele>
        <time>2025-05-08T09:35:24.121Z</time>
      </trkpt>
      <trkpt lat="45.62926" lon="4.65233">
        <ele>436.822051</ele>
        <time>2025-05-08T09:35:26.101Z</time>
      </trkpt>
      <trkpt lat="45.62923" lon="4.65255">
        <ele>435.33948</ele>
        <time>2025-05-08T09:35:28.099Z</time>
      </trkpt>
      <trkpt lat="45.62918" lon="4.6528">
        <ele>434.506393</ele>
        <time>2025-05-08T09:35:30.091Z</time>
      </trkpt>
      <trkpt lat="45.62916" lon="4.65293">
        <ele>434.083716</ele>
        <time>2025-05-08T09:35:31.085Z</time>
      </trkpt>
      <trkpt lat="45.62915" lon="4.65305">
        <ele>433.661366</ele>
        <time>2025-05-08T09:35:32.092Z</time>
      </trkpt>
      <trkpt lat="45.62915" lon="4.65319">
        <ele>433.221852</ele>
        <time>2025-05-08T09:35:33.107Z</time>
      </trkpt>
      <trkpt lat="45.62916" lon="4.65333">
        <ele>432.766391</ele>
        <time>2025-05-08T09:35:34.093Z</time>
      </trkpt>
      <trkpt lat="45.62918" lon="4.65347">
        <ele>432.293652</ele>
        <time>2025-05-08T09:35:35.089Z</time>
      </trkpt>
      <trkpt lat="45.62921" lon="4.65361">
        <ele>431.800693</ele>
        <time>2025-05-08T09:35:36.107Z</time>
      </trkpt>
      <trkpt lat="45.62922" lon="4.65376">
        <ele>431.301623</ele>
        <time>2025-05-08T09:35:37.093Z</time>
      </trkpt>
      <trkpt lat="45.62924" lon="4.65392">
        <ele>430.790241</ele>
        <time>2025-05-08T09:35:38.089Z</time>
      </trkpt>
      <trkpt lat="45.62924" lon="4.65407">
        <ele>430.281943</ele>
        <time>2025-05-08T09:35:39.072Z</time>
      </trkpt>
      <trkpt lat="45.62922" lon="4.65422">
        <ele>429.786731</ele>
        <time>2025-05-08T09:35:40.109Z</time>
      </trkpt>
      <trkpt lat="45.62918" lon="4.65435">
        <ele>429.315599</ele>
        <time>2025-05-08T09:35:41.067Z</time>
      </trkpt>
      <trkpt lat="45.62913" lon="4.65447">
        <ele>428.85512</ele>
        <time>2025-05-08T09:35:42.085Z</time>
      </trkpt>
      <trkpt lat="45.62908" lon="4.65459">
        <ele>428.403286</ele>
        <time>2025-05-08T09:35:43.118Z</time>
      </trkpt>
      <trkpt lat="45.62901" lon="4.6547">
        <ele>427.947107</ele>
        <time>2025-05-08T09:35:44.085Z</time>
      </trkpt>
      <trkpt lat="45.62896" lon="4.65481">
        <ele>427.498276</ele>
        <time>2025-05-08T09:35:45.113Z</time>
      </trkpt>
      <trkpt lat="45.6289" lon="4.65492">
        <ele>427.054815</ele>
        <time>2025-05-08T09:35:46.089Z</time>
      </trkpt>
      <trkpt lat="45.62885" lon="4.65503">
        <ele>427.22396</ele>
        <time>2025-05-08T09:35:47.089Z</time>
      </trkpt>
      <trkpt lat="45.62879" lon="4.65513">
        <ele>427.552652</ele>
        <time>2025-05-08T09:35:48.090Z</time>
      </trkpt>
      <trkpt lat="45.6287" lon="4.65531">
        <ele>428.1244</ele>
        <time>2025-05-08T09:35:50.087Z</time>
      </trkpt>
      <trkpt lat="45.62859" lon="4.65546">
        <ele>428.643238</ele>
        <time>2025-05-08T09:35:52.091Z</time>
      </trkpt>
      <trkpt lat="45.62849" lon="4.65557">
        <ele>429.104024</ele>
        <time>2025-05-08T09:35:54.087Z</time>
      </trkpt>
      <trkpt lat="45.6284" lon="4.65568">
        <ele>429.534992</ele>
        <time>2025-05-08T09:35:56.103Z</time>
      </trkpt>
      <trkpt lat="45.62831" lon="4.65578">
        <ele>429.946097</ele>
        <time>2025-05-08T09:35:58.086Z</time>
      </trkpt>
      <trkpt lat="45.62823" lon="4.65587">
        <ele>430.310686</ele>
        <time>2025-05-08T09:36:00.088Z</time>
      </trkpt>
      <trkpt lat="45.62816" lon="4.65596">
        <ele>430.655773</ele>
        <time>2025-05-08T09:36:02.107Z</time>
      </trkpt>
      <trkpt lat="45.62809" lon="4.65605">
        <ele>430.987867</ele>
        <time>2025-05-08T09:36:04.108Z</time>
      </trkpt>
      <trkpt lat="45.62801" lon="4.65616">
        <ele>431.386574</ele>
        <time>2025-05-08T09:36:07.092Z</time>
      </trkpt>
      <trkpt lat="45.62793" lon="4.65624">
        <ele>431.740944</ele>
        <time>2025-05-08T09:36:11.067Z</time>
      </trkpt>
      <trkpt lat="45.62786" lon="4.65633">
        <ele>432.088036</ele>
        <time>2025-05-08T09:36:15.085Z</time>
      </trkpt>
      <trkpt lat="45.62778" lon="4.65643">
        <ele>432.459155</ele>
        <time>2025-05-08T09:36:19.102Z</time>
      </trkpt>
      <trkpt lat="45.62769" lon="4.65651">
        <ele>432.840702</ele>
        <time>2025-05-08T09:36:24.133Z</time>
      </trkpt>
      <trkpt lat="45.62763" lon="4.65662">
        <ele>433.185861</ele>
        <time>2025-05-08T09:36:29.155Z</time>
      </trkpt>
      <trkpt lat="45.62757" lon="4.65675">
        <ele>433.643292</ele>
        <time>2025-05-08T09:36:33.082Z</time>
      </trkpt>
      <trkpt lat="45.62751" lon="4.65689">
        <ele>434.208762</ele>
        <time>2025-05-08T09:36:37.105Z</time>
      </trkpt>
      <trkpt lat="45.62748" lon="4.65703">
        <ele>434.719054</ele>
        <time>2025-05-08T09:36:41.081Z</time>
      </trkpt>
      <trkpt lat="45.62746" lon="4.65718">
        <ele>435.251753</ele>
        <time>2025-05-08T09:36:45.112Z</time>
      </trkpt>
      <trkpt lat="45.62744" lon="4.65731">
        <ele>435.706077</ele>
        <time>2025-05-08T09:36:49.104Z</time>
      </trkpt>
      <trkpt lat="45.62743" lon="4.65746">
        <ele>436.214962</ele>
        <time>2025-05-08T09:36:53.082Z</time>
      </trkpt>
      <trkpt lat="45.62742" lon="4.6576">
        <ele>436.724815</ele>
        <time>2025-05-08T09:36:57.104Z</time>
      </trkpt>
      <trkpt lat="45.62742" lon="4.65776">
        <ele>437.287485</ele>
        <time>2025-05-08T09:37:01.081Z</time>
      </trkpt>
      <trkpt lat="45.62743" lon="4.65792">
        <ele>437.830124</ele>
        <time>2025-05-08T09:37:05.091Z</time>
      </trkpt>
      <trkpt lat="45.62743" lon="4.65806">
        <ele>438.309267</ele>
        <time>2025-05-08T09:37:09.087Z</time>
      </trkpt>
      <trkpt lat="45.62746" lon="4.6582">
        <ele>438.833383</ele>
        <time>2025-05-08T09:37:13.094Z</time>
      </trkpt>
      <trkpt lat="45.62746" lon="4.65835">
        <ele>439.347247</ele>
        <time>2025-05-08T09:37:17.095Z</time>
      </trkpt>
      <trkpt lat="45.62745" lon="4.65848">
        <ele>439.799296</ele>
        <time>2025-05-08T09:37:20.091Z</time>
      </trkpt>
      <trkpt lat="45.62745" lon="4.65864">
        <ele>440.34443</ele>
        <time>2025-05-08T09:37:24.102Z</time>
      </trkpt>
      <trkpt lat="45.62746" lon="4.65879">
        <ele>440.869298</ele>
        <time>2025-05-08T09:37:28.072Z</time>
      </trkpt>
      <trkpt lat="45.62746" lon="4.65892">
        <ele>441.338681</ele>
        <time>2025-05-08T09:37:32.082Z</time>
      </trkpt>
      <trkpt lat="45.62746" lon="4.65906">
        <ele>441.821322</ele>
        <time>2025-05-08T09:37:36.093Z</time>
      </trkpt>
      <trkpt lat="45.62747" lon="4.65921">
        <ele>442.330667</ele>
        <time>2025-05-08T09:37:40.084Z</time>
      </trkpt>
      <trkpt lat="45.62747" lon="4.65936">
        <ele>442.334787</ele>
        <time>2025-05-08T09:37:44.091Z</time>
      </trkpt>
      <trkpt lat="45.62746" lon="4.65952">
        <ele>442.32984</ele>
        <time>2025-05-08T09:37:48.089Z</time>
      </trkpt>
      <trkpt lat="45.62743" lon="4.65967">
        <ele>442.324922</ele>
        <time>2025-05-08T09:37:52.088Z</time>
      </trkpt>
      <trkpt lat="45.62743" lon="4.6598">
        <ele>442.320695</ele>
        <time>2025-05-08T09:37:56.133Z</time>
      </trkpt>
      <trkpt lat="45.62742" lon="4.65994">
        <ele>442.316181</ele>
        <time>2025-05-08T09:38:01.081Z</time>
      </trkpt>
      <trkpt lat="45.62742" lon="4.66007">
        <ele>442.311866</ele>
        <time>2025-05-08T09:38:05.089Z</time>
      </trkpt>
      <trkpt lat="45.62742" lon="4.66021">
        <ele>442.307362</ele>
        <time>2025-05-08T09:38:09.101Z</time>
      </trkpt>
      <trkpt lat="45.62739" lon="4.66037">
        <ele>442.302161</ele>
        <time>2025-05-08T09:38:14.091Z</time>
      </trkpt>
      <trkpt lat="45.62734" lon="4.66051">
        <ele>442.297141</ele>
        <time>2025-05-08T09:38:18.083Z</time>
      </trkpt>
      <trkpt lat="45.62729" lon="4.66063">
        <ele>442.292453</ele>
        <time>2025-05-08T09:38:22.102Z</time>
      </trkpt>
      <trkpt lat="45.62724" lon="4.66075">
        <ele>442.288072</ele>
        <time>2025-05-08T09:38:26.083Z</time>
      </trkpt>
      <trkpt lat="45.62718" lon="4.66088">
        <ele>442.28307</ele>
        <time>2025-05-08T09:38:30.124Z</time>
      </trkpt>
      <trkpt lat="45.62714" lon="4.661">
        <ele>442.278817</ele>
        <time>2025-05-08T09:38:33.095Z</time>
      </trkpt>
      <trkpt lat="45.62707" lon="4.66112">
        <ele>442.273727</ele>
        <time>2025-05-08T09:38:37.076Z</time>
      </trkpt>
      <trkpt lat="45.62701" lon="4.66123">
        <ele>442.269298</ele>
        <time>2025-05-08T09:38:41.075Z</time>
      </trkpt>
      <trkpt lat="45.62695" lon="4.66137">
        <ele>442.264078</ele>
        <time>2025-05-08T09:38:45.101Z</time>
      </trkpt>
      <trkpt lat="45.62688" lon="4.66151">
        <ele>442.258592</ele>
        <time>2025-05-08T09:38:49.100Z</time>
      </trkpt>
      <trkpt lat="45.62682" lon="4.66164">
        <ele>442.252214</ele>
        <time>2025-05-08T09:38:53.092Z</time>
      </trkpt>
      <trkpt lat="45.62675" lon="4.66178">
        <ele>442.245154</ele>
        <time>2025-05-08T09:38:57.082Z</time>
      </trkpt>
      <trkpt lat="45.62668" lon="4.66191">
        <ele>442.238011</ele>
        <time>2025-05-08T09:39:01.079Z</time>
      </trkpt>
      <trkpt lat="45.6266" lon="4.66203">
        <ele>442.230874</ele>
        <time>2025-05-08T09:39:05.085Z</time>
      </trkpt>
      <trkpt lat="45.62652" lon="4.66214">
        <ele>442.224003</ele>
        <time>2025-05-08T09:39:09.092Z</time>
      </trkpt>
      <trkpt lat="45.62645" lon="4.66223">
        <ele>442.218438</ele>
        <time>2025-05-08T09:39:12.093Z</time>
      </trkpt>
      <trkpt lat="45.62639" lon="4.66232">
        <ele>442.212948</ele>
        <time>2025-05-08T09:39:15.102Z</time>
      </trkpt>
      <trkpt lat="45.62631" lon="4.66246">
        <ele>442.205661</ele>
        <time>2025-05-08T09:39:19.109Z</time>
      </trkpt>
      <trkpt lat="45.62624" lon="4.66259">
        <ele>442.198304</ele>
        <time>2025-05-08T09:39:23.098Z</time>
      </trkpt>
      <trkpt lat="45.62619" lon="4.66271">
        <ele>442.192513</ele>
        <time>2025-05-08T09:39:26.097Z</time>
      </trkpt>
      <trkpt lat="45.62614" lon="4.66282">
        <ele>442.186838</ele>
        <time>2025-05-08T09:39:29.103Z</time>
      </trkpt>
      <trkpt lat="45.62609" lon="4.66294">
        <ele>442.181033</ele>
        <time>2025-05-08T09:39:32.101Z</time>
      </trkpt>
      <trkpt lat="45.62603" lon="4.66306">
        <ele>442.174463</ele>
        <time>2025-05-08T09:39:36.090Z</time>
      </trkpt>
      <trkpt lat="45.62598" lon="4.66319">
        <ele>442.16826</ele>
        <time>2025-05-08T09:39:40.099Z</time>
      </trkpt>
      <trkpt lat="45.6259" lon="4.66333">
        <ele>442.160851</ele>
        <time>2025-05-08T09:39:44.096Z</time>
      </trkpt>
      <trkpt lat="45.62585" lon="4.66344">
        <ele>442.155014</ele>
        <time>2025-05-08T09:39:47.093Z</time>
      </trkpt>
      <trkpt lat="45.6258" lon="4.66355">
        <ele>442.149423</ele>
        <time>2025-05-08T09:39:50.100Z</time>
      </trkpt>
      <trkpt lat="45.62575" lon="4.66366">
        <ele>441.834078</ele>
        <time>2025-05-08T09:39:53.091Z</time>
      </trkpt>
      <trkpt lat="45.62572" lon="4.66379">
        <ele>441.326498</ele>
        <time>2025-05-08T09:39:56.103Z</time>
      </trkpt>
      <trkpt lat="45.62571" lon="4.66392">
        <ele>440.835589</ele>
        <time>2025-05-08T09:39:59.081Z</time>
      </trkpt>
      <trkpt lat="45.62571" lon="4.66409">
        <ele>440.230918</ele>
        <time>2025-05-08T09:40:03.088Z</time>
      </trkpt>
      <trkpt lat="45.62571" lon="4.66424">
        <ele>439.647838</ele>
        <time>2025-05-08T09:40:07.092Z</time>
      </trkpt>
      <trkpt lat="45.62569" lon="4.66438">
        <ele>439.135137</ele>
        <time>2025-05-08T09:40:11.162Z</time>
      </trkpt>
      <trkpt lat="45.6257" lon="4.66455">
        <ele>438.493044</ele>
        <time>2025-05-08T09:40:15.096Z</time>
      </trkpt>
      <trkpt lat="45.62575" lon="4.66471">
        <ele>437.866775</ele>
        <time>2025-05-08T09:40:18.110Z</time>
      </trkpt>
      <trkpt lat="45.62571" lon="4.66489">
        <ele>437.168416</ele>
        <time>2025-05-08T09:40:21.075Z</time>
      </trkpt>
      <trkpt lat="45.62565" lon="4.66504">
        <ele>436.518998</ele>
        <time>2025-05-08T09:40:23.096Z</time>
      </trkpt>
      <trkpt lat="45.62558" lon="4.66524">
        <ele>435.70431</ele>
        <time>2025-05-08T09:40:25.156Z</time>
      </trkpt>
      <trkpt lat="45.62551" lon="4.66547">
        <ele>434.766583</ele>
        <time>2025-05-08T09:40:27.108Z</time>
      </trkpt>
      <trkpt lat="45.62542" lon="4.66567">
        <ele>433.874168</ele>
        <time>2025-05-08T09:40:29.095Z</time>
      </trkpt>
      <trkpt lat="45.62531" lon="4.66585">
        <ele>433.015629</ele>
        <time>2025-05-08T09:40:31.105Z</time>
      </trkpt>
      <trkpt lat="45.62519" lon="4.66599">
        <ele>432.327537</ele>
        <time>2025-05-08T09:40:33.095Z</time>
      </trkpt>
      <trkpt lat="45.62505" lon="4.66611">
        <ele>431.73567</ele>
        <time>2025-05-08T09:40:35.091Z</time>
      </trkpt>
      <trkpt lat="45.62491" lon="4.66622">
        <ele>431.205453</ele>
        <time>2025-05-08T09:40:37.101Z</time>
      </trkpt>
      <trkpt lat="45.62478" lon="4.66633">
        <ele>430.686709</ele>
        <time>2025-05-08T09:40:39.077Z</time>
      </trkpt>
      <trkpt lat="45.62465" lon="4.66643">
        <ele>430.158935</ele>
        <time>2025-05-08T09:40:41.065Z</time>
      </trkpt>
      <trkpt lat="45.62451" lon="4.66654">
        <ele>429.610127</ele>
        <time>2025-05-08T09:40:43.067Z</time>
      </trkpt>
      <trkpt lat="45.62441" lon="4.66662">
        <ele>429.183776</ele>
        <time>2025-05-08T09:40:45.099Z</time>
      </trkpt>
      <trkpt lat="45.62432" lon="4.6667">
        <ele>428.812637</ele>
        <time>2025-05-08T09:40:47.084Z</time>
      </trkpt>
      <trkpt lat="45.62423" lon="4.66677">
        <ele>428.463225</ele>
        <time>2025-05-08T09:40:49.096Z</time>
      </trkpt>
      <trkpt lat="45.62414" lon="4.66684">
        <ele>428.094416</ele>
        <time>2025-05-08T09:40:52.099Z</time>
      </trkpt>
      <trkpt lat="45.62403" lon="4.66682">
        <ele>427.721273</ele>
        <time>2025-05-08T09:40:56.100Z</time>
      </trkpt>
      <trkpt lat="45.62395" lon="4.66691">
        <ele>427.356986</ele>
        <time>2025-05-08T09:41:01.069Z</time>
      </trkpt>
      <trkpt lat="45.62393" lon="4.66705">
        <ele>427.017678</ele>
        <time>2025-05-08T09:41:04.109Z</time>
      </trkpt>
      <trkpt lat="45.62391" lon="4.66719">
        <ele>426.664604</ele>
        <time>2025-05-08T09:41:07.096Z</time>
      </trkpt>
      <trkpt lat="45.62389" lon="4.66733">
        <ele>426.317145</ele>
        <time>2025-05-08T09:41:10.079Z</time>
      </trkpt>
      <trkpt lat="45.62386" lon="4.66748">
        <ele>426.302413</ele>
        <time>2025-05-08T09:41:14.104Z</time>
      </trkpt>
      <trkpt lat="45.62384" lon="4.66761">
        <ele>426.289949</ele>
        <time>2025-05-08T09:41:18.093Z</time>
      </trkpt>
      <trkpt lat="45.62383" lon="4.66776">
        <ele>426.276054</ele>
        <time>2025-05-08T09:41:24.169Z</time>
      </trkpt>
      <trkpt lat="45.62381" lon="4.6679">
        <ele>426.262221</ele>
        <time>2025-05-08T09:41:28.141Z</time>
      </trkpt>
      <trkpt lat="45.62384" lon="4.66805">
        <ele>426.248445</ele>
        <time>2025-05-08T09:41:32.112Z</time>
      </trkpt>
      <trkpt lat="45.62387" lon="4.66818">
        <ele>426.235148</ele>
        <time>2025-05-08T09:41:35.085Z</time>
      </trkpt>
      <trkpt lat="45.62391" lon="4.66831">
        <ele>426.221336</ele>
        <time>2025-05-08T09:41:38.081Z</time>
      </trkpt>
      <trkpt lat="45.62386" lon="4.66844">
        <ele>426.207476</ele>
        <time>2025-05-08T09:41:41.144Z</time>
      </trkpt>
      <trkpt lat="45.62377" lon="4.66855">
        <ele>426.191117</ele>
        <time>2025-05-08T09:41:44.092Z</time>
      </trkpt>
      <trkpt lat="45.62368" lon="4.66864">
        <ele>426.176048</ele>
        <time>2025-05-08T09:41:47.098Z</time>
      </trkpt>
      <trkpt lat="45.62359" lon="4.66874">
        <ele>426.161691</ele>
        <time>2025-05-08T09:41:50.072Z</time>
      </trkpt>
      <trkpt lat="45.62351" lon="4.66885">
        <ele>426.14679</ele>
        <time>2025-05-08T09:41:53.090Z</time>
      </trkpt>
      <trkpt lat="45.62344" lon="4.66896">
        <ele>426.132482</ele>
        <time>2025-05-08T09:41:56.089Z</time>
      </trkpt>
      <trkpt lat="45.62338" lon="4.66907">
        <ele>426.119684</ele>
        <time>2025-05-08T09:41:59.105Z</time>
      </trkpt>
      <trkpt lat="45.6233" lon="4.66919">
        <ele>426.103921</ele>
        <time>2025-05-08T09:42:03.114Z</time>
      </trkpt>
      <trkpt lat="45.62323" lon="4.66932">
        <ele>426.088984</ele>
        <time>2025-05-08T09:42:07.091Z</time>
      </trkpt>
      <trkpt lat="45.62316" lon="4.66945">
        <ele>426.076385</ele>
        <time>2025-05-08T09:42:11.088Z</time>
      </trkpt>
      <trkpt lat="45.62308" lon="4.66957">
        <ele>426.077344</ele>
        <time>2025-05-08T09:42:15.104Z</time>
      </trkpt>
      <trkpt lat="45.623" lon="4.66969">
        <ele>426.078318</ele>
        <time>2025-05-08T09:42:19.087Z</time>
      </trkpt>
      <trkpt lat="45.62291" lon="4.66981">
        <ele>426.079284</ele>
        <time>2025-05-08T09:42:23.082Z</time>
      </trkpt>
      <trkpt lat="45.62282" lon="4.6699">
        <ele>426.080269</ele>
        <time>2025-05-08T09:42:27.087Z</time>
      </trkpt>
      <trkpt lat="45.62272" lon="4.67001">
        <ele>426.081257</ele>
        <time>2025-05-08T09:42:31.069Z</time>
      </trkpt>
      <trkpt lat="45.62265" lon="4.67009">
        <ele>426.082043</ele>
        <time>2025-05-08T09:42:34.091Z</time>
      </trkpt>
      <trkpt lat="45.62257" lon="4.67018">
        <ele>426.082861</ele>
        <time>2025-05-08T09:42:37.100Z</time>
      </trkpt>
      <trkpt lat="45.6225" lon="4.67027">
        <ele>426.083652</ele>
        <time>2025-05-08T09:42:40.093Z</time>
      </trkpt>
      <trkpt lat="45.62243" lon="4.67035">
        <ele>426.084395</ele>
        <time>2025-05-08T09:42:43.081Z</time>
      </trkpt>
      <trkpt lat="45.62234" lon="4.67047">
        <ele>426.085374</ele>
        <time>2025-05-08T09:42:47.070Z</time>
      </trkpt>
      <trkpt lat="45.62225" lon="4.67058">
        <ele>426.086357</ele>
        <time>2025-05-08T09:42:51.080Z</time>
      </trkpt>
      <trkpt lat="45.62219" lon="4.67067">
        <ele>426.087107</ele>
        <time>2025-05-08T09:42:54.086Z</time>
      </trkpt>
      <trkpt lat="45.62211" lon="4.67079">
        <ele>426.088042</ele>
        <time>2025-05-08T09:42:58.098Z</time>
      </trkpt>
      <trkpt lat="45.62204" lon="4.67087">
        <ele>426.088801</ele>
        <time>2025-05-08T09:43:01.079Z</time>
      </trkpt>
      <trkpt lat="45.62197" lon="4.67096">
        <ele>426.089596</ele>
        <time>2025-05-08T09:43:04.068Z</time>
      </trkpt>
      <trkpt lat="45.62189" lon="4.67106">
        <ele>426.090451</ele>
        <time>2025-05-08T09:43:07.095Z</time>
      </trkpt>
      <trkpt lat="45.62181" lon="4.67116">
        <ele>426.013546</ele>
        <time>2025-05-08T09:43:10.095Z</time>
      </trkpt>
      <trkpt lat="45.62172" lon="4.67126">
        <ele>425.733312</ele>
        <time>2025-05-08T09:43:13.100Z</time>
      </trkpt>
      <trkpt lat="45.62161" lon="4.67136">
        <ele>425.437884</ele>
        <time>2025-05-08T09:43:16.094Z</time>
      </trkpt>
      <trkpt lat="45.62151" lon="4.67146">
        <ele>425.137566</ele>
        <time>2025-05-08T09:43:19.075Z</time>
      </trkpt>
      <trkpt lat="45.62142" lon="4.67157">
        <ele>424.85961</ele>
        <time>2025-05-08T09:43:22.090Z</time>
      </trkpt>
      <trkpt lat="45.62133" lon="4.67169">
        <ele>424.562052</ele>
        <time>2025-05-08T09:43:25.098Z</time>
      </trkpt>
      <trkpt lat="45.62123" lon="4.67181">
        <ele>424.240862</ele>
        <time>2025-05-08T09:43:28.092Z</time>
      </trkpt>
      <trkpt lat="45.62114" lon="4.67194">
        <ele>423.938518</ele>
        <time>2025-05-08T09:43:31.070Z</time>
      </trkpt>
      <trkpt lat="45.62103" lon="4.67206">
        <ele>423.620238</ele>
        <time>2025-05-08T09:43:34.075Z</time>
      </trkpt>
      <trkpt lat="45.62095" lon="4.67212">
        <ele>423.39085</ele>
        <time>2025-05-08T09:43:36.078Z</time>
      </trkpt>
      <trkpt lat="45.62086" lon="4.67219">
        <ele>423.156833</ele>
        <time>2025-05-08T09:43:38.074Z</time>
      </trkpt>
      <trkpt lat="45.62078" lon="4.67229">
        <ele>422.905114</ele>
        <time>2025-05-08T09:43:40.101Z</time>
      </trkpt>
      <trkpt lat="45.62071" lon="4.6724">
        <ele>422.648521</ele>
        <time>2025-05-08T09:43:42.092Z</time>
      </trkpt>
      <trkpt lat="45.62063" lon="4.67251">
        <ele>422.383864</ele>
        <time>2025-05-08T09:43:44.095Z</time>
      </trkpt>
      <trkpt lat="45.62055" lon="4.67262">
        <ele>422.112799</ele>
        <time>2025-05-08T09:43:46.091Z</time>
      </trkpt>
      <trkpt lat="45.62046" lon="4.6727">
        <ele>421.870341</ele>
        <time>2025-05-08T09:43:48.093Z</time>
      </trkpt>
      <trkpt lat="45.62036" lon="4.6727">
        <ele>421.793344</ele>
        <time>2025-05-08T09:43:50.096Z</time>
      </trkpt>
      <trkpt lat="45.62028" lon="4.67262">
        <ele>421.793344</ele>
        <time>2025-05-08T09:43:52.103Z</time>
      </trkpt>
      <trkpt lat="45.62021" lon="4.67253">
        <ele>421.793344</ele>
        <time>2025-05-08T09:43:54.107Z</time>
      </trkpt>
      <trkpt lat="45.62014" lon="4.67243">
        <ele>421.793344</ele>
        <time>2025-05-08T09:43:56.067Z</time>
      </trkpt>
      <trkpt lat="45.62006" lon="4.67234">
        <ele>421.793344</ele>
        <time>2025-05-08T09:43:58.086Z</time>
      </trkpt>
      <trkpt lat="45.61999" lon="4.67225">
        <ele>421.793344</ele>
        <time>2025-05-08T09:44:00.088Z</time>
      </trkpt>
      <trkpt lat="45.61992" lon="4.67215">
        <ele>421.793344</ele>
        <time>2025-05-08T09:44:02.084Z</time>
      </trkpt>
      <trkpt lat="45.61985" lon="4.67204">
        <ele>421.793344</ele>
        <time>2025-05-08T09:44:04.076Z</time>
      </trkpt>
      <trkpt lat="45.61977" lon="4.6719">
        <ele>421.793344</ele>
        <time>2025-05-08T09:44:07.079Z</time>
      </trkpt>
      <trkpt lat="45.61969" lon="4.67177">
        <ele>421.793344</ele>
        <time>2025-05-08T09:44:10.073Z</time>
      </trkpt>
      <trkpt lat="45.61962" lon="4.67168">
        <ele>421.793344</ele>
        <time>2025-05-08T09:44:13.073Z</time>
      </trkpt>
      <trkpt lat="45.61953" lon="4.67158">
        <ele>421.793344</ele>
        <time>2025-05-08T09:44:17.083Z</time>
      </trkpt>
      <trkpt lat="45.61944" lon="4.67148">
        <ele>421.793344</ele>
        <time>2025-05-08T09:44:21.082Z</time>
      </trkpt>
    </trkseg>
  </trk>
</gpx>